[[{"header":{"parameterUnit":"m.s-1","parameterCategory":1,"la1":30.6,"la2":29.2853,"lo1":-89.7004,"lo2":-87.6739,"dy":0.0162,"dx":0.0183,"nx":112,"ny":82,"refTime":"2024-06-21T12:00:00:Z","depth":0,"parameterNumber":2,"parameterNumberName":"U-component_of_WINDS"},"data":[0.0,0.0,0.0,0.0,0.0,0.0,0.0,0.0,0.0,0.0,0.0,0.0,0.0,0.0,0.0,0.0,0.0,0.0,0.0,0.0,0.0,0.0,0.0,0.0,0.0,0.0,0.0,0.0,0.0,0.0,0.0,0.0,0.0,0.0,0.0,0.0,0.0,0.0,0.0,0.0,0.0,0.0,0.0,0.0,0.0,0.0,0.0,0.0,0.0,0.0,0.0,0.0,0.0,0.0,0.0,0.0,0.0,0.0,0.0,0.0,0.0,0.0,0.0,0.0,0.0,0.0,0.0,0.0,0.0,0.0,0.0,0.0,0.0,0.0,0.0,0.0,0.0,0.0,0.0,0.0,0.0,0.0,0.0,0.0,0.0,0.0,0.0,0.0,0.0,0.0,-4.5817,-4.8277,-4.9686,-5.0094,-4.9174,-4.7858,-4.59,-4.3122,0.0,0.0,0.0,0.0,0.0,0.0,0.0,0.0,0.0,0.0,0.0,0.0,0.0,0.0,0.0,0.0,0.0,0.0,0.0,0.0,0.0,0.0,0.0,0.0,0.0,0.0,0.0,0.0,0.0,0.0,0.0,0.0,0.0,0.0,0.0,0.0,0.0,0.0,0.0,0.0,0.0,0.0,0.0,0.0,0.0,0.0,0.0,0.0,0.0,0.0,0.0,0.0,0.0,0.0,0.0,0.0,0.0,0.0,0.0,0.0,0.0,0.0,0.0,0.0,0.0,0.0,0.0,0.0,0.0,0.0,0.0,0.0,0.0,0.0,0.0,0.0,0.0,0.0,0.0,0.0,0.0,0.0,0.0,0.0,0.0,0.0,0.0,0.0,0.0,0.0,0.0,0.0,0.0,0.0,0.0,0.0,0.0,0.0,0.0,0.0,0.0,0.0,0.0,0.0,-4.6596,-4.8918,-4.9313,-4.9347,-4.912,-4.7256,-4.5114,-4.2807,0.0,0.0,0.0,0.0,0.0,0.0,0.0,0.0,0.0,0.0,0.0,0.0,0.0,0.0,0.0,0.0,0.0,0.0,0.0,0.0,0.0,0.0,0.0,0.0,0.0,0.0,0.0,0.0,0.0,0.0,0.0,0.0,0.0,0.0,0.0,0.0,0.0,0.0,0.0,0.0,0.0,0.0,0.0,0.0,0.0,0.0,0.0,0.0,0.0,0.0,0.0,0.0,0.0,0.0,0.0,0.0,0.0,0.0,0.0,0.0,0.0,0.0,0.0,0.0,0.0,0.0,0.0,0.0,0.0,0.0,0.0,0.0,0.0,0.0,0.0,0.0,0.0,0.0,0.0,0.0,0.0,0.0,0.0,0.0,0.0,0.0,0.0,0.0,0.0,0.0,0.0,0.0,0.0,0.0,0.0,0.0,0.0,0.0,0.0,0.0,0.0,0.0,0.0,-4.6548,-4.7239,-4.9051,-4.9211,-4.9129,-4.8996,-4.6893,-4.4762,-4.2844,-4.1931,0.0,0.0,0.0,0.0,0.0,0.0,0.0,0.0,0.0,0.0,0.0,0.0,0.0,0.0,0.0,0.0,0.0,0.0,0.0,0.0,0.0,0.0,0.0,0.0,0.0,0.0,0.0,0.0,0.0,0.0,0.0,0.0,0.0,0.0,0.0,0.0,0.0,0.0,0.0,0.0,0.0,0.0,0.0,0.0,0.0,0.0,0.0,0.0,0.0,0.0,0.0,0.0,0.0,0.0,0.0,0.0,0.0,0.0,0.0,0.0,0.0,0.0,0.0,0.0,0.0,0.0,0.0,0.0,0.0,0.0,0.0,0.0,0.0,0.0,0.0,0.0,0.0,0.0,0.0,0.0,0.0,0.0,0.0,0.0,0.0,0.0,0.0,0.0,0.0,0.0,0.0,0.0,0.0,0.0,0.0,0.0,0.0,0.0,0.0,0.0,0.0,0.0,-4.7447,-4.8029,-4.9067,-4.9181,-4.9046,-4.8785,-4.6614,-4.453,-4.2727,-4.1661,0.0,0.0,0.0,0.0,0.0,0.0,0.0,0.0,0.0,0.0,0.0,0.0,0.0,0.0,0.0,0.0,0.0,0.0,0.0,0.0,0.0,0.0,0.0,0.0,0.0,0.0,0.0,0.0,0.0,0.0,0.0,0.0,0.0,0.0,0.0,0.0,0.0,0.0,0.0,0.0,0.0,0.0,0.0,0.0,0.0,0.0,0.0,0.0,0.0,0.0,0.0,0.0,0.0,0.0,0.0,0.0,0.0,0.0,0.0,0.0,0.0,0.0,0.0,0.0,0.0,0.0,0.0,0.0,0.0,0.0,0.0,0.0,0.0,0.0,0.0,0.0,0.0,0.0,0.0,0.0,0.0,0.0,0.0,0.0,0.0,0.0,0.0,0.0,0.0,0.0,0.0,0.0,0.0,0.0,0.0,0.0,0.0,0.0,0.0,0.0,0.0,0.0,-4.8307,-4.9209,-4.9116,-4.9101,-4.8892,-4.8382,-4.6478,-4.4371,-4.2181,-4.1453,0.0,0.0,0.0,0.0,0.0,0.0,0.0,0.0,0.0,0.0,0.0,0.0,0.0,0.0,0.0,0.0,0.0,0.0,0.0,0.0,0.0,0.0,0.0,0.0,0.0,0.0,0.0,0.0,0.0,0.0,0.0,0.0,0.0,0.0,0.0,0.0,0.0,0.0,0.0,0.0,0.0,0.0,0.0,0.0,0.0,0.0,0.0,0.0,0.0,0.0,0.0,0.0,0.0,0.0,0.0,0.0,0.0,0.0,0.0,0.0,0.0,0.0,0.0,0.0,0.0,0.0,0.0,0.0,0.0,0.0,0.0,0.0,0.0,0.0,0.0,0.0,0.0,0.0,0.0,0.0,0.0,0.0,0.0,0.0,0.0,0.0,0.0,0.0,0.0,0.0,0.0,0.0,0.0,0.0,0.0,0.0,0.0,0.0,0.0,0.0,0.0,0.0,-4.7559,-4.8464,-4.8317,-4.8505,-4.8366,-4.7628,-4.5834,-4.3727,-4.1407,0.0,0.0,0.0,0.0,0.0,0.0,0.0,0.0,0.0,0.0,0.0,0.0,0.0,0.0,0.0,0.0,0.0,0.0,0.0,0.0,0.0,0.0,0.0,0.0,0.0,0.0,0.0,0.0,0.0,0.0,0.0,0.0,0.0,0.0,0.0,0.0,0.0,0.0,0.0,0.0,0.0,0.0,0.0,0.0,0.0,0.0,0.0,0.0,0.0,0.0,0.0,0.0,0.0,0.0,0.0,0.0,0.0,0.0,0.0,0.0,0.0,0.0,0.0,0.0,0.0,0.0,0.0,0.0,0.0,0.0,0.0,0.0,0.0,0.0,0.0,0.0,0.0,0.0,0.0,0.0,0.0,0.0,0.0,0.0,0.0,0.0,0.0,0.0,0.0,0.0,0.0,0.0,0.0,0.0,0.0,0.0,0.0,0.0,0.0,0.0,0.0,0.0,-4.5615,-4.7003,-4.7791,-4.7242,-4.7443,-4.726,-4.6387,-4.4926,-4.3056,-4.0732,0.0,0.0,0.0,0.0,0.0,0.0,0.0,0.0,0.0,0.0,0.0,0.0,0.0,0.0,0.0,0.0,0.0,0.0,0.0,0.0,0.0,0.0,0.0,0.0,0.0,0.0,0.0,0.0,0.0,0.0,0.0,0.0,0.0,0.0,0.0,0.0,0.0,0.0,0.0,0.0,0.0,0.0,0.0,0.0,0.0,0.0,0.0,0.0,0.0,0.0,0.0,0.0,0.0,0.0,0.0,0.0,0.0,0.0,0.0,0.0,0.0,0.0,0.0,0.0,0.0,0.0,0.0,0.0,0.0,0.0,0.0,0.0,0.0,0.0,0.0,0.0,0.0,0.0,0.0,0.0,0.0,0.0,0.0,0.0,0.0,0.0,0.0,0.0,0.0,0.0,0.0,0.0,0.0,0.0,0.0,0.0,0.0,0.0,0.0,0.0,0.0,0.0,-4.5407,-4.689,-4.7432,-4.6029,-4.5883,-4.553,-4.4678,-4.3793,-4.2351,0.0,0.0,0.0,0.0,0.0,0.0,0.0,0.0,0.0,0.0,0.0,0.0,0.0,0.0,0.0,0.0,0.0,0.0,0.0,0.0,0.0,0.0,0.0,0.0,0.0,0.0,0.0,0.0,0.0,0.0,0.0,0.0,0.0,0.0,0.0,0.0,0.0,0.0,0.0,0.0,0.0,0.0,0.0,0.0,0.0,0.0,0.0,0.0,0.0,0.0,0.0,0.0,0.0,0.0,0.0,0.0,0.0,0.0,0.0,0.0,0.0,0.0,0.0,0.0,0.0,0.0,0.0,0.0,0.0,0.0,0.0,0.0,0.0,0.0,0.0,0.0,0.0,0.0,0.0,0.0,0.0,0.0,0.0,0.0,0.0,0.0,0.0,0.0,0.0,0.0,0.0,0.0,0.0,0.0,0.0,0.0,0.0,0.0,0.0,0.0,0.0,0.0,0.0,-4.4522,-4.5451,-4.5828,-4.513,-4.501,-4.4635,-4.3761,-4.2578,-4.1111,-3.9289,0.0,0.0,0.0,0.0,0.0,0.0,0.0,0.0,0.0,0.0,0.0,0.0,0.0,0.0,0.0,0.0,0.0,0.0,0.0,0.0,0.0,0.0,0.0,0.0,0.0,0.0,0.0,0.0,0.0,0.0,0.0,0.0,0.0,0.0,0.0,0.0,0.0,0.0,0.0,0.0,0.0,0.0,0.0,0.0,0.0,0.0,0.0,0.0,0.0,0.0,0.0,0.0,0.0,0.0,0.0,0.0,0.0,0.0,0.0,0.0,0.0,0.0,0.0,0.0,0.0,0.0,0.0,0.0,0.0,0.0,0.0,0.0,0.0,0.0,0.0,0.0,0.0,0.0,0.0,0.0,0.0,0.0,0.0,0.0,0.0,0.0,0.0,0.0,0.0,0.0,0.0,0.0,0.0,0.0,0.0,0.0,0.0,0.0,0.0,0.0,0.0,0.0,-4.2724,-4.3926,-4.439,-4.3359,-4.3432,-4.3173,-4.2192,-4.1278,-4.0075,-3.8443,0.0,0.0,0.0,0.0,0.0,0.0,0.0,0.0,0.0,0.0,0.0,0.0,0.0,0.0,0.0,0.0,0.0,0.0,0.0,0.0,0.0,0.0,0.0,0.0,0.0,0.0,0.0,0.0,0.0,0.0,0.0,0.0,0.0,0.0,0.0,0.0,0.0,0.0,0.0,0.0,0.0,0.0,0.0,0.0,0.0,0.0,0.0,0.0,0.0,0.0,0.0,0.0,0.0,0.0,0.0,0.0,0.0,0.0,0.0,0.0,0.0,0.0,0.0,0.0,0.0,0.0,0.0,0.0,0.0,0.0,0.0,0.0,0.0,0.0,0.0,0.0,0.0,0.0,0.0,0.0,0.0,0.0,0.0,0.0,0.0,0.0,0.0,0.0,0.0,0.0,0.0,0.0,0.0,0.0,0.0,0.0,0.0,0.0,0.0,0.0,0.0,0.0,-4.0763,-4.2465,-4.3014,-4.1278,-4.1487,-4.1301,-4.0276,-3.9894,-3.9136,-3.7767,0.0,0.0,0.0,0.0,0.0,0.0,0.0,0.0,0.0,0.0,0.0,0.0,0.0,0.0,0.0,0.0,0.0,0.0,0.0,0.0,0.0,0.0,0.0,0.0,0.0,0.0,0.0,0.0,0.0,0.0,0.0,0.0,0.0,0.0,0.0,0.0,0.0,0.0,0.0,0.0,0.0,0.0,0.0,0.0,0.0,0.0,0.0,0.0,0.0,0.0,0.0,0.0,0.0,0.0,0.0,0.0,0.0,0.0,0.0,0.0,-4.5445,-4.5087,0.0,0.0,0.0,0.0,0.0,0.0,0.0,0.0,0.0,0.0,0.0,0.0,0.0,0.0,0.0,0.0,0.0,0.0,0.0,0.0,0.0,0.0,0.0,0.0,0.0,0.0,0.0,0.0,0.0,0.0,0.0,0.0,0.0,0.0,0.0,0.0,0.0,0.0,0.0,0.0,-4.2121,-4.1689,-4.1203,-4.1109,-4.0262,-3.9606,-3.929,-3.8599,-3.8005,-3.7573,-3.6353,0.0,0.0,0.0,0.0,0.0,0.0,0.0,0.0,0.0,0.0,0.0,0.0,0.0,0.0,0.0,0.0,0.0,0.0,0.0,0.0,0.0,0.0,0.0,0.0,0.0,0.0,0.0,0.0,0.0,0.0,0.0,0.0,0.0,0.0,0.0,0.0,0.0,0.0,0.0,0.0,0.0,0.0,0.0,0.0,0.0,0.0,0.0,0.0,0.0,0.0,0.0,0.0,0.0,0.0,0.0,0.0,0.0,0.0,0.0,-4.5549,-4.5321,0.0,0.0,0.0,0.0,0.0,0.0,0.0,0.0,0.0,0.0,0.0,0.0,0.0,0.0,0.0,0.0,0.0,0.0,0.0,0.0,0.0,0.0,0.0,0.0,0.0,0.0,0.0,0.0,0.0,0.0,0.0,0.0,0.0,0.0,0.0,0.0,0.0,0.0,0.0,0.0,-3.9971,-4.0303,-4.0267,-3.9681,-3.9284,-3.8872,-3.8417,-3.7906,-3.74,-3.696,-3.5835,0.0,0.0,0.0,0.0,0.0,0.0,0.0,0.0,0.0,0.0,0.0,0.0,0.0,0.0,0.0,0.0,0.0,0.0,0.0,0.0,0.0,0.0,0.0,0.0,0.0,0.0,0.0,0.0,0.0,0.0,0.0,0.0,0.0,0.0,0.0,0.0,0.0,0.0,0.0,0.0,0.0,0.0,0.0,0.0,0.0,0.0,0.0,0.0,0.0,0.0,0.0,0.0,0.0,-4.5691,-4.5555,-4.5691,-4.5538,-4.5144,-4.4654,-4.5275,-4.5062,-4.4241,-4.3885,0.0,0.0,0.0,0.0,0.0,0.0,0.0,0.0,0.0,0.0,0.0,0.0,0.0,0.0,0.0,0.0,0.0,0.0,0.0,0.0,0.0,0.0,-4.2226,-4.2062,-4.2604,-4.2961,-4.2177,0.0,0.0,0.0,0.0,0.0,0.0,0.0,0.0,0.0,0.0,0.0,-3.7745,-3.9062,-3.9547,-3.8163,-3.8353,-3.8299,-3.7546,-3.737,-3.7012,-3.6335,-3.5611,-3.5208,0.0,0.0,0.0,0.0,0.0,0.0,0.0,0.0,0.0,0.0,0.0,0.0,0.0,0.0,0.0,0.0,0.0,0.0,0.0,0.0,0.0,0.0,0.0,0.0,0.0,0.0,0.0,0.0,0.0,0.0,0.0,0.0,-3.607,-3.7165,0.0,0.0,0.0,0.0,0.0,0.0,0.0,0.0,0.0,0.0,0.0,0.0,0.0,-4.6086,-4.7017,-4.7074,-4.7111,-4.7092,-4.4863,-4.4219,-4.4918,-4.41,-4.4071,-4.473,-4.5446,0.0,-4.4233,-4.4575,0.0,0.0,0.0,0.0,0.0,0.0,0.0,0.0,0.0,0.0,0.0,0.0,0.0,0.0,0.0,0.0,0.0,0.0,0.0,0.0,0.0,0.0,-4.3735,-4.3689,-4.3779,-4.3831,-4.3708,-4.2593,-4.159,-4.159,-4.1468,-4.1142,0.0,0.0,0.0,0.0,0.0,0.0,-3.9888,-3.9076,-3.8298,-3.802,-3.7411,-3.6904,-3.6676,-3.6537,-3.6404,-3.6301,-3.5611,-3.549,-3.609,-3.4307,0.0,0.0,0.0,0.0,0.0,0.0,0.0,0.0,0.0,0.0,0.0,0.0,0.0,0.0,0.0,0.0,0.0,0.0,0.0,0.0,0.0,0.0,0.0,0.0,0.0,0.0,0.0,0.0,0.0,-3.5695,-3.7223,-3.8551,-3.865,-3.8956,0.0,0.0,0.0,0.0,0.0,0.0,0.0,0.0,0.0,-4.4543,-4.546,-4.6326,-4.7185,-4.7757,-4.7534,-4.6563,-4.5447,-4.4617,-4.4049,-4.3599,-4.3369,-4.335,-4.4117,-4.3885,-4.3061,-4.4371,-4.4573,-4.4027,0.0,0.0,0.0,0.0,-4.289,-4.2203,-4.276,-4.2649,-4.2259,-4.2259,0.0,0.0,0.0,0.0,0.0,0.0,0.0,-4.2393,-4.2797,-4.3222,-4.3647,-4.4023,-4.4119,-4.4085,-4.402,-4.3512,-4.3044,-4.2961,-4.2242,-4.14,-4.058,-3.9821,0.0,0.0,0.0,-3.9354,-3.9136,-3.8853,-3.8279,-3.7259,-3.6814,-3.6523,-3.6402,-3.6322,-3.6301,-3.6301,-3.599,-3.5893,-3.6131,-3.4785,-3.4189,0.0,0.0,0.0,0.0,0.0,0.0,0.0,0.0,0.0,0.0,0.0,0.0,0.0,0.0,0.0,0.0,0.0,0.0,0.0,0.0,0.0,0.0,0.0,0.0,0.0,0.0,0.0,0.0,-3.6923,-3.8157,-3.9624,-3.9663,-4.0064,0.0,0.0,0.0,0.0,0.0,0.0,-4.364,-4.2832,-4.3124,-4.4885,-4.5841,-4.659,-4.7217,-4.7911,-4.7492,-4.5982,-4.5569,-4.4598,-4.318,-4.313,-4.2881,-4.2551,-4.3371,-4.3169,-4.2346,-4.3713,-4.3889,-4.3315,-4.3586,-4.3336,-4.289,-4.3708,-4.3243,-4.2389,-4.3578,-4.3615,-4.3113,-4.3113,-4.2571,-4.195,-4.1946,0.0,0.0,0.0,0.0,-4.2637,-4.3193,-4.3245,-4.3334,-4.4054,-4.4031,-4.3908,-4.4014,-4.4023,-4.3976,-4.3876,-4.2928,-4.1905,-4.1089,-4.0267,0.0,-3.9017,-3.9631,-3.9697,-3.8437,-3.8552,-3.8188,-3.6662,-3.6502,-3.6444,-3.6322,-3.6301,-3.6301,-3.6301,-3.6301,-3.6233,-3.6058,-3.5234,-3.4754,-3.4732,0.0,0.0,0.0,0.0,0.0,0.0,0.0,0.0,0.0,0.0,0.0,0.0,0.0,0.0,0.0,0.0,0.0,0.0,0.0,0.0,0.0,0.0,0.0,0.0,0.0,0.0,0.0,0.0,0.0,-3.9681,-4.1225,0.0,0.0,0.0,0.0,-4.3471,-4.1893,-4.2,-4.4499,-4.3746,-4.4034,-4.5777,-4.6681,-4.7197,-4.7286,-4.734,-4.6909,-4.5982,-4.4384,-4.3141,-4.2272,-4.2262,-4.2654,-4.3386,-4.4269,-4.3961,-4.2832,-4.268,-4.2563,-4.2504,-4.2763,-4.2835,-4.289,-4.3708,-4.3949,-4.3893,-4.3968,-4.3968,-4.3949,-4.3949,-4.3453,-4.2839,-4.2911,-4.2922,0.0,0.0,-4.3534,-4.4188,-4.4225,-4.3631,-4.3239,-4.408,-4.3595,-4.3182,-4.4016,-4.3795,-4.344,-4.344,-4.3419,-4.3138,-4.2255,0.0,-4.107,-4.1195,-4.0062,-3.9132,-3.8955,-3.8324,-3.7513,-3.661,-3.6502,-3.6444,-3.6322,-3.6301,-3.6301,-3.6301,-3.6301,-3.6276,-3.6187,-3.5766,-3.5487,-3.5374,-3.3812,0.0,0.0,0.0,0.0,0.0,0.0,0.0,0.0,0.0,0.0,0.0,0.0,0.0,0.0,0.0,0.0,0.0,0.0,0.0,0.0,0.0,0.0,0.0,0.0,0.0,0.0,0.0,0.0,-4.0531,-4.1197,0.0,-4.2313,-4.1812,-4.2051,-4.3495,-4.1968,-4.205,-4.4561,-4.4378,-4.4951,-4.6621,-4.8108,-4.8626,-4.807,-4.8674,-4.7706,-4.522,-4.4617,-4.3297,-4.1354,-4.1364,-4.1805,-4.2582,-4.2881,-4.2941,-4.2802,-4.2544,-4.2287,-4.2184,-4.3166,-4.3578,-4.3615,-4.3893,-4.4005,-4.4005,-4.4005,-4.4005,-4.402,-4.4104,-4.3945,-4.3748,-4.3822,-4.3862,-4.3905,-4.3905,-4.4158,-4.443,-4.443,-4.3812,-4.3254,-4.3531,-4.3338,-4.3146,-4.3323,-4.3471,-4.3491,-4.3087,-4.2829,-4.24,-4.1636,-4.1374,-4.1161,-4.0749,-4.0555,-4.0239,-3.9636,-3.8925,-3.8118,-3.7249,-3.6675,-3.6343,-3.6301,-3.6301,-3.6301,-3.6301,-3.6301,-3.6216,-3.6079,-3.5932,-3.5694,-3.5402,-3.4404,-3.3621,0.0,0.0,0.0,0.0,0.0,0.0,0.0,0.0,0.0,0.0,0.0,0.0,0.0,0.0,0.0,0.0,0.0,0.0,0.0,0.0,0.0,0.0,0.0,0.0,0.0,-3.9443,-4.0111,-4.1003,-4.1358,-4.1766,-4.2339,-4.1813,-4.204,-4.3491,-4.1981,-4.2084,-4.4566,-4.4428,-4.5021,-4.6633,-4.7862,-4.8225,-4.7663,-4.8274,-4.7157,-4.4365,-4.4656,-4.3588,-4.1354,-4.1646,-4.2218,-4.2978,-4.2978,-4.304,-4.311,-4.3196,-4.2829,-4.231,-4.3226,-4.3596,-4.3633,-4.3893,-4.4005,-4.4005,-4.4005,-4.4005,-4.402,-4.418,-4.4229,-4.4259,-4.4344,-4.4401,-4.4426,-4.4426,-4.4473,-4.4501,-4.4501,-4.3688,-4.2924,-4.317,-4.2665,-4.2168,-4.2329,-4.2396,-4.2376,-4.2244,-4.2223,-4.1999,-4.1331,-4.1301,-4.1206,-4.065,-4.0908,-4.0834,-3.9956,-3.919,-3.8407,-3.7581,-3.6766,-3.6301,-3.6301,-3.6301,-3.6301,-3.6301,-3.6301,-3.6195,-3.5932,-3.5693,-3.5479,-3.5287,-3.4622,-3.3911,-3.3198,0.0,0.0,0.0,0.0,0.0,0.0,0.0,0.0,0.0,0.0,0.0,0.0,0.0,0.0,0.0,0.0,0.0,0.0,0.0,0.0,0.0,0.0,0.0,-3.9799,-3.9821,-4.0142,-4.0995,-4.1869,-4.2417,-4.244,-4.2373,-4.2708,-4.3588,-4.203,-4.211,-4.4577,-4.3897,-4.422,-4.588,-4.5977,-4.6009,-4.603,-4.6036,-4.5193,-4.3544,-4.4404,-4.3899,-4.2272,-4.3102,-4.394,-4.4697,-4.4697,-4.4338,-4.3781,-4.4577,-4.407,-4.2797,-4.2835,-4.2835,-4.2927,-4.367,-4.3949,-4.3931,-4.3931,-4.3931,-4.3962,-4.4147,-4.4225,-4.424,-4.4402,-4.4463,-4.4463,-4.4482,-4.4482,-4.4463,-4.4463,-4.3224,-4.2173,-4.3018,-4.1562,-4.024,-4.1068,-4.0525,-4.0112,-4.0897,-4.1672,-4.2026,-4.148,-4.1403,-4.1312,-4.1117,-4.1111,0.0,-3.9825,-3.906,-3.8301,-3.7581,-3.6766,-3.6301,-3.6301,-3.6301,-3.6301,-3.6301,-3.6301,-3.6131,-3.5817,-3.5103,-3.4851,-3.5095,-3.4378,-3.3734,-3.3232,0.0,0.0,0.0,0.0,0.0,0.0,0.0,0.0,0.0,0.0,0.0,0.0,0.0,0.0,0.0,0.0,0.0,0.0,0.0,0.0,0.0,-3.8492,-3.9609,-3.9773,-4.0302,-4.0766,-4.0997,-4.1833,-4.2635,-4.3202,-4.3259,-4.359,-4.4484,-4.2925,-4.2759,-4.4598,-4.4474,-4.5079,-4.6711,-4.7428,-4.7482,-4.6887,-4.6911,-4.6105,-4.4443,-4.4695,-4.4229,-4.3161,-4.3394,-4.3898,-4.455,-4.455,-4.4538,-4.4507,-4.4735,-4.403,-4.2853,-4.3448,-4.367,-4.3633,-4.3262,-4.276,-4.2259,-4.2259,-4.2259,-4.2289,-4.2392,-4.2402,-4.2561,-4.332,-4.3568,-4.3694,-4.4318,-4.4083,-4.3632,-4.3632,-4.2393,-4.1126,-4.1069,-4.0514,-3.9961,-3.9816,-3.977,-3.98,-3.9988,-3.9956,-4.0231,-4.1233,-4.1284,-4.1163,-4.1093,-4.1023,-4.0642,-3.9802,-3.906,-3.8301,-3.7581,-3.6766,-3.6301,-3.6301,-3.6301,-3.6301,-3.6301,-3.6152,-3.6041,-3.5954,-3.5552,-3.5335,-3.531,-3.4441,-3.4002,0.0,0.0,0.0,0.0,0.0,0.0,0.0,0.0,0.0,0.0,0.0,0.0,0.0,0.0,0.0,0.0,0.0,0.0,0.0,0.0,0.0,0.0,-3.9185,-4.0087,-4.0189,-4.0669,-4.0999,-4.1006,-4.1805,-4.2536,-4.3017,-4.3387,-4.3659,-4.3799,-4.3201,-4.3242,-4.4154,-4.4518,-4.5271,-4.6571,-4.7099,-4.7132,-4.6661,-4.668,-4.6063,-4.4757,-4.5137,-4.4851,-4.4054,-4.4384,-4.4564,-4.4583,-4.455,-4.425,-4.379,-4.3786,-4.3207,-4.237,0.0,0.0,0.0,0.0,-4.1999,-4.159,-4.159,-4.159,-4.1605,-4.1673,-4.1716,-4.1852,-4.2482,-4.2674,-4.2795,-4.3305,-4.3112,-4.2736,-4.2682,-4.1694,-4.0641,-4.036,-3.9684,-3.9029,-3.8716,-3.8542,-3.8521,-3.8795,-3.8611,0.0,-4.0078,-4.0474,-4.0585,-4.0522,-4.0435,-4.0135,-3.9336,-3.8594,-3.7996,-3.7547,-3.6766,-3.6301,-3.6301,-3.6301,0.0,0.0,0.0,-3.5795,-3.5302,-3.5296,0.0,0.0,0.0,0.0,0.0,0.0,0.0,0.0,-3.4692,-3.5305,0.0,0.0,0.0,0.0,0.0,0.0,0.0,0.0,0.0,0.0,0.0,0.0,0.0,0.0,0.0,0.0,-4.0084,-4.0773,-4.0807,-4.0907,-4.0984,-4.0992,-4.1774,-4.2298,-4.2292,-4.3094,-4.3289,-4.2491,-4.3158,-4.3609,-4.3635,-4.4315,0.0,0.0,0.0,-4.5841,-4.5905,-4.5905,-4.5497,-4.4711,-4.5481,-4.5433,-4.4676,-4.5394,-4.5285,-4.4542,-4.4473,-4.3681,-4.239,-4.2411,-4.2027,-4.1534,-4.2352,-4.2166,-4.146,-4.146,-4.1404,-4.1311,-4.1311,0.0,0.0,-4.138,-4.1451,-4.1539,-4.1696,-4.1801,-4.186,-4.1967,-4.1929,-4.1847,-4.172,-4.1081,-4.0415,-4.0248,-3.8999,-3.7859,-3.7825,-3.7207,-3.6835,-3.7499,-3.7536,-3.7711,-3.8508,-3.9269,-3.9674,-3.9479,-3.9508,-3.9267,-3.8439,-3.7858,-3.7478,-3.7374,-3.6715,0.0,-3.6301,-3.6301,-3.6216,-3.6041,-3.5997,-3.5516,-3.4465,-3.4745,-3.4758,-3.4331,-3.4973,-3.5377,-3.5492,-3.4961,-3.4456,-3.3986,-3.3534,-3.4056,0.0,0.0,0.0,0.0,0.0,0.0,0.0,0.0,0.0,0.0,0.0,0.0,0.0,0.0,0.0,-3.8344,-3.9523,-4.0615,-4.079,-4.0828,-4.0883,-4.0987,-4.1766,-4.2295,-4.2298,-4.3088,-4.3523,-4.3367,-4.3502,-4.3879,-4.4502,-4.4692,-4.5122,-4.5879,-4.5893,-4.5893,-4.5906,-4.5899,-4.5497,-4.4691,-4.4937,0.0,-4.3763,-4.3918,-4.3868,-4.3651,-4.3582,-4.3123,-4.239,-4.2411,-4.1701,-4.0713,-4.1516,-4.133,-4.0624,-4.0624,-4.0178,-3.9584,-3.9584,-3.9584,-3.9584,-3.9612,-3.9653,-3.9852,-4.0624,-4.091,0.0,-4.1804,-4.1516,-4.1028,-4.0997,-4.0287,-3.9461,-3.912,-3.8366,-3.7649,-3.7321,-3.6796,-3.6416,-3.6554,-3.6567,-3.6826,-3.7603,-3.8363,-3.8656,-3.803,-3.8422,-3.8301,-3.6922,-3.718,-3.7254,-3.6594,-3.6387,-3.6301,-3.6301,-3.6301,-3.628,-3.6237,-3.5997,-3.5616,-3.5119,-3.5184,-3.5178,-3.509,-3.5224,-3.5377,-3.5492,-3.4546,-3.4043,-3.4002,-3.3996,-3.4317,0.0,0.0,0.0,0.0,0.0,0.0,0.0,0.0,0.0,0.0,0.0,-3.631,-3.631,0.0,-3.9423,-3.9065,-3.9808,-4.0469,-4.0552,-4.07,-4.0839,-4.0978,-4.1746,-4.2253,-4.2291,-4.31,-4.3419,-4.2978,-4.3359,-4.3581,-4.3554,-4.3931,-4.4323,-4.469,-4.4661,-4.4659,-4.4659,-4.464,-4.4445,-4.4048,-4.4081,-4.3889,-4.3505,-4.3505,-4.3232,-4.2801,-4.274,-4.221,-4.1389,-4.1065,-4.0466,-3.9788,-4.0178,-4.0104,-3.9751,-3.9751,-3.9472,-3.9101,-3.9101,-3.9101,-3.9101,-3.9101,-3.9142,-3.9285,-3.9845,-3.997,-4.004,-4.0517,-4.0304,-3.992,-3.9871,-3.9472,-3.9031,-3.8755,-3.8279,-3.779,-3.7394,-3.6937,-3.6536,-3.6343,-3.6301,-3.6422,-3.6818,-3.7198,-3.7456,-3.7495,-3.7823,-3.7633,-3.6456,-3.6646,-3.6749,-3.6335,-3.6301,-3.6301,-3.6301,-3.5834,-3.5522,-3.5416,-3.5174,-3.5116,-3.5274,-3.5291,-3.5314,-3.54,-3.54,-3.5452,-3.5566,-3.4399,-3.391,-3.3986,-3.3455,-3.3699,0.0,0.0,0.0,0.0,0.0,0.0,0.0,-3.3251,-3.3903,-3.3847,-3.5391,-3.691,-3.7365,-3.8459,-3.9479,-4.0011,-4.0262,-4.0358,-4.0306,-4.0533,-4.0765,-4.0946,-4.1561,-4.1995,-4.2031,-4.268,-4.2804,-4.212,-4.2861,-4.3036,-4.233,-4.3086,-4.3501,-4.3493,-4.3427,-4.3408,-4.3399,-4.3388,-4.331,-4.3147,-4.3167,-4.3116,-4.2995,-4.2981,-4.2602,-4.1941,-4.1823,-4.1254,-4.0353,-3.9813,-3.9414,-3.9192,-3.9192,-3.9137,-3.9101,-3.9101,-3.9101,-3.9101,-3.9101,-3.9101,-3.9101,-3.9101,-3.9142,-3.9192,-3.9141,-3.9184,-3.9232,-3.9111,-3.912,-3.9078,-3.8832,-3.8839,-3.8844,-3.8578,-3.8196,-3.7782,-3.7363,-3.6872,-3.6396,-3.6143,-3.6094,-3.6128,-3.6284,-3.6301,-3.6473,-3.6995,-3.7185,-3.6973,-3.6197,-3.6215,-3.6301,-3.6301,-3.6301,-3.6232,-3.6052,-3.5183,-3.4546,-3.435,-3.4238,-3.4398,-3.4907,-3.4924,-3.5054,-3.5301,-3.5318,-3.5414,-3.56,-3.4399,-3.3878,-3.3986,-3.2749,-3.2933,-2.841,-2.8966,-2.945,-3.1073,-3.1787,-3.242,0.0,-3.4376,-3.4756,-3.4679,-3.6669,-3.8257,-3.768,-3.9508,-4.0888,-4.0202,-4.0176,-4.0234,-4.0283,-4.0334,-4.0469,-4.0794,-4.101,-4.1131,-4.1132,-4.1232,-4.1286,-4.1244,-4.1984,-4.2407,-4.2303,-4.3114,-4.3554,-4.3509,-4.3431,-4.3403,-4.3399,-4.3388,-4.3008,-4.2252,-4.2316,-4.1936,-4.1198,-4.1189,-4.114,-4.1029,-4.072,-4.0527,-4.037,-4.0005,-3.9705,-3.9463,-3.9463,-3.9313,-3.9101,-3.9101,-3.9101,-3.9101,-3.9101,-3.9101,-3.9101,-3.9101,-3.9142,-3.9066,-3.8372,-3.8762,-3.9301,-3.8527,-3.8776,-3.9117,-3.8458,-3.859,-3.874,-3.8062,-3.7509,-3.7,-3.6611,-3.5705,-3.5018,-3.5281,-3.5318,-3.5525,-3.6197,-3.6301,-3.6111,-3.5525,-3.6008,-3.6163,-3.5421,-3.5887,-3.6301,-3.6301,-3.6301,-3.5983,-3.5208,-3.4449,-3.3919,-3.3709,-3.3705,-3.3677,-3.3601,-3.3617,-3.3921,-3.4585,-3.4602,-3.494,-3.56,-3.4399,-3.3878,-3.3986,-3.2749,-3.2673,-2.8197,-2.9279,-3.0137,-3.0839,-3.1916,-3.2985,-3.369,-3.4124,-3.442,-3.4586,-3.5883,-3.7063,-3.7421,-3.8781,-3.9863,-3.9975,-4.0046,-4.0089,-4.012,-4.0233,-4.0347,-4.0496,-4.07,-4.0868,-4.0991,-4.0996,-4.1018,-4.1036,-4.1396,-4.161,-4.1598,-4.1942,-4.2122,-4.2109,-4.2032,-4.1977,-4.1944,-4.1911,-4.1709,-4.1336,-4.1366,-4.1205,-4.0902,-4.0898,-4.0873,-4.0839,-4.0687,-4.0547,-4.0397,-4.0247,-3.9729,-3.9015,-3.8859,-3.8413,-3.7916,-3.8258,-3.8395,-3.8321,-3.7856,-3.7689,-3.7708,-3.7668,-3.7676,-3.7673,-3.7299,-3.7448,-3.7697,-3.7365,-3.7429,-3.7645,-3.7862,-3.8044,-3.8245,-3.8403,-3.7908,-3.7241,-3.6605,-3.5704,-3.4942,-3.4631,-3.4562,-3.4665,-3.4956,-3.537,-3.5559,-3.5249,-3.5818,-3.6197,-3.587,-3.6111,-3.6146,-3.5714,-3.5205,-3.4538,-3.3682,-3.332,-3.3069,-3.2866,-3.2924,-3.3087,-3.3389,-3.3406,-3.3558,-3.3846,-3.3863,-3.4028,-3.4389,-3.3486,-3.3138,-3.3277,-3.2453,-3.2303,-2.7964,-2.904,-2.9925,-3.019,-3.1301,-3.2466,-3.3019,-3.3381,-3.3753,-3.4206,-3.5056,-3.5953,-3.6782,-3.7898,-3.8898,-3.9475,-3.9802,-3.9996,-3.9996,-4.0118,-4.0225,-4.0298,-4.0619,-4.0881,-4.0903,-4.0963,-4.1,-4.1006,-4.1039,-4.1085,-4.1107,-4.1093,-4.1097,-4.1109,-4.103,-4.0986,-4.0928,-4.0839,-4.0796,-4.0792,-4.08,-4.0837,-4.0862,-4.0897,-4.0872,-4.0818,-4.0571,-4.0359,-4.0134,-3.9823,-3.9178,-3.8337,-3.8066,-3.7528,-3.6941,-3.7167,-3.7373,-3.7485,-3.6891,-3.6699,-3.6686,-3.6634,-3.666,-3.6649,-3.6374,-3.6427,-3.6549,-3.6348,-3.6392,-3.657,-3.6994,-3.7239,-3.747,-3.7835,-3.7498,-3.6867,-3.617,-3.5393,-3.4645,-3.4045,-3.3925,-3.3956,-3.4081,-3.4545,-3.4907,-3.4907,-3.5335,-3.5766,-3.5973,-3.5818,-3.5473,-3.4898,-3.4077,-3.3308,-3.2622,-3.2383,-3.2168,-3.2005,-3.2083,-3.2337,-3.278,-3.2797,-3.2899,-3.3085,-3.3102,-3.3125,-3.3225,-3.2732,-3.2501,-3.2507,-3.2142,-3.2053,-2.8063,-2.8231,-2.8463,-2.9244,-2.9615,-3.0202,-3.1711,-3.2364,-3.2865,-3.365,-3.481,-3.5716,-3.5747,-3.7384,-3.8709,-3.8727,-3.9452,-3.9996,-3.9996,-3.9943,-4.0017,-4.028,-4.0874,-4.1128,-4.0752,-4.0898,-4.1007,-4.1006,-4.1009,-4.1036,-4.1107,-4.1091,-4.11,-4.1108,-4.1035,-4.0998,-4.1001,-4.0876,-4.0807,-4.0807,-4.0792,-4.08,-4.08,-4.0876,-4.0902,-4.0844,-4.0008,-3.9589,-3.9441,-3.8404,-3.7797,-3.7519,-3.7246,-3.696,-3.6619,-3.5844,-3.6067,-3.6736,-3.6718,-3.6699,-3.6699,-3.6705,-3.6699,-3.6551,-3.577,-3.6124,-3.6614,-3.5764,-3.6092,-3.6519,-3.5757,-3.6062,-3.6362,-3.5671,-3.548,-3.5333,-3.4863,-3.4162,-3.3629,-3.3527,-3.3512,-3.3633,-3.4036,-3.413,-3.413,-3.413,-3.4165,-3.4441,-3.5128,-3.4594,-3.4105,-3.3954,-3.3265,-3.274,-3.2528,-3.1791,-3.1308,-3.1244,-3.1244,-3.1241,-3.1258,-3.1258,-3.1616,-3.2327,-3.2327,-3.2396,-3.2529,-3.2515,-3.2273,-3.1821,-3.1817,-3.194,-2.665,-2.7757,-2.8803,-2.9124,-2.9682,-3.0331,-3.0915,-3.1589,-3.2204,-3.2652,-3.3496,-3.4571,-3.586,-3.6875,-3.7856,-3.8924,-3.9562,-3.9943,-3.9986,-3.9892,-3.9892,-4.0089,-4.0814,-4.1313,-4.1358,-4.1557,-4.148,-4.1038,-4.0999,-4.1036,-4.1107,-4.1107,-4.11,-4.11,-4.1073,-4.1016,-4.0932,-4.0896,-4.0844,-4.0792,-4.08,-4.0794,-4.0781,-4.0264,-4.0017,-3.9937,-3.9099,-3.8689,-3.8611,-3.8241,-3.772,-3.7072,-3.665,-3.612,-3.5505,-3.4874,-3.481,-3.5033,-3.5033,-3.5033,-3.5033,-3.4983,-3.5008,-3.4965,-3.4617,-3.4716,-3.4877,-3.4592,-3.4665,-3.4929,-3.5328,-3.5612,-3.5845,-3.6189,-3.5849,-3.5262,-3.4534,-3.3747,-3.3034,-3.2476,-3.2366,-3.2416,-3.2562,-3.2972,-3.3473,-3.4027,-3.4113,-3.4199,-3.4441,-3.3783,-3.3281,-3.3242,-3.2456,-3.1912,-3.1854,-3.1463,-3.1213,-3.119,-3.119,-3.119,-3.119,-3.119,-3.1309,-3.1582,-3.1169,-3.1018,-3.1101,-3.0694,-3.0448,-3.0338,-3.09,-3.1175,-2.582,-2.7137,-2.834,-2.827,-2.8838,-2.9538,-2.9932,-3.068,-3.1407,-3.1895,-3.2741,-3.3872,-3.5412,-3.6098,-3.6955,-3.8565,-3.9164,-3.9548,-3.9876,-3.9826,-3.9804,-3.9922,-4.0924,-4.1604,-4.1557,-4.2033,-4.2073,-4.1477,-4.1159,-4.1025,-4.1062,-4.1088,-4.1107,-4.1107,-4.1085,-4.1015,-4.0948,-4.0917,-4.0716,-4.0335,-4.0653,-4.0498,-3.989,-3.9661,-3.9376,-3.9035,-3.8197,-3.7813,-3.7746,-3.7333,-3.6819,-3.6293,-3.5922,-3.539,-3.4822,-3.4472,-3.4274,-3.4197,-3.4197,-3.4197,-3.4197,-3.4148,-3.4148,-3.4148,-3.4061,-3.4023,-3.3998,-3.3972,-3.3947,-3.4076,-3.4707,-3.4881,-3.5049,-3.5632,-3.5157,-3.4505,-3.426,-3.3563,-3.2846,-3.2332,-3.2231,-3.2144,-3.1838,-3.2179,-3.2612,-3.2873,-3.3112,-3.3352,-3.3628,-3.299,-3.2469,-3.2412,-3.1867,-3.1479,-3.1402,-3.1269,-3.119,-3.119,-3.119,-3.119,-3.119,-3.119,-3.119,-3.119,-3.0617,-3.0223,-3.0032,-2.9687,-2.9404,-2.9277,-3.003,-3.0548,-2.5452,-2.6346,-2.6995,-2.6704,-2.7133,-2.7856,-2.8722,-2.9624,-3.053,-3.1355,-3.2505,-3.3597,-3.4413,-3.5177,-3.6192,-3.7716,-3.8378,-3.8942,-3.9709,-3.9747,-3.9724,-3.9792,-4.1182,-4.1926,-4.1357,-4.222,-4.2637,-4.2214,-4.1442,-4.1003,-4.1006,-4.1062,-4.1107,-4.1107,-4.1046,-4.0995,-4.0994,-4.0887,-4.0359,-3.9445,-4.0267,-3.9822,-3.8322,-3.9038,-3.8952,-3.8185,-3.7311,-3.6933,-3.6845,-3.5772,-3.5318,-3.5297,-3.5073,-3.4832,-3.4632,-3.4582,-3.4416,-3.4197,-3.4197,-3.4197,-3.4197,-3.4197,-3.4161,-3.4111,-3.4111,-3.4061,-3.3985,-3.3921,-3.3947,-3.3972,-3.3852,-3.3891,-3.3937,-3.3975,-3.3395,-3.3055,-3.3864,-3.3455,-3.2932,-3.2913,-3.2927,-3.2695,-3.1895,-3.1748,-3.1525,-3.0888,-3.1302,-3.1955,-3.2697,-3.2214,-3.1726,-3.1536,-3.1498,-3.1404,-3.121,-3.121,-3.119,-3.119,-3.119,-3.119,-3.119,-3.119,-3.119,-3.119,-3.0617,-3.0,-2.9406,-2.9437,-2.9128,-2.8562,-2.922,-2.9973,-2.3802,-2.4543,-2.5239,-2.5754,-2.6273,-2.6847,-2.7563,-2.9066,-3.0358,-3.0523,-3.1845,-3.318,-3.3932,-3.5471,-3.6868,-3.7507,-3.8931,-3.9902,-3.9808,-3.9747,-3.9724,-3.9792,-4.0691,-4.1279,-4.1227,-4.1532,-4.1756,-4.1893,-4.134,-4.1003,-4.1006,-4.1062,-4.1107,-4.1107,-4.1086,-4.1056,-4.0991,-4.0294,-3.9464,-3.8539,-3.876,-3.8644,-3.821,-3.7765,-3.7473,-3.7281,-3.6408,-3.6021,-3.6017,-3.5714,-3.5589,-3.5565,-3.5168,-3.4953,-3.486,-3.445,-3.425,-3.4197,-3.4197,-3.4197,-3.4197,-3.4197,-3.4185,-3.4173,-3.4173,-3.4099,-3.3998,-3.3985,-3.3908,-3.3726,-3.3145,-3.3024,-3.2901,-3.236,-3.2112,-3.1984,-3.1916,-3.2005,-3.2011,-3.1728,-3.1897,-3.1882,-3.1183,-3.1008,-3.0921,-3.0749,-3.0369,-3.0386,-3.1234,-3.1522,-3.1617,-3.1578,-3.1428,-3.1332,-3.1274,-3.1232,-3.119,-3.119,-3.119,-3.119,-3.119,-3.119,-3.119,-3.119,-3.0617,-3.0,-2.9406,-2.8951,-2.8449,-2.7869,-2.8532,-2.8963,-2.2664,-2.3424,-2.4195,-2.4821,-2.5331,-2.5959,-2.6935,-2.8506,-2.9819,-3.0125,-3.1528,-3.2954,-3.3701,-3.4954,-3.6305,-3.7716,-3.872,-3.9524,-4.0186,-3.9946,-3.9701,-3.9743,-4.0486,-4.1012,-4.106,-4.1155,-4.1351,-4.1686,-4.1187,-4.0906,-4.1,-4.1048,-4.0883,-4.0494,-4.0496,-4.0281,-3.986,-3.9309,-3.8569,-3.7674,-3.8023,-3.7806,-3.7096,-3.6961,-3.6734,-3.6403,-3.5908,-3.5695,-3.5706,-3.5695,-3.5704,-3.5668,-3.5404,-3.5192,-3.4962,-3.4655,-3.4394,-3.4197,-3.4197,-3.4197,-3.4197,-3.4197,-3.4185,-3.4161,-3.4161,-3.4061,-3.3959,-3.3959,-3.3642,-3.3183,-3.2763,-3.239,-3.2029,-3.1654,-3.132,-3.1131,-3.1286,-3.1263,-3.1175,-3.1001,-3.1018,-3.0872,-3.0318,-3.0214,-3.0076,-2.9782,-2.9592,-2.9541,-2.9713,-3.0556,-3.0962,-3.0583,-3.0709,-3.0664,-3.0321,-3.0552,-3.0717,-3.0717,-3.1021,-3.119,-3.119,-3.119,-3.119,-3.119,-3.0617,-3.0145,-2.9783,-2.8919,-2.8334,-2.8008,-2.8117,-2.8308,-2.1896,-2.2617,-2.3341,-2.3784,-2.4343,-2.5122,-2.6491,-2.7971,-2.9273,-3.0041,-3.1463,-3.2801,-3.3491,-3.4093,-3.5288,-3.7716,-3.8061,-3.8635,-4.0422,-4.0113,-3.9696,-3.9705,-4.0363,-4.0808,-4.0716,-4.0825,-4.0982,-4.1194,-4.074,-4.0591,-4.0807,-4.0828,-4.0422,-3.9568,-3.9533,-3.9121,-3.8239,-3.8174,-3.7704,-3.6845,-3.7533,-3.7102,-3.5723,-3.6419,-3.6361,-3.569,-3.5709,-3.5709,-3.569,-3.569,-3.5709,-3.5704,-3.5668,-3.5404,-3.5041,-3.5006,-3.4675,-3.425,-3.425,-3.4233,-3.4197,-3.4197,-3.4161,-3.408,-3.3969,-3.3863,-3.3729,-3.36,-3.3033,-3.2417,-3.2307,-3.1751,-3.1225,-3.1176,-3.0636,-3.0346,-3.1099,-3.0815,-3.0423,-3.0527,-3.0285,-2.9953,-2.9503,-2.9385,-2.9161,-2.8571,-2.8851,-2.8887,-2.83,-2.9454,-3.0018,-2.9261,-2.97,-2.9761,-2.9061,-2.9583,-2.9956,-2.9956,-3.0548,-3.0903,-3.0903,-3.0903,-3.0954,-3.1055,-3.0529,-3.0273,-3.0293,-2.9157,-2.8583,-2.8487,-2.7885,-2.7914,-2.1506,-2.1523,-2.1451,-2.2209,-2.3227,-2.4362,-2.5493,-2.7653,-2.9552,-3.0021,-3.1399,-3.2559,-3.27,-3.3966,-3.5235,-3.5971,-3.7494,-3.8779,-3.9413,-3.9608,-3.9696,-3.9705,-3.9837,-3.9876,-3.9752,-3.9764,-3.9592,-3.9142,-3.9218,-3.9481,-3.9904,-3.9937,-3.9547,-3.8731,-3.8715,-3.8256,-3.7324,-3.7312,-3.6832,-3.5923,-3.6071,-3.5979,-3.5704,-3.5839,-3.5836,-3.5697,-3.5695,-3.5701,-3.5702,-3.5702,-3.5706,-3.5679,-3.5457,-3.532,-3.5231,-3.5066,-3.4794,-3.4537,-3.4537,-3.4401,-3.4197,-3.4197,-3.4161,-3.3969,-3.3302,-3.3001,-3.2771,-3.2103,-3.1777,-3.1439,-3.0797,-3.0503,-3.0246,-2.9597,-2.9368,-2.9358,-2.9499,-2.9734,-2.988,-2.9728,-2.9884,-2.9823,-2.92,-2.8817,-2.8541,-2.8436,-2.7989,-2.7577,-2.7341,-2.8511,-2.9275,-2.9139,-2.9167,-2.9146,-2.901,-2.9128,-2.9196,-2.9196,-2.9314,-2.9382,-2.9382,-2.9382,-2.9668,-3.0294,-3.0198,-3.0195,-3.0293,-2.9585,-2.8989,-2.8487,-2.7885,-2.766,-2.0862,-2.0893,-2.0951,-2.1746,-2.2411,-2.33,-2.501,-2.7004,-2.88,-2.9883,-3.1351,-3.2457,-3.2457,-3.3493,-3.4621,-3.5379,-3.651,-3.7864,-3.9547,-3.9339,-3.9352,-4.0232,-3.9938,-3.9657,-3.9571,-3.9096,-3.8759,-3.8603,-3.8412,-3.8442,-3.8858,-3.8546,-3.819,-3.7832,-3.7374,-3.6937,-3.6489,-3.6484,-3.6245,-3.5791,-3.5725,-3.5474,-3.5073,-3.5043,-3.4786,-3.4365,-3.4819,-3.4781,-3.4374,-3.4795,-3.4972,-3.4963,-3.4839,-3.4712,-3.4678,-3.5032,-3.4719,-3.4197,-3.4642,-3.4624,-3.4405,-3.4405,-3.4298,-3.4074,-3.3685,-3.3192,-3.2674,-3.2299,-3.1507,-3.0687,-3.0301,-2.9886,-2.9482,-2.9097,-2.9028,-2.9062,-2.9078,-2.928,-2.9301,-2.8851,-2.8891,-2.8802,-2.8128,-2.7843,-2.775,-2.7816,-2.7443,-2.7121,-2.7055,-2.7521,-2.7878,-2.7947,-2.8216,-2.8213,-2.7842,-2.8146,-2.8383,-2.8383,-2.8773,-2.8993,-2.8993,-2.8993,-2.9179,-2.9516,-2.9533,-2.9572,-2.9624,-2.903,-2.8603,-2.8392,-2.778,-2.7512,-2.0321,-2.0525,-2.0802,-2.1487,-2.1892,-2.2677,-2.4876,-2.6646,-2.8315,-3.0004,-3.1457,-3.2406,-3.2406,-3.2967,-3.3809,-3.4893,-3.5704,-3.7088,-3.9597,-3.9326,-3.9368,-4.0753,-4.0025,-3.9399,-3.9375,-3.8508,-3.7948,-3.802,-3.745,-3.7329,-3.7851,-3.7205,-3.6856,-3.6914,-3.608,-3.5702,-3.5903,-3.5708,-3.5723,-3.5892,-3.5605,-3.5125,-3.448,-3.4246,-3.3857,-3.3416,-3.3905,-3.3837,-3.3415,-3.3865,-3.4055,-3.4046,-3.4036,-3.4044,-3.4145,-3.4839,-3.463,-3.4135,-3.4767,-3.4832,-3.4622,-3.4559,-3.436,-3.4111,-3.3776,-3.3136,-3.2465,-3.2133,-3.1046,-2.9988,-2.9976,-2.9505,-2.9017,-2.9005,-2.9005,-2.9017,-2.9074,-2.9085,-2.8934,-2.8407,-2.825,-2.802,-2.7444,-2.7291,-2.7246,-2.7297,-2.717,-2.704,-2.7024,-2.6875,-2.6809,-2.6893,-2.7301,-2.7317,-2.6742,-2.7232,-2.7553,-2.7553,-2.8163,-2.8519,-2.8519,-2.8519,-2.8587,-2.8756,-2.8756,-2.884,-2.8993,-2.8384,-2.8095,-2.8067,-2.7482,-2.7245,-2.0302,-2.0405,-2.0491,-2.0823,-2.1859,-2.3291,-2.516,-2.7148,-2.9105,-3.0828,-3.1841,-3.2406,-3.2406,-3.2527,-3.2911,-3.3808,-3.5607,-3.7366,-3.8667,-3.9737,-4.0546,-4.094,-3.9534,-3.8542,-3.8607,-3.7711,-3.6846,-3.6203,-3.5708,-3.5939,-3.7132,-3.6374,-3.5954,-3.6021,-3.5178,-3.5098,-3.5897,-3.5102,-3.5126,-3.5897,-3.5097,-3.4628,-3.4468,-3.3669,-3.3679,-3.4239,-3.3532,-3.361,-3.4239,-3.3568,-3.3277,-3.3211,-3.3198,-3.3652,-3.4289,-3.4367,-3.4713,-3.5139,-3.5032,-3.486,-3.4643,-3.4401,-3.4233,-3.3833,-3.237,-3.1841,-3.1413,-2.9946,-2.9429,-2.9278,-2.9229,-2.9152,-2.9085,-2.9017,-2.9005,-2.9005,-2.9005,-2.9017,-2.9017,-2.901,-2.8761,-2.8456,-2.8143,-2.784,-2.7569,-2.7329,-2.7283,-2.7234,-2.7103,-2.7023,-2.6942,-2.6909,-2.6826,-2.6776,-2.6725,-2.6759,-2.6793,-2.6793,-2.686,-2.6911,-2.6911,-2.6911,-2.7232,-2.7908,-2.7908,-2.8281,-2.8993,-2.8384,-2.7854,-2.739,-2.6764,-2.6558,-2.0688,-2.0575,-2.044,-2.0578,-2.1775,-2.3342,-2.5028,-2.713,-2.9161,-3.0832,-3.1827,-3.2406,-3.2406,-3.2422,-3.2562,-3.2946,-3.3926,-3.5374,-3.7449,-3.8498,-3.9275,-3.9952,-3.9524,-3.8787,-3.7773,-3.6885,-3.6093,-3.5351,-3.5049,-3.5239,-3.6029,-3.5393,-3.5026,-3.5068,-3.425,-3.3975,-3.4324,-3.4033,-3.4048,-3.4383,-3.4004,-3.3538,-3.301,-3.3138,-3.28,-3.2144,-3.2813,-3.2691,-3.2062,-3.2275,-3.2313,-3.2251,-3.2308,-3.28,-3.3583,-3.4149,-3.4508,-3.477,-3.5252,-3.5254,-3.4933,-3.4235,-3.385,-3.3541,-3.2734,-3.1758,-3.0794,-3.0105,-2.9536,-2.9112,-2.9062,-2.9051,-2.904,-2.9005,-2.9005,-2.9005,-2.9005,-2.9005,-2.894,-2.8719,-2.8412,-2.8079,-2.7779,-2.7474,-2.7263,-2.7184,-2.7184,-2.7168,-2.7119,-2.7039,-2.6975,-2.6958,-2.6792,-2.6691,-2.6691,-2.6691,-2.6691,-2.6691,-2.6691,-2.6691,-2.6691,-2.6691,-2.6843,-2.7131,-2.7148,-2.73,-2.7622,-2.736,-2.7197,-2.7055,-2.6816,-2.6788,-2.1056,-2.0842,-2.0729,-2.1124,-2.2115,-2.3588,-2.5798,-2.7606,-2.9328,-3.1113,-3.1985,-3.2406,-3.2406,-3.2405,-3.2457,-3.2523,-3.3372,-3.4765,-3.681,-3.818,-3.9242,-4.0012,-3.9907,-3.9184,-3.7713,-3.6398,-3.5423,-3.4889,-3.4765,-3.4808,-3.4941,-3.4345,-3.4153,-3.4489,-3.3456,-3.3011,-3.3291,-3.3081,-3.3137,-3.3406,-3.3345,-3.3007,-3.2406,-3.2976,-3.2544,-3.1425,-3.2344,-3.2043,-3.0912,-3.1289,-3.1404,-3.1372,-3.1674,-3.2306,-3.3134,-3.4033,-3.4348,-3.4384,-3.5015,-3.4931,-3.4431,-3.3673,-3.313,-3.2742,-3.2468,-3.1511,-3.0472,-3.018,-2.9643,-2.9152,-2.9085,-2.9051,-2.9028,-2.9005,-2.9005,-2.9005,-2.9005,-2.9005,-2.8917,-2.8633,-2.8386,-2.8134,-2.7808,-2.7504,-2.7276,-2.7244,-2.7165,-2.7103,-2.7103,-2.7071,-2.704,-2.704,-2.6875,-2.6758,-2.6758,-2.6758,-2.6742,-2.6691,-2.6691,-2.6691,-2.6691,-2.6691,-2.6691,-2.6691,-2.6691,-2.6691,-2.6691,-2.6691,-2.6687,-2.6627,-2.6627,-2.6847,-2.1289,-2.1182,-2.1463,-2.26,-2.3083,-2.4234,-2.7838,-2.8874,-2.9728,-3.1917,-3.2388,-3.2406,-3.2406,-3.2439,-3.2523,-3.2589,-3.4658,-3.6468,-3.703,-3.9448,-4.1327,-4.1715,-4.0652,-3.9591,-3.8755,-3.6333,-3.4768,-3.4716,-3.4764,-3.4545,-3.3941,-3.3222,-3.3334,-3.4464,-3.2819,-3.2364,-3.3291,-3.2454,-3.2472,-3.34,-3.3399,-3.3361,-3.3294,-3.3301,-3.3256,-3.3125,-3.2272,-3.1856,-3.1734,-3.0946,-3.0559,-3.0593,-3.1453,-3.2322,-3.3191,-3.4003,-3.4293,-3.4276,-3.4167,-3.3551,-3.2786,-3.2573,-3.1965,-3.1267,-3.0996,-3.0776,-3.0437,-2.9619,-2.9355,-2.9272,-2.9229,-2.9145,-2.9078,-2.9017,-2.9005,-2.9005,-2.9005,-2.9005,-2.9005,-2.8994,-2.8994,-2.8905,-2.8626,-2.8259,-2.7897,-2.7624,-2.7307,-2.7103,-2.7103,-2.7103,-2.7103,-2.7103,-2.6991,-2.6893,-2.6893,-2.6893,-2.6842,-2.6708,-2.6691,-2.6691,-2.6691,-2.6691,-2.6691,-2.6691,-2.6691,-2.6691,-2.6691,-2.6691,-2.6453,-2.6013,-2.6013,-2.645,-2.2304,-2.2125,-2.217,-2.3094,-2.3724,-2.4738,-2.7136,-2.8447,-2.9591,-3.1063,-3.195,-3.2439,-3.2405,-3.249,-3.2749,-3.3331,-3.4126,-3.5134,-3.6566,-3.8404,-3.9268,-3.8282,-3.7133,-3.6326,-3.6121,-3.5282,-3.4708,-3.4697,-3.417,-3.3779,-3.3628,-3.2449,-3.2077,-3.2705,-3.1599,-3.1154,-3.1445,-3.1223,-3.1254,-3.1557,-3.2196,-3.25,-3.2523,-3.3668,-3.3846,-3.326,-3.2929,-3.243,-3.1847,-3.1588,-3.1458,-3.1473,-3.2343,-3.3183,-3.3964,-3.4257,-3.4726,-3.519,-3.5198,-3.501,-3.4555,-3.3211,-3.2564,-3.2069,-3.0704,-3.0136,-2.9878,-2.9452,-2.9272,-2.9229,-2.9218,-2.9178,-2.9145,-2.9078,-2.9074,-2.9062,-2.9017,-2.9005,-2.9005,-2.9005,-2.8773,-2.8565,-2.8476,-2.8215,-2.7968,-2.7901,-2.7624,-2.7446,-2.7446,-2.7244,-2.7103,-2.7103,-2.7153,-2.7089,-2.6926,-2.6809,-2.6742,-2.6691,-2.6691,-2.6691,-2.6691,-2.6691,-2.6691,-2.6691,-2.6691,-2.6691,-2.6691,-2.6691,-2.6624,-2.647,-2.647,-2.6442,-2.3122,-2.2865,-2.3003,-2.4142,-2.4665,-2.5503,-2.7923,-2.907,-2.9952,-3.115,-3.1985,-3.249,-3.2457,-3.277,-3.3225,-3.372,-3.4322,-3.5137,-3.6327,-3.799,-3.8736,-3.777,-3.6561,-3.5723,-3.5448,-3.4989,-3.4576,-3.4315,-3.3692,-3.312,-3.2665,-3.1712,-3.1231,-3.1322,-3.0853,-3.0613,-3.0637,-3.0641,-3.0675,-3.0703,-3.1969,-3.2564,-3.2656,-3.4329,-3.4619,-3.3789,-3.3742,-3.3212,0.0,-3.2396,-3.2377,-3.2402,-3.3253,-3.3895,-3.4386,-3.4756,-3.4983,-3.5074,-3.4811,-3.4715,-3.4415,-3.2627,-3.1959,-3.1647,-3.0478,-2.9916,-2.9672,-2.9492,-2.9359,-2.9272,-2.9251,-2.9229,-2.9178,-2.913,-2.9085,-2.9051,-2.9017,-2.9005,-2.9005,-2.9005,-2.8797,-2.8633,-2.8633,-2.8121,-2.7674,-2.7569,-2.7042,-2.6725,-2.6931,-2.6799,-2.6809,-2.7133,-2.7201,-2.7153,-2.6991,-2.6875,-2.6792,-2.6792,-2.6742,-2.6691,-2.6691,-2.6691,-2.6691,-2.6691,-2.6691,-2.6691,-2.6691,-2.6691,-2.6691,-2.6691,-2.6691,-2.6556,0.0,-2.3548,-2.3953,-2.5701,-2.5851,-2.6431,-2.9685,-3.0335,0.0,-3.1777,-3.2283,-3.2507,-3.256,-3.3246,-3.381,-3.3881,-3.5137,-3.6165,-3.6292,-3.793,-3.9179,-3.9289,-3.8102,-3.6995,-3.6255,-3.5245,-3.4353,-3.3649,-3.325,-3.2499,-3.1257,-3.1027,-3.0757,-3.0377,-3.0495,-3.0577,-3.0599,-3.0482,-3.0451,-3.0541,-3.2279,-3.3173,-3.3356,-3.5032,-3.5396,-3.4695,-3.4579,-3.4023,-3.3192,-3.3134,-3.3114,-3.3193,-3.4002,-3.4307,-3.4418,-3.5231,-3.4963,-3.411,-3.3378,-3.3103,-3.2847,-3.1213,-3.0511,-3.0326,-3.0326,-3.003,-2.9716,-2.9698,-2.956,-2.9388,-2.9334,-2.9262,-2.9207,-2.9141,-2.9074,-2.9017,-2.9017,-2.9005,-2.9005,-2.9005,-2.9005,-2.9005,-2.9005,-2.8021,-2.7155,-2.6908,-2.5899,-2.5337,-2.5829,-2.5983,-2.6341,-2.7142,-2.7149,-2.7084,-2.7033,-2.6953,-2.6907,-2.6909,-2.6708,-2.664,-2.6691,-2.6691,-2.6691,-2.6691,-2.6691,-2.6691,-2.6691,-2.6691,-2.6691,-2.6691,-2.6691,-2.6691,-2.5368,0.0,-2.5383,-2.6914,-2.6809,-2.6766,0.0,-2.9132,-2.9626,-3.0246,-3.1511,-3.2666,-3.3161,-3.3547,-3.3987,-3.4624,-3.5581,-3.6274,-3.6364,-3.6539,-3.6575,-3.6422,-3.5739,-3.5202,-3.502,-3.4396,-3.3904,-3.362,-3.2355,-3.1403,-3.0988,-3.0499,-3.0166,-3.0018,-3.015,-3.0023,-2.9629,-2.9001,-2.8706,-2.8724,-3.0471,-3.1668,-3.2397,-3.413,-3.5159,-3.5526,-3.4246,-3.3525,-3.3222,-3.2569,-3.228,-3.2366,-3.3161,-3.3476,-3.3518,-3.3717,-3.3644,-3.3421,-3.3231,-3.321,-3.3067,-3.1956,-3.1103,-3.052,-3.054,-3.026,-2.9891,-2.9742,-2.9672,-2.9598,-2.9419,-2.9347,-2.9344,-2.928,-2.9229,-2.9197,-2.9108,-2.9085,-2.9062,-2.9017,-2.9005,-2.9005,-2.9005,-2.8251,-2.7645,-2.7576,-2.6555,-2.5831,-2.5959,-2.6156,-2.637,-2.6594,-2.6997,-2.6992,-2.6389,-2.6135,-2.6247,-2.6859,-2.625,-2.6116,-2.6674,-2.6691,-2.6691,-2.6691,-2.6691,-2.6691,-2.6691,-2.6691,-2.6691,-2.6691,-2.6691,-2.6691,-2.6511,-2.6398,-2.6436,-2.7588,-2.7575,-2.7642,-2.8999,-2.9582,-3.0037,-3.0751,-3.1723,-3.2685,-3.3459,-3.3953,-3.4535,-3.5367,-3.62,-3.6701,-3.6523,-3.5794,-3.5246,-3.5145,-3.4667,-3.4263,-3.4022,-3.3681,-3.3213,-3.2542,-3.1543,-3.0791,-3.0424,-2.9677,-2.9307,-2.9384,-2.8727,-2.8657,-2.9254,-2.8796,-2.8397,-2.8117,-2.9463,-3.0568,-3.1451,-3.2789,-3.3894,-3.4703,-3.3791,-3.3378,-3.3314,-3.2793,-3.2602,-3.2635,-3.3031,-3.3204,-3.3203,-3.3195,-3.3195,-3.3137,-3.2733,-3.2381,-3.2089,-3.1977,-3.1363,-3.0653,-3.0641,-3.0467,-3.0216,-2.9927,-2.9734,-2.9589,-2.9441,-2.938,-2.9339,-2.9323,-2.9291,-2.9229,-2.9156,-2.9163,-2.9152,-2.9089,-2.9074,-2.8922,-2.8555,-2.7798,-2.7065,-2.6541,-2.5907,-2.5457,-2.5327,-2.6091,-2.6571,-2.6435,-2.668,-2.6662,-2.6098,-2.5229,-2.5069,-2.5835,-2.5416,-2.5302,-2.5675,-2.5692,-2.5692,-2.5692,-2.6353,-2.6522,-2.6201,-2.6522,-2.6691,-2.6691,-2.6691,-2.6691,-2.7043,-2.7308,-2.7372,-2.805,-2.8218,-2.8574,-2.9996,-3.0377,-3.07,-3.163,-3.2056,-3.2547,-3.3442,-3.4251,-3.5046,-3.5827,-3.6536,-3.6807,-3.629,-3.5293,-3.4539,-3.4353,-3.4037,-3.3608,-3.3045,-3.2863,-3.2262,-3.1057,-3.0659,-3.0227,-2.9639,-2.8855,-2.8539,-2.8723,-2.7374,-2.7377,-2.8937,-2.867,-2.8256,-2.7695,-2.8718,-2.967,-3.0541,-3.154,-3.2511,-3.337,-3.3234,-3.3198,-3.3193,-3.3004,-3.2929,-3.2906,-3.2864,-3.2836,-3.2826,-3.2811,-3.2815,-3.2703,-3.1969,-3.1262,-3.0814,-3.1563,-3.1294,-3.0704,-3.0681,-3.0622,-3.0506,-3.0152,-2.984,-2.9551,-2.9464,-2.9384,-2.933,-2.9315,-2.9272,-2.924,-2.9229,-2.9229,-2.92,-2.92,-2.9156,-2.8909,-2.8227,-2.7393,-2.6497,-2.5528,-2.5266,-2.5093,-2.4867,-2.5968,-2.6663,-2.6328,-2.625,-2.6104,-2.5846,-2.447,-2.3878,-2.4511,-2.449,-2.4465,-2.4521,-2.4506,-2.4523,-2.4523,-2.5726,-2.6048,-2.5439,-2.6167,-2.6471,-2.6369,-2.6471,-2.6471,-2.608,-2.7299,-2.8692,-2.8755,-2.8707,-2.8678,-2.8929,-2.9342,-2.9765,-3.002,-3.095,-3.2009,-3.2938,-3.3979,-3.4833,-3.519,-3.5403,-3.5276,-3.4596,-3.4324,-3.3707,-3.24,-3.2451,-3.2318,-3.1679,-3.1374,-3.0857,-2.9917,-2.9387,-2.8977,-2.87,-2.8619,-2.8535,-2.8459,-2.8276,-2.8031,-2.7754,-2.6579,-2.5916,-2.5824,-2.7489,-2.8764,-2.9656,-3.1277,-3.2474,-3.3261,-3.2541,-3.2244,-3.2231,-3.1486,-3.118,-3.1183,-3.117,-3.117,-3.1163,-3.1106,-3.108,-3.1057,-3.0921,-3.0798,-3.0727,-3.0856,-3.08,-3.0684,-3.0626,-3.0537,-3.0419,-3.0355,-3.0132,-2.9875,-2.9698,-2.9522,-2.9378,-2.9386,-2.9386,-2.9347,-2.9302,-2.9272,-2.9262,-2.92,-2.924,-2.9225,-2.9114,-2.8418,-2.7806,-2.7645,-2.6935,-2.6403,-2.6371,-2.632,-2.6188,-2.5838,-2.5555,-2.5296,-2.509,-2.4222,-2.3727,-2.3847,-2.3793,-2.4025,-2.4643,-2.4616,-2.4586,-2.4586,-2.4743,-2.4778,-2.4677,-2.5406,-2.5456,-2.4846,-2.5473,-2.5423,-2.5659,-2.6707,-2.787,-2.8345,-2.893,-2.938,-2.9312,-2.9415,-2.9653,-3.0085,-3.0653,-3.1443,-3.266,-3.3666,-3.4629,-3.5581,-3.5099,-3.4491,-3.4151,-3.3348,-3.2543,-3.1839,-3.1546,-3.1207,-3.0598,-3.0431,-2.9946,-2.8961,-2.8603,-2.8269,-2.7921,-2.7425,-2.7371,-2.7851,-2.7423,-2.727,-2.7449,-2.6874,-2.6584,-2.6606,-2.7504,-2.8381,-2.9268,-3.0129,-3.1033,-3.1864,-3.1475,-3.132,-3.1312,-3.091,-3.076,-3.0804,-3.08,-3.0799,-3.0793,-3.0778,-3.0743,-3.0753,-3.0706,-3.0697,-3.0707,-3.0701,-3.072,-3.0737,-3.0678,-3.0618,-3.0556,-3.0564,-3.0344,-3.0073,-2.9943,-2.9782,-2.9607,-2.9579,-2.949,-2.9396,-2.9365,-2.9357,-2.9349,-2.931,-2.9299,-2.9169,-2.8724,-2.8301,-2.789,-2.7465,-2.7397,-2.7255,-2.6812,-2.7386,-2.7503,-2.6644,-2.6343,-2.6049,-2.5747,-2.491,-2.4035,-2.3158,-2.3038,-2.3167,-2.3494,-2.3857,-2.3877,-2.3468,-2.4222,-2.4411,-2.4018,-2.4722,-2.4894,-2.4571,-2.4846,-2.4829,-2.5264,-2.6217,-2.7051,-2.7491,-2.8698,-2.9761,-2.965,-2.9589,-2.9661,-3.0187,-3.0398,-3.0836,-3.1998,-3.3087,-3.4178,-3.5329,-3.4551,-3.3725,-3.3562,-3.2297,-3.1334,-3.1171,-3.0713,-3.0082,-2.9315,-2.9307,-2.884,-2.7699,-2.7765,-2.7641,-2.7083,-2.6553,-2.6516,-2.7024,-2.6594,-2.6677,-2.7311,-2.7627,-2.7714,-2.7586,-2.7891,-2.8412,-2.9114,-2.9404,-2.9943,-3.068,-3.068,-3.0701,-3.0694,-3.0701,-3.0728,-3.0783,-3.0773,-3.078,-3.0801,-3.0792,-3.0806,-3.0786,-3.0735,-3.0723,-3.0728,-3.0728,-3.0753,-3.0778,-3.0725,-3.0706,-3.0725,-3.0713,-3.0544,-3.0311,-3.0201,-3.0013,-2.9863,-2.9804,-2.9653,-2.9502,-2.9482,-2.9453,-2.9433,-2.9412,-2.9373,-2.9148,-2.8526,-2.8371,-2.8124,-2.7503,-2.7908,-2.8083,-2.7454,-2.8276,-2.8515,-2.7459,-2.7018,-2.6657,-2.6296,-2.5725,-2.4788,-2.3369,-2.3192,-2.3138,-2.3138,-2.3659,-2.3593,-2.2843,-2.3913,-2.412,-2.3337,-2.4249,-2.4577,-2.4422,-2.473,-2.4666,-2.4748,-2.6265,-2.7449,-2.6335,-2.7611,-2.9161,-2.916,-2.9236,-2.935,-2.938,-2.9793,-3.0204,-3.0443,-3.1952,-3.3186,-3.3236,-3.3037,-3.2643,-3.1974,-3.109,-3.0258,-2.964,-2.9512,-2.8911,-2.7448,-2.7532,-2.7072,-2.5631,-2.6534,-2.6829,-2.6047,-2.688,-2.6968,-2.604,-2.6739,-2.7117,-2.7125,-2.7928,-2.807,-2.7513,-2.8343,-2.8862,-2.9135,-2.9888,-3.0365,-3.061,-3.061,-3.0638,-3.0697,-3.0704,-3.0707,-3.0717,-3.0704,-3.0749,-3.0801,-3.0801,-3.0795,-3.0796,-3.0796,-3.079,-3.0784,-3.0784,-3.0756,-3.0703,-3.0703,-3.0734,-3.0786,-3.0794,-3.0769,-3.0697,-3.0448,-3.0229,-3.0088,-3.0081,-2.9968,-2.9829,-2.9708,-2.9626,-2.9559,-2.9423,-2.9453,-2.9464,-2.9408,-2.9339,-2.928,-2.9225,-2.9217,-2.9191,-2.9135,-2.8519,-2.7929,-2.7533,-2.6738,-2.6158,-2.5877,-2.6237,-2.6149,-2.5341,-2.5118,-2.5011,-2.5011,-2.4993,-2.4625,-2.3808,-2.3843,-2.3433,-2.2569,-2.4124,-2.4528,-2.3887,-2.5321,-2.5156,-2.4726,-2.5973,-2.7008,-2.6062,-2.7111,-2.8383,-2.8451,-2.8541,-2.8764,-2.9316,-2.9576,-2.9853,-3.0281,-3.0966,-3.1495,-3.1548,-3.132,-3.0861,-3.0061,-2.9705,-2.908,-2.7925,-2.781,-2.7437,-2.6397,-2.6379,-2.6062,-2.5168,-2.554,-2.5513,-2.4882,-2.5862,-2.6263,-2.5849,-2.6798,-2.7301,-2.7217,-2.7556,-2.7589,-2.7322,-2.8822,-2.955,-2.9599,-2.9968,-3.0222,-3.0413,-3.0375,-3.0467,-3.0634,-3.0634,-3.0668,-3.0658,-3.0097,-3.0248,-3.0677,-3.0179,-3.0309,-3.0741,-3.0788,-3.0792,-3.0794,-3.0806,-3.0772,-3.0764,-3.0759,-3.0786,-3.0794,-3.0791,-3.0801,-3.0762,-3.0617,-3.043,-3.0297,-3.0285,-3.0158,-3.0016,-2.9968,-2.9935,-2.9861,-2.9739,-2.9697,-2.9653,-2.9579,-2.9461,-2.9409,-2.9409,-2.9368,-2.9365,-2.9365,-2.9066,-2.881,-2.8633,-2.8102,-2.7646,-2.7373,-2.754,-2.7562,-2.7321,-2.5942,-2.5153,-2.5195,-2.5167,-2.5032,-2.4708,-2.4681,-2.4514,-2.4178,-2.4752,-2.4606,-2.3812,-2.4302,-2.3924,-2.5136,-2.5979,-2.6682,-2.6203,-2.6804,-2.7617,-2.7964,-2.8145,-2.8468,-2.9329,-2.9304,-2.9283,-2.9673,-2.973,-2.977,-2.9841,-2.9644,-2.9244,-2.8474,-2.828,-2.7783,-2.657,-2.6468,-2.6232,-2.5495,-2.5424,-2.5189,-2.4625,-2.4864,-2.4764,-2.4174,-2.5124,-2.5627,-2.5431,-2.6338,-2.6855,-2.6921,-2.7145,-2.7244,-2.7221,-2.8542,-2.9303,-2.9512,-2.9281,-2.9412,-2.9831,-2.9857,-2.9921,-3.0091,-3.0433,-3.0458,-3.0172,-2.9306,-2.9502,-3.0214,-2.9676,-2.998,-3.067,-3.0449,-3.0543,-3.0726,-3.0468,-3.0388,-3.039,-3.0382,-3.0193,-2.9983,-2.9981,-2.9988,-2.9975,-2.9925,-3.0221,-3.0467,-3.0183,-3.0177,-3.0213,-3.0195,-3.0177,-3.0112,-2.9924,-2.9864,-2.9784,-2.9645,-2.9559,-2.948,-2.948,-2.945,-2.9429,-2.9429,-2.9399,-2.9376,-2.9312,-2.9044,-2.8803,-2.8607,-2.8479,-2.8453,-2.8513,-2.7005,-2.6111,-2.6111,-2.6111,-2.5964,-2.5621,-2.5607,-2.5467,-2.5195,-2.5428,-2.5232,-2.4662,-2.4824,-2.4431,-2.5931,-2.6281,-2.6594,-2.6651,-2.6689,-2.6904,-2.7711,-2.8107,-2.8528,-2.9313,-2.8904,-2.8371,-2.8309,-2.8171,-2.8056,-2.7994,-2.809,-2.7941,-2.7247,-2.6829,-2.6328,-2.5645,-2.5636,-2.54,-2.4638,-2.458,-2.4343,-2.3732,-2.4552,-2.4762,-2.4001,-2.4938,-2.5198,-2.4591,-2.5221,-2.5738,-2.6065,-2.679,-2.7161,-2.7161,-2.7315,-2.7843,-2.8654,-2.7789,-2.7916,-2.8796,-2.9001,-2.9,-2.8963,-3.0026,-2.9994,-2.921,-2.8328,-2.8563,-2.9387,-2.9389,-2.9925,-3.0553,-2.9698,-2.9947,-3.0543,-2.9758,-2.9482,-2.9496,-2.9496,-2.8892,-2.8195,-2.8207,-2.8201,-2.8195,-2.8188,-2.9487,-3.0567,-2.9691,-3.0001,-3.047,-3.0424,-3.0345,-3.0209,-2.9958,-2.9893,-2.9856,-2.9725,-2.9701,-2.9701,-2.9701,-2.9579,-2.9502,-2.9502,-2.945,-2.9376,-2.9312,-2.9302,-2.9262,-2.9218,-2.8887,-2.8731,-2.8797,-2.8492,-2.8246,-2.8112,-2.8099,-2.76,-2.653,-2.6498,-2.6085,-2.523,-2.6085,-2.6498,-2.6516,-2.7321,-2.7224,-2.5128,-2.5341,-2.5537,-2.501,-2.5691,-2.6581,-2.6967,-2.7655,-2.8363,-2.8784,-2.8699,-2.8191,-2.7114,-2.7017,-2.6912,-2.6349,-2.6462,-2.6199,-2.4929,-2.5159,-2.4831,-2.3064,-2.375,-2.4059,-2.3339,-2.3522,-2.343,-2.2765,-2.3504,-2.3437,-2.2161,-2.3588,-2.3841,-2.2525,-2.3553,-2.387,-2.337,-2.4225,-2.4662,-2.4678,-2.522,-2.6279,-2.7711,-2.7347,-2.7409,-2.7813,-2.783,-2.7894,-2.802,-2.8386,-2.8442,-2.8232,-2.7406,-2.7604,-2.8269,-2.7706,-2.8055,-2.877,-2.8559,-2.8645,-2.8829,-2.859,-2.8554,-2.8584,-2.8584,-2.8437,-2.8268,-2.8271,-2.8274,-2.8139,-2.7527,-2.8161,-2.9069,-2.9414,-2.9647,-2.9955,-3.055,-3.0541,-3.0409,-3.0275,-3.011,-2.9923,-2.9779,-2.9719,-2.9664,-2.9569,-2.9617,-2.9617,-2.9502,-2.945,-2.9376,-2.9312,-2.9302,-2.9262,-2.9218,-2.9112,-2.9067,-2.9089,-2.898,-2.8755,-2.8322,-2.8178,-2.795,-2.7635,-2.7443,-2.7219,-2.6959,-2.7219,-2.7017,-2.6426,-2.6527,-2.6113,-2.5566,-2.5588,-2.5678,-2.5468,-2.583,-2.6373,-2.6927,-2.7674,-2.8198,-2.8035,-2.7742,-2.7216,-2.6238,-2.5922,-2.5568,-2.4757,-2.493,-2.4668,-2.3206,-2.3588,-2.3455,-2.1852,-2.2592,-2.3085,-2.2669,-2.273,-2.2652,-2.2287,-2.2394,-2.2089,-2.1228,-2.2249,-2.2461,-2.1634,-2.2315,-2.2551,-2.2236,-2.2752,-2.3222,-2.3674,-2.4124,-2.5046,-2.6332,-2.6209,-2.6384,-2.6801,-2.6828,-2.7129,-2.758,-2.7328,-2.7262,-2.7232,-2.6472,-2.6689,-2.7335,-2.6874,-2.722,-2.7929,-2.7634,-2.7771,-2.8006,-2.7691,-2.7603,-2.7655,-2.7675,-2.7477,-2.7237,-2.7266,-2.7267,-2.7153,-2.662,-2.6831,-2.7509,-2.8696,-2.9251,-2.9734,-3.058,-3.0668,-3.0556,-3.0463,-3.0265,-3.0087,-2.9942,-2.9841,-2.9755,-2.9663,-2.9673,-2.9655,-2.9512,-2.945,-2.9386,-2.9344,-2.9336,-2.9318,-2.9286,-2.8989,-2.8923,-2.9228,-2.8918,-2.871,-2.8725,-2.8414,-2.8164,-2.7954,-2.7774,-2.7701,-2.7701,-2.7701,-2.7429,-2.6903,-2.6797,-2.6447,-2.6626,-2.6466,-2.6479,-2.6949,-2.6474,-2.6161,-2.7156,-2.7727,-2.7846,-2.7104,-2.6356,-2.5748,-2.5566,-2.4885,-2.411,-2.3357,-2.353,-2.3309,-2.1938,-2.2102,-2.2115,-2.1393,-2.1759,-2.2106,-2.2173,-2.1958,-2.1838,-2.1905,-2.1275,-2.0873,-2.0777,-2.0914,-2.1097,-2.1352,-2.1316,-2.1522,-2.2019,-2.2018,-2.2527,-2.355,-2.3632,-2.4055,-2.4764,-2.4731,-2.5113,-2.5801,-2.5929,-2.6503,-2.7305,-2.6628,-2.6307,-2.6213,-2.5611,-2.5818,-2.6463,-2.6553,-2.7045,-2.7566,-2.6838,-2.7102,-2.7647,-2.6904,-2.6688,-2.6698,-2.6756,-2.6211,-2.5605,-2.5673,-2.5708,-2.5709,-2.5707,-2.569,-2.6097,-2.772,-2.8756,-2.9618,-3.0422,-3.0636,-3.0652,-3.0522,-3.0393,-3.0277,-3.0144,-2.9965,-2.9812,-2.9807,-2.9742,-2.9655,-2.9531,-2.9405,-2.9316,-2.9287,-2.9235,-2.9199,-2.9189,-2.85,-2.8368,-2.9054,-2.8343,-2.8273,-2.9041,-2.8725,-2.8317,-2.7815,-2.7771,-2.7742,-2.7745,-2.773,-2.7681,-2.7596,-2.7651,-2.7651,-2.579,-2.5816,-2.5826,-2.4685,-2.4827,-2.5294,-2.5639,-2.5917,-2.6092,-2.6031,-2.5575,-2.4989,-2.4335,-2.3679,-2.3127,-2.2798,-2.2783,-2.2263,-2.0709,-2.0663,-2.0329,-1.9092,-1.94,-1.9731,-1.9745,-2.0165,-2.0213,-1.9728,-2.0449,-2.0406,-1.9256,-1.9801,-1.9959,-1.9498,-1.9573,-1.9727,-1.9941,-2.0797,-2.1368,-2.1601,-2.2357,-2.3087,-2.3823,-2.4533,-2.4892,-2.4955,-2.4989,-2.5182,-2.5463,-2.5208,-2.5181,-2.5285,-2.5203,-2.5264,-2.5444,-2.5611,-2.5793,-2.5909,-2.5734,-2.5807,-2.5925,-2.5758,-2.5741,-2.5785,-2.5804,-2.5703,-2.5607,-2.5618,-2.5664,-2.5701,-2.5691,-2.5708,-2.596,-2.7,-2.7918,-2.8777,-2.9585,-3.0207,-3.0604,-3.0581,-3.0473,-3.037,-3.034,-2.9734,-2.9248,-2.9134,-2.945,-2.971,-2.9737,-2.9138,-2.8652,-2.8549,-2.7969,-2.7568,-2.7522,-2.7354,-2.7335,-2.7485,-2.7326,-2.7501,-2.8152,-2.8594,-2.8761,-2.8651,-2.8329,-2.8129,-2.8006,-2.7908,-2.7513,-2.6844,-2.7322,-2.7208,-2.5814,-2.5781,-2.5705,-2.4483,-2.4586,-2.5006,-2.5006,-2.49,-2.467,-2.4242,-2.4199,-2.4006,-2.3219,-2.2798,-2.244,-2.2003,-2.1605,-2.0962,-1.9832,-1.9435,-1.8991,-1.8284,-1.8677,-1.9011,-1.9011,-1.9174,-1.9146,-1.8831,-1.9098,-1.9001,-1.8388,-1.8808,-1.897,-1.8769,-1.8851,-1.8996,-1.9204,-1.9797,-2.0357,-2.0909,-2.1494,-2.2413,-2.362,-2.4471,-2.4823,-2.4801,-2.4861,-2.4896,-2.49,-2.4929,-2.4967,-2.5006,-2.5074,-2.5128,-2.5153,-2.5228,-2.5303,-2.5356,-2.5384,-2.5402,-2.5391,-2.5404,-2.5418,-2.5464,-2.5496,-2.551,-2.5557,-2.5588,-2.565,-2.57,-2.5703,-2.5702,-2.5813,-2.626,-2.7038,-2.8009,-2.9231,-2.9794,-3.0195,-3.0611,-3.0247,-2.9872,-2.987,-2.9096,-2.8443,-2.8382,-2.8534,-2.8666,-2.8688,-2.8212,-2.7859,-2.7823,-2.7453,-2.7171,-2.7157,-2.6816,-2.6752,-2.7078,-2.6732,-2.6803,-2.7453,-2.7849,-2.808,-2.819,-2.7531,-2.7158,-2.7061,-2.6821,-2.6493,-2.6092,-2.6295,-2.6185,-2.6082,-2.5849,-2.5675,-2.513,-2.4971,-2.4872,-2.4641,-2.421,-2.3616,-2.2661,-2.2798,-2.2906,-2.2167,-2.1896,-2.1571,-2.088,-2.0281,-1.9607,-1.8863,-1.825,-1.7868,-1.7823,-1.8198,-1.8472,-1.85,-1.832,-1.8228,-1.8307,-1.7831,-1.7647,-1.7926,-1.8093,-1.828,-1.8508,-1.8631,-1.8789,-1.9033,-1.9074,-1.9565,-2.0489,-2.087,-2.1809,-2.3252,-2.4162,-2.4686,-2.4867,-2.4985,-2.4966,-2.4895,-2.5056,-2.5069,-2.4986,-2.5056,-2.5122,-2.5164,-2.5152,-2.5205,-2.5313,-2.5374,-2.5407,-2.5407,-2.5395,-2.5389,-2.5414,-2.547,-2.5498,-2.5513,-2.5572,-2.5624,-2.5681,-2.5679,-2.5698,-2.5703,-2.5703,-2.6247,-2.7194,-2.8745,-2.9191,-2.95,-3.0228,-2.9698,-2.9068,-2.8932,-2.8307,-2.7778,-2.7639,-2.7583,-2.754,-2.7529,-2.7259,-2.7064,-2.7099,-2.7006,-2.69,-2.6892,-2.6325,-2.6208,-2.6769,-2.6177,-2.6121,-2.6828,-2.6745,-2.6841,-2.7118,-2.6461,-2.608,-2.5997,-2.5694,-2.5491,-2.5328,-2.5318,-2.5236,-2.5736,-2.526,-2.51,-2.569,-2.5296,-2.4545,-2.3843,-2.3561,-2.325,-2.2412,-2.2118,-2.1806,-2.1141,-2.0521,-1.9902,-1.9232,-1.9036,-1.849,-1.7145,-1.7014,-1.6864,-1.636,-1.6314,-1.6356,-1.6482,-1.6754,-1.6991,-1.7119,-1.7465,-1.7664,-1.7641,-1.7955,-1.8131,-1.8163,-1.8455,-1.8657,-1.8744,-1.8921,-1.9094,-1.9261,-2.0333,-2.0998,-2.1335,-2.2997,-2.411,-2.4738,-2.4746,-2.4783,-2.4816,-2.4846,-2.4875,-2.4919,-2.5,-2.5019,-2.5057,-2.5274,-2.5322,-2.5317,-2.5391,-2.54,-2.5397,-2.5337,-2.5355,-2.5395,-2.5417,-2.5441,-2.5492,-2.5504,-2.5563,-2.5613,-2.5609,-2.5651,-2.57,-2.5698,-2.578,-2.6131,-2.7127,-2.7926,-2.8497,-2.8616,-2.8481,-2.8128,-2.7422,-2.7675,-2.7711,-2.6954,-2.7378,-2.7729,-2.7598,-2.6956,-2.646,-2.6365,-2.5778,-2.5354,-2.5236,-2.5122,-2.5103,-2.5203,-2.5108,-2.5407,-2.6192,-2.5506,-2.5391,-2.5995,-2.6399,-2.6542,-2.6425,-2.6259,-2.5649,-2.4649,-2.5387,-2.5224,-2.5786,-2.5508,-2.5349,-2.5296,-2.4987,-2.4425,-2.34,-2.3194,-2.2966,-2.2055,-2.1402,-2.0953,-2.0786,-2.006,-1.9385,-1.8978,-1.8259,-1.7497,-1.6815,-1.6398,-1.6099,-1.5915,-1.5899,-1.5928,-1.5984,-1.6287,-1.6528,-1.6607,-1.6968,-1.7252,-1.7415,-1.7537,-1.7749,-1.809,-1.8215,-1.8375,-1.8592,-1.8706,-1.886,-1.9012,-1.9544,-2.0096,-2.0708,-2.1611,-2.2813,-2.4228,-2.4622,-2.4837,-2.4865,-2.4849,-2.4842,-2.483,-2.4837,-2.4872,-2.4953,-2.5075,-2.5165,-2.5254,-2.5326,-2.5389,-2.5456,-2.5423,-2.5432,-2.5456,-2.5412,-2.5422,-2.5444,-2.5499,-2.5526,-2.5544,-2.5583,-2.5623,-2.5649,-2.5693,-2.5699,-2.5801,-2.6186,-2.6966,-2.7571,-2.7569,-2.7553,-2.7262,-2.6422,-2.6525,-2.658,-2.6194,-2.6348,-2.6498,-2.6427,-2.6054,-2.5767,-2.5704,-2.5369,-2.5122,-2.5074,-2.5063,-2.5044,-2.4999,-2.5018,-2.5137,-2.5421,-2.5064,-2.4986,-2.5233,-2.5345,-2.5364,-2.5268,-2.5017,-2.4643,-2.4168,-2.4331,-2.4177,-2.5545,-2.5499,-2.5371,-2.4747,-2.4605,-2.4268,-2.2929,-2.2709,-2.2489,-2.1498,-2.0659,-2.0119,-2.0197,-1.944,-1.8685,-1.8385,-1.7297,-1.6431,-1.6255,-1.5707,-1.5389,-1.5551,-1.5683,-1.577,-1.5842,-1.6081,-1.6274,-1.6369,-1.6599,-1.6844,-1.7138,-1.7163,-1.7363,-1.7821,-1.7943,-1.81,-1.8325,-1.8463,-1.8623,-1.885,-1.8918,-1.9353,-2.0105,-2.0541,-2.1548,-2.3023,-2.4083,-2.4553,-2.4617,-2.4811,-2.4884,-2.487,-2.482,-2.4842,-2.4931,-2.4946,-2.5031,-2.5157,-2.5225,-2.535,-2.5456,-2.5436,-2.5464,-2.5483,-2.5437,-2.543,-2.5457,-2.5479,-2.5495,-2.5505,-2.555,-2.5591,-2.5618,-2.5654,-2.5667,-2.5677,-2.5703,-2.621,-2.6679,-2.6677,-2.6678,-2.6464,-2.582,-2.5702,-2.5682,-2.568,-2.5594,-2.5511,-2.5503,-2.5409,-2.5333,-2.5327,-2.5279,-2.5254,-2.5254,-2.5231,-2.5203,-2.5138,-2.5132,-2.5076,-2.4954,-2.4926,-2.4877,-2.4794,-2.458,-2.4446,-2.4384,-2.4135,-2.3989,-2.3919,-2.3653,-2.3522,-2.4663,-2.4649,-2.4695,-2.4385,-2.4302,-2.3896,-2.2315,-2.1921,-2.1599,-2.0668,-1.9819,-1.9194,-1.8948,-1.8094,-1.7216,-1.6632,-1.5894,-1.5233,-1.4783,-1.4615,-1.4643,-1.4922,-1.5178,-1.5418,-1.5696,-1.5911,-1.6094,-1.6301,-1.6434,-1.6581,-1.6722,-1.6977,-1.7089,-1.7068,-1.767,-1.795,-1.7845,-1.8163,-1.8358,-1.8418,-1.8698,-1.8869,-1.9029,-2.0052,-2.0567,-2.0773,-2.2738,-2.3639,-2.3821,-2.4584,-2.4972,-2.5089,-2.5089,-2.5031,-2.4998,-2.5075,-2.5063,-2.5025,-2.5091,-2.5192,-2.5293,-2.5249,-2.5337,-2.5492,-2.5492,-2.5541,-2.557,-2.5518,-2.5498,-2.5499,-2.5503,-2.5548,-2.5607,-2.5609,-2.5609,-2.5614,-2.5683,-2.5742,-2.5761,-2.5779,-2.5779,-2.5741,-2.5703,-2.5703,-2.5683,-2.5602,-2.5606,-2.5565,-2.5506,-2.5488,-2.5474,-2.5403,-2.5395,-2.5379,-2.5379,-2.5336,-2.5278,-2.5206,-2.5182,-2.517,-2.5082,-2.4973,-2.4861,-2.4794,-2.4712,-2.4653,-2.4572,-2.4634,-2.4436,-2.4011,-2.4107,-2.402,-2.3471,-2.3918,-2.4432,-2.3822,-2.3924,-2.3766,-2.2297,-2.1803,-2.1455,-2.0696,-1.9405,-1.8361,-1.8197,-1.7365,-1.6594,-1.6217,-1.5522,-1.4963,-1.4708,-1.473,-1.469,-1.4525,-1.4938,-1.5174,-1.5012,-1.5448,-1.5868,-1.6151,-1.6301,-1.6448,-1.6633,-1.6738,-1.6879,-1.7064,-1.7264,-1.7537,-1.7916,-1.817,-1.8363,-1.8455,-1.8516,-1.8593,-1.8723,-1.9244,-1.9471,-1.956,-2.0963,-2.1988,-2.2703,-2.2977,-2.3493,-2.407,-2.4123,-2.4443,-2.4879,-2.4953,-2.4987,-2.5006,-2.5025,-2.509,-2.5179,-2.518,-2.525,-2.5331,-2.5461,-2.5518,-2.5529,-2.556,-2.5538,-2.5505,-2.5547,-2.5544,-2.5544,-2.5546,-2.6002,-2.6291,-2.5759,-2.5672,-2.5702,-2.5702,-2.5699,-2.5697,-2.57,-2.5698,-2.5698,-2.5663,-2.5664,-2.5644,-2.5576,-2.5566,-2.5555,-2.5524,-2.5483,-2.5465,-2.5457,-2.5394,-2.535,-2.5321,-2.5288,-2.5257,-2.5236,-2.5141,-2.5056,-2.4993,-2.4933,-2.482,-2.466,-2.4647,-2.4539,-2.4373,-2.4266,-2.4145,-2.2414,-2.2839,-2.3504,-2.2944,-2.2744,-2.25,-2.175,-2.117,-2.0573,-1.984,-1.8589,-1.7537,-1.723,-1.6434,-1.5806,-1.5769,-1.5103,-1.4594,-1.4562,-1.4543,-1.4472,-1.4293,-1.4579,-1.4721,-1.4509,-1.4959,-1.5374,-1.5638,-1.5967,-1.626,-1.649,-1.653,-1.6699,-1.7064,-1.6993,-1.7248,-1.7927,-1.807,-1.8229,-1.8433,-1.8383,-1.8413,-1.8502,-1.8661,-1.8726,-1.8771,-1.9532,-2.0505,-2.1595,-2.1928,-2.2421,-2.3048,-2.3474,-2.3934,-2.4418,-2.4769,-2.4893,-2.4895,-2.4895,-2.4962,-2.5034,-2.5082,-2.5149,-2.5231,-2.5385,-2.5429,-2.5445,-2.5543,-2.5538,-2.5515,-2.5557,-2.5541,-2.5528,-2.5502,-2.5993,-2.6294,-2.5709,-2.5827,-2.5981,-2.5713,-2.567,-2.5668,-2.5696,-2.5694,-2.569,-2.5693,-2.5695,-2.5679,-2.5644,-2.5625,-2.5622,-2.5638,-2.5582,-2.5563,-2.5577,-2.5508,-2.5456,-2.5437,-2.5387,-2.5348,-2.5298,-2.5262,-2.5206,-2.5124,-2.507,-2.4972,-2.4827,-2.4715,-2.4653,-2.4621,-2.4452,-2.432,0.0,0.0,0.0,-2.1802,-2.0838,-2.0064,-2.0621,-1.9876,-1.8852,-1.806,-1.7354,-1.6673,-1.602,-1.5243,-1.4846,-1.5222,-1.4573,-1.4091,-1.4298,-1.4041,-1.3929,-1.4177,-1.4087,-1.4102,-1.4282,-1.4483,-1.4672,-1.4831,-1.5492,-1.6012,-1.6287,-1.6355,-1.6583,-1.6968,-1.6866,-1.7117,-1.7777,-1.7789,-1.7972,-1.8295,-1.8305,-1.8301,-1.83,-1.8375,-1.8396,-1.8406,-1.854,-1.93,-2.0504,-2.1509,-2.1935,-2.207,-2.3184,-2.357,-2.3608,-2.4523,-2.4794,-2.4707,-2.47,-2.479,-2.4897,-2.4889,-2.5037,-2.5203,-2.5274,-2.5305,-2.5322,-2.5461,-2.5494,-2.5489,-2.5503,-2.5547,-2.5573,-2.5518,-2.5577,-2.5615,-2.5518,-2.6173,-2.6561,-2.5742,-2.5593,-2.5629,-2.57,-2.5698,-2.5694,-2.5699,-2.5694,-2.5707,-2.5707,-2.5696,-2.57,-2.57,-2.5702,-2.5695,-2.5694,-2.5643,-2.5585,-2.5506,-2.5498,-2.5438,-2.5302,-2.5307,-2.5276,-2.5204,-2.5144,-2.5108,-2.5101,-2.4891,-2.4776,-2.4707,-2.4707,-2.4602,-2.0842,0.0,0.0,0.0,0.0,0.0,-1.9871,-1.9273,-1.8585,-1.7714,-1.6931,-1.6326,-1.6091,-1.5556,-1.5119,-1.5028,-1.4676,-1.4495,-1.4631,-1.4619,-1.449,-1.4232,-1.4514,-1.4633,-1.4396,-1.4699,-1.5054,-1.5419,-1.5593,-1.5841,-1.6207,-1.6303,-1.6409,-1.6557,-1.6776,-1.6977,-1.7216,-1.7612,-1.79,-1.8085,-1.8236,-1.8329,-1.8375,-1.8385,-1.8396,-1.8396,-1.8443,-1.8667,-1.9018,-1.9548,-2.0185,-2.0889,-2.1402,-2.2322,-2.3405,-2.3853,-2.4356,-2.4764,-2.4715,-2.4723,-2.4761,-2.4804,-2.4869,-2.493,-2.5102,-2.5197,-2.5254,-2.5322,-2.5426,-2.5489,-2.5503,-2.5515,-2.5515,-2.5511,-2.6001,-2.6287,-2.5584,-2.6103,-2.6497,-2.5676,-2.5532,-2.5547,-2.5625,-2.5625,-2.5632,-2.5698,-2.5698,-2.5698,-2.5706,-2.5707,-2.5708,-2.5691,-2.5696,-2.5701,-2.5703,-2.5677,-2.5666,-2.5658,-2.5593,-2.5568,-2.5515,-2.5415,-2.5333,-2.5271,-2.5219,-2.5145,-2.5099,-2.49,-2.4787,-2.4764,-2.478,-2.4726,-2.0934,-2.0806,-2.1167,-2.0297,0.0,0.0,-1.9536,-1.8892,-1.8144,-1.7676,-1.712,-1.6583,-1.6064,-1.5623,-1.5244,-1.4903,-1.4765,-1.4707,-1.4787,-1.4788,-1.4687,-1.4485,-1.4585,-1.4584,-1.4328,-1.4625,-1.4966,-1.5265,-1.5536,-1.5817,-1.6139,-1.622,-1.6303,-1.6355,-1.6554,-1.6747,-1.6952,-1.724,-1.7561,-1.7916,-1.8009,-1.8145,-1.8311,-1.8311,-1.8311,-1.8311,-1.8342,-1.8352,-1.8373,-1.8559,-1.9093,-1.9822,-2.0435,-2.1321,-2.2324,-2.2832,-2.3531,-2.4219,-2.4166,-2.4155,-2.4206,-2.4561,-2.4497,-2.4346,-2.4835,-2.5028,-2.5108,-2.5265,-2.539,-2.5498,-2.5503,-2.5499,-2.5495,-2.5496,-2.5871,-2.6064,-2.5509,-2.5777,-2.5992,-2.554,-2.5453,-2.5489,-2.5543,-2.5551,-2.5578,-2.5604,-2.5642,-2.5657,-2.5666,-2.5675,-2.5702,-2.5709,-2.5708,-2.5691,-2.5698,-2.5702,-2.5703,-2.5703,-2.566,-2.563,-2.5602,-2.5524,-2.5454,-2.5379,-2.5329,-2.5234,-2.5137,-2.5,-2.4917,-2.4889,-2.4853,-2.4817,-2.1701,-2.0839,-2.0396,-2.0186,-1.8979,0.0,-1.9333,-1.8642,-1.774,-1.7747,-1.7612,-1.7154,-1.6061,-1.5656,-1.5355,-1.4914,-1.4799,-1.4799,-1.4799,-1.4719,-1.4695,-1.4878,-1.4541,-1.4324,-1.4381,-1.4567,-1.4676,-1.4705,-1.5341,-1.5849,-1.609,-1.6169,-1.6236,-1.6287,-1.6301,-1.6488,-1.6837,-1.6841,-1.7117,-1.7692,-1.7715,-1.7839,-1.8108,-1.8179,-1.8162,-1.814,-1.8236,-1.8284,-1.8277,-1.8287,-1.8518,-1.8932,-1.9928,-2.047,-2.0812,-2.163,-2.2525,-2.3355,-2.3359,-2.3427,-2.3627,-2.4288,-2.4092,-2.3765,-2.4544,-2.4835,-2.4955,-2.5214,-2.5387,-2.5484,-2.5491,-2.549,-2.5498,-2.5499,-2.5456,-2.5406,-2.5397,-2.535,-2.5322,-2.5378,-2.5378,-2.5394,-2.5467,-2.5476,-2.5473,-2.5486,-2.5538,-2.5571,-2.5574,-2.5634,-2.5698,-2.5688,-2.5707,-2.5706,-2.5708,-2.5704,-2.5698,-2.5693,-2.5692,-2.5663,-2.5605,-2.5615,-2.5576,-2.5502,-2.5457,-2.5344,-2.5204,-2.5138,-2.5089,-2.5011,-2.4952,-2.4884,-2.3373,-2.2381,-2.1664,-2.0725,-1.9532,0.0,-1.845,-1.8176,-1.7848,-1.7456,-1.7456,-1.7237,-1.6364,-1.616,-1.5876,-1.5153,-1.4903,-1.4811,-1.4869,-1.4869,-1.5004,-1.5481,-1.5165,-1.5085,-1.552,-1.5276,-1.5011,-1.4807,-1.5153,-1.5605,-1.6061,-1.6155,-1.6208,-1.6207,-1.633,-1.6396,-1.6421,-1.6776,-1.7005,-1.7089,-1.7549,-1.7692,-1.7566,-1.7944,-1.7999,-1.7816,-1.8031,-1.8134,-1.8145,-1.8267,-1.8383,-1.8534,-1.8914,-1.9533,-2.0279,-2.0619,-2.1719,-2.3071,-2.308,-2.3601,-2.4307,-2.4451,-2.4445,-2.4425,-2.4588,-2.4712,-2.4897,-2.522,-2.5327,-2.536,-2.5476,-2.5499,-2.5499,-2.5492,-2.5499,-2.5472,-2.5408,-2.54,-2.5363,-2.5322,-2.5288,-2.5254,-2.5336,-2.5298,-2.5279,-2.5335,-2.5403,-2.5439,-2.5441,-2.5549,-2.5611,-2.5623,-2.5663,-2.5699,-2.5692,-2.5692,-2.5709,-2.5704,-2.5708,-2.5689,-2.5685,-2.5682,-2.5643,-2.5576,-2.5513,-2.5418,-2.5284,-2.522,-2.5147,-2.5074,-2.5063,-2.505,-2.4271,-2.3183,-2.217,-2.0945,-2.0049,0.0,0.0,-1.8428,-1.8226,-1.7948,-1.7948,-1.7774,-1.7029,-1.6896,-1.6685,-1.5952,-1.5734,-1.5579,-1.5366,-1.5006,-1.5015,-1.5713,-1.5612,-1.5637,-1.5961,-1.5854,-1.5593,-1.5234,-1.5449,-1.5661,-1.5785,-1.6019,-1.6083,-1.594,-1.6179,-1.6303,-1.6301,-1.6528,-1.6735,-1.6898,-1.7211,-1.7344,-1.7372,-1.7595,-1.7676,-1.767,-1.7783,-1.7922,-1.8059,-1.813,-1.8215,-1.8311,-1.8479,-1.8939,-1.9515,-1.9602,-2.0768,-2.2245,-2.2218,-2.2867,-2.3757,-2.4137,-2.4141,-2.4065,-2.4452,-2.467,-2.4816,-2.4917,-2.5094,-2.5259,-2.5284,-2.505,-2.4903,-2.5356,-2.512,-2.4919,-2.5312,-2.5367,-2.5355,-2.5341,-2.5262,-2.5206,-2.5243,-2.5228,-2.5208,-2.5249,-2.5307,-2.5344,-2.529,-2.5387,-2.5467,-2.5508,-2.5532,-2.5569,-2.5591,-2.5595,-2.5619,-2.5692,-2.5692,-2.5694,-2.5699,-2.5708,-2.5676,-2.5642,-2.559,-2.5522,-2.5457,-2.5379,-2.5279,-2.5149,-2.513,-2.5125,-2.4711,-2.3533,-2.2274,-2.1216,-2.0463,-1.9875,0.0,0.0,0.0,-1.8615,-1.8615,-1.8411,-1.772,-1.7505,-1.7269,-1.6807,-1.6541,-1.6303,-1.6005,-1.5355,-1.5177,-1.582,-1.5973,-1.6032,-1.6055,-1.5998,-1.5848,-1.5595,-1.5701,-1.5754,-1.5658,-1.5929,-1.6015,-1.5861,-1.603,-1.6179,-1.6274,-1.6328,-1.6501,-1.6799,-1.6888,-1.7002,-1.7163,-1.7248,-1.7332,-1.7432,-1.7542,-1.7692,-1.7889,-1.7972,-1.8065,-1.8151,-1.8301,-1.8536,-1.878,-1.878,-1.9804,-2.1197,-2.1295,-2.1988,-2.295,-2.358,-2.3472,-2.326,-2.4027,-2.4364,-2.4505,-2.4606,-2.4865,-2.5126,-2.5082,-2.4671,-2.4451,-2.5161,-2.4792,-2.4485,-2.5204,-2.5317,-2.5293,-2.5327,-2.5271,-2.5198,-2.5201,-2.519,-2.5168,-2.5189,-2.5231,-2.5268,-2.5179,-2.524,-2.5329,-2.5359,-2.5371,-2.5402,-2.5487,-2.5499,-2.5564,-2.5687,-2.5694,-2.5704,-2.5702,-2.5697,-2.5699,-2.5689,-2.5643,-2.5605,-2.5602,-2.5541,-2.5427,-2.525,-2.5163,-2.5174,-2.473,-2.3341,-2.2179,-2.1927,-2.0742,-1.9667,-1.9711,0.0,-1.9228,-1.8979,0.0,-1.8803,-1.8088,0.0,0.0,-1.7199,-1.656,-1.6161,-1.6481,-1.6275,-1.6046,-1.5915,-1.6268,-1.6373,-1.5972,-1.5175,-1.4925,-1.5484,-1.5414,-1.5613,-1.6172,-1.6083,-1.6137,-1.6393,-1.6039,-1.5968,-1.6208,-1.6396,-1.6461,-1.6463,-1.6815,-1.6853,-1.6604,-1.7014,-1.7052,-1.6837,-1.7308,-1.7502,-1.7507,-1.7845,-1.7966,-1.7955,-1.8151,-1.8274,-1.8371,-1.8371,-1.9056,-2.0087,-2.0797,-2.1747,-2.2672,-2.2881,-2.2538,-2.2245,-2.3156,-2.3414,-2.3574,-2.4504,-2.4802,-2.4881,-2.4968,-2.4955,-2.4934,-2.5102,-2.5064,-2.5034,-2.5184,-2.5231,-2.5206,-2.513,-2.5178,-2.5193,-2.5198,-2.5143,-2.5101,-2.512,-2.5162,-2.5197,-2.5112,-2.5217,-2.5269,-2.5235,-2.5278,-2.5364,-2.5499,-2.551,-2.5561,-2.5699,-2.5699,-2.5704,-2.5697,-2.5697,-2.5675,-2.5605,-2.5663,-2.5657,-2.5598,-2.5598,-2.5515,-2.5373,-2.532,-2.5274,-2.462,-2.3798,-2.3014,-2.2327,-2.1586,-2.0808,-2.0179,-1.9879,-1.9627,-1.9139,0.0,0.0,0.0,0.0,0.0,0.0,-1.7769,-1.7289,-1.6837,-1.7169,-1.7258,-1.6683,-1.6524,-1.6478,-1.6444,-1.5699,-1.5562,-1.6321,-1.6149,-1.6136,-1.6454,-1.6798,-1.6752,-1.6227,-1.6428,-1.645,-1.6194,-1.5898,-1.5964,-1.6396,-1.6173,-1.6212,-1.6514,-1.6659,-1.6725,-1.6709,-1.6888,-1.7142,-1.7408,-1.7577,-1.776,-1.7972,-1.8037,-1.8148,-1.8249,-1.829,-1.8891,-1.9787,-2.051,-2.1439,-2.24,-2.3008,-2.2796,-2.2401,-2.2831,-2.2706,-2.2529,-2.293,-2.3479,-2.3945,-2.4011,-2.4042,-2.4224,-2.4835,-2.4537,-2.429,-2.4939,-2.5072,-2.505,-2.5,-2.5006,-2.5006,-2.4968,-2.5069,-2.5138,-2.5114,-2.512,-2.5126,-2.5107,-2.5149,-2.5164,-2.5145,-2.5168,-2.5219,-2.5329,-2.5322,-2.5391,-2.5573,-2.5657,-2.5693,-2.5694,-2.5693,-2.5685,-2.567,-2.5691,-2.5694,-2.5659,-2.5625,-2.5561,-2.5512,-2.5457,-2.5415,-2.4096,-2.3652,-2.3158,-2.2457,-2.2021,-2.1532,-2.0674,-2.0366,-2.0129,-1.9533,-1.9464,0.0,0.0,0.0,-1.8869,-1.9066,0.0,-1.819,-1.752,-1.7929,-1.7929,-1.6976,-1.662,-1.6598,-1.6881,-1.6294,-1.6207,-1.6951,-1.6769,-1.6736,-1.6962,-1.7319,-1.7184,-1.645,-1.6673,-1.6623,-1.63,-1.5566,-1.55,-1.6075,-1.5617,-1.5671,-1.6182,-1.6343,-1.6488,-1.6591,-1.662,-1.6841,-1.7191,-1.7264,-1.7455,-1.7743,-1.7833,-1.7927,-1.805,-1.8215,-1.8666,-1.9321,-2.0048,-2.0933,-2.1885,-2.2772,-2.2686,-2.2259,-2.2353,-2.2282,-2.2208,-2.2164,-2.2846,-2.3574,-2.3574,-2.3604,-2.3813,-2.4583,-2.4197,-2.3859,-2.4659,-2.4818,-2.4726,-2.4485,-2.4603,-2.4676,-2.4428,-2.4789,-2.5095,-2.5095,-2.5095,-2.5108,-2.5088,-2.5089,-2.5082,-2.5088,-2.5089,-2.5113,-2.5189,-2.5224,-2.5302,-2.5483,-2.5595,-2.5641,-2.5658,-2.5686,-2.5694,-2.5701,-2.5701,-2.5697,-2.5692,-2.5644,-2.5633,-2.5633,-2.5569,-2.5533,-2.2974,-2.2327,-2.1923,-2.2144,-2.1648,-2.1134,-2.1166,-2.1102,-2.0878,-2.0294,-2.0417,-2.0568,-2.0314,-1.9468,-1.9034,-1.9758,-1.8927,0.0,0.0,-1.85,-1.7789,-1.6395,-1.6509,-1.6822,-1.716,-1.6584,-1.6414,-1.6951,-1.6993,-1.7271,-1.7921,-1.7363,-1.7188,-1.7529,-1.6567,-1.6182,-1.6497,-1.5633,-1.5214,-1.5229,-1.5345,-1.5386,-1.5366,-1.615,-1.6434,-1.6328,-1.6578,-1.6672,-1.6649,-1.6904,-1.7018,-1.7068,-1.738,-1.7561,-1.767,-1.8065,-1.8225,-1.8374,-1.9236,-2.0105,-2.0963,-2.1703,-2.1661,-2.1365,-2.1497,-2.2209,-2.2985,-2.3047,-2.3647,-2.4266,-2.4266,-2.4211,-2.422,-2.4381,-2.4328,-2.4302,-2.4398,-2.4371,-2.4104,-2.3392,-2.3872,-2.4195,-2.3476,-2.4159,-2.4879,-2.5063,-2.5101,-2.5101,-2.5101,-2.5031,-2.5025,-2.5095,-2.5031,-2.5063,-2.5182,-2.5269,-2.5346,-2.5492,-2.5504,-2.5507,-2.5504,-2.5634,-2.5699,-2.5698,-2.5698,-2.5698,-2.5698,-2.5693,-2.5705,-2.5697,-2.5624,-2.5603,-2.2728,-2.2467,-2.2332,-2.2321,-2.2132,-2.1868,-2.1538,-2.1476,-2.1352,-2.0845,-2.0846,-2.0911,-2.0781,-2.0345,-2.0067,-2.0318,-1.9941,-1.9338,0.0,-1.7791,-1.7205,-1.7059,-1.7051,-1.7136,-1.7374,-1.7109,-1.7276,-1.8062,-1.7848,-1.7888,-1.8364,-1.8522,-1.8232,-1.7497,-1.7371,-1.7066,-1.6511,-1.5099,-1.4666,-1.5199,-1.4255,-1.4365,-1.537,-1.5588,-1.5973,-1.6434,-1.6434,-1.6528,-1.6657,-1.6712,-1.6866,-1.7101,-1.7444,-1.7549,-1.7584,-1.8044,-1.8225,-1.8433,-1.9664,-2.0891,-2.197,-2.2267,-2.2028,-2.1669,-2.1889,-2.1834,-2.1726,-2.1926,-2.2546,-2.3194,-2.3223,-2.3683,-2.4153,-2.4257,-2.4229,-2.4209,-2.4302,-2.4321,-2.4192,-2.3796,-2.4026,-2.4164,-2.3878,-2.4153,-2.4491,-2.4782,-2.4837,-2.4893,-2.5076,-2.5082,-2.5088,-2.515,-2.512,-2.5075,-2.5136,-2.5238,-2.5312,-2.5354,-2.546,-2.5495,-2.5499,-2.5535,-2.5566,-2.5574,-2.5611,-2.5666,-2.5702,-2.5707,-2.5707,-2.5704,-2.5624,-2.5616,-2.2659,-2.2619,-2.2514,-2.2146,-2.2242,-2.2251,-2.1551,-2.1697,-2.1866,-2.1415,-2.1431,-2.1507,-2.1461,-2.1166,-2.0943,-2.0975,-2.0683,-2.0044,0.0,-1.793,-1.7406,-1.7478,-1.7393,-1.7358,-1.7449,-1.7484,-1.7943,-1.9004,-1.8484,-1.8442,-1.9209,-1.9213,-1.8749,-1.7744,-1.7744,-1.7378,-1.6613,-1.511,-1.4631,-1.5199,-1.4212,-1.4307,-1.5332,-1.5604,-1.6001,-1.6448,-1.6394,-1.6448,-1.6552,-1.649,-1.6596,-1.6812,-1.713,-1.7284,-1.7427,-1.7994,-1.8242,-1.8502,-1.9912,-2.0962,-2.1784,-2.2394,-2.2375,-2.2133,-2.2112,-2.1987,-2.1836,-2.1724,-2.226,-2.2893,-2.2942,-2.3446,-2.3968,-2.4009,-2.4037,-2.4084,-2.4105,-2.4114,-2.3984,-2.3555,-2.3787,-2.3956,-2.3654,-2.3903,-2.4238,-2.4591,-2.4639,-2.4693,-2.4865,-2.4919,-2.496,-2.5076,-2.5057,-2.507,-2.5137,-2.5204,-2.5268,-2.5259,-2.5363,-2.5426,-2.5425,-2.5448,-2.5463,-2.5467,-2.5517,-2.554,-2.5554,-2.5588,-2.5602,-2.5634,-2.5583,-2.5619]},{"header":{"parameterUnit":"m.s-1","parameterCategory":1,"la1":30.6,"la2":29.2853,"lo1":-89.7004,"lo2":-87.6739,"dy":0.0162,"dx":0.0183,"nx":112,"ny":82,"refTime":"2024-06-21T12:00:00:Z","depth":0,"parameterNumber":3,"parameterNumberName":"V-component_of_WINDS"},"data":[0.0,0.0,0.0,0.0,0.0,0.0,0.0,0.0,0.0,0.0,0.0,0.0,0.0,0.0,0.0,0.0,0.0,0.0,0.0,0.0,0.0,0.0,0.0,0.0,0.0,0.0,0.0,0.0,0.0,0.0,0.0,0.0,0.0,0.0,0.0,0.0,0.0,0.0,0.0,0.0,0.0,0.0,0.0,0.0,0.0,0.0,0.0,0.0,0.0,0.0,0.0,0.0,0.0,0.0,0.0,0.0,0.0,0.0,0.0,0.0,0.0,0.0,0.0,0.0,0.0,0.0,0.0,0.0,0.0,0.0,0.0,0.0,0.0,0.0,0.0,0.0,0.0,0.0,0.0,0.0,0.0,0.0,0.0,0.0,0.0,0.0,0.0,0.0,0.0,0.0,-1.2384,-1.3162,-1.4072,-1.4839,-1.5446,-1.5897,-1.6423,-1.7041,0.0,0.0,0.0,0.0,0.0,0.0,0.0,0.0,0.0,0.0,0.0,0.0,0.0,0.0,0.0,0.0,0.0,0.0,0.0,0.0,0.0,0.0,0.0,0.0,0.0,0.0,0.0,0.0,0.0,0.0,0.0,0.0,0.0,0.0,0.0,0.0,0.0,0.0,0.0,0.0,0.0,0.0,0.0,0.0,0.0,0.0,0.0,0.0,0.0,0.0,0.0,0.0,0.0,0.0,0.0,0.0,0.0,0.0,0.0,0.0,0.0,0.0,0.0,0.0,0.0,0.0,0.0,0.0,0.0,0.0,0.0,0.0,0.0,0.0,0.0,0.0,0.0,0.0,0.0,0.0,0.0,0.0,0.0,0.0,0.0,0.0,0.0,0.0,0.0,0.0,0.0,0.0,0.0,0.0,0.0,0.0,0.0,0.0,0.0,0.0,0.0,0.0,0.0,0.0,-1.2867,-1.42,-1.4724,-1.5087,-1.5487,-1.6156,-1.6811,-1.7458,0.0,0.0,0.0,0.0,0.0,0.0,0.0,0.0,0.0,0.0,0.0,0.0,0.0,0.0,0.0,0.0,0.0,0.0,0.0,0.0,0.0,0.0,0.0,0.0,0.0,0.0,0.0,0.0,0.0,0.0,0.0,0.0,0.0,0.0,0.0,0.0,0.0,0.0,0.0,0.0,0.0,0.0,0.0,0.0,0.0,0.0,0.0,0.0,0.0,0.0,0.0,0.0,0.0,0.0,0.0,0.0,0.0,0.0,0.0,0.0,0.0,0.0,0.0,0.0,0.0,0.0,0.0,0.0,0.0,0.0,0.0,0.0,0.0,0.0,0.0,0.0,0.0,0.0,0.0,0.0,0.0,0.0,0.0,0.0,0.0,0.0,0.0,0.0,0.0,0.0,0.0,0.0,0.0,0.0,0.0,0.0,0.0,0.0,0.0,0.0,0.0,0.0,0.0,-1.2745,-1.3323,-1.4646,-1.4928,-1.5196,-1.5684,-1.6779,-1.7407,-1.7419,-1.933,0.0,0.0,0.0,0.0,0.0,0.0,0.0,0.0,0.0,0.0,0.0,0.0,0.0,0.0,0.0,0.0,0.0,0.0,0.0,0.0,0.0,0.0,0.0,0.0,0.0,0.0,0.0,0.0,0.0,0.0,0.0,0.0,0.0,0.0,0.0,0.0,0.0,0.0,0.0,0.0,0.0,0.0,0.0,0.0,0.0,0.0,0.0,0.0,0.0,0.0,0.0,0.0,0.0,0.0,0.0,0.0,0.0,0.0,0.0,0.0,0.0,0.0,0.0,0.0,0.0,0.0,0.0,0.0,0.0,0.0,0.0,0.0,0.0,0.0,0.0,0.0,0.0,0.0,0.0,0.0,0.0,0.0,0.0,0.0,0.0,0.0,0.0,0.0,0.0,0.0,0.0,0.0,0.0,0.0,0.0,0.0,0.0,0.0,0.0,0.0,0.0,0.0,-1.3158,-1.3829,-1.5001,-1.5095,-1.5464,-1.6205,-1.7428,-1.7991,-1.7807,-2.0039,0.0,0.0,0.0,0.0,0.0,0.0,0.0,0.0,0.0,0.0,0.0,0.0,0.0,0.0,0.0,0.0,0.0,0.0,0.0,0.0,0.0,0.0,0.0,0.0,0.0,0.0,0.0,0.0,0.0,0.0,0.0,0.0,0.0,0.0,0.0,0.0,0.0,0.0,0.0,0.0,0.0,0.0,0.0,0.0,0.0,0.0,0.0,0.0,0.0,0.0,0.0,0.0,0.0,0.0,0.0,0.0,0.0,0.0,0.0,0.0,0.0,0.0,0.0,0.0,0.0,0.0,0.0,0.0,0.0,0.0,0.0,0.0,0.0,0.0,0.0,0.0,0.0,0.0,0.0,0.0,0.0,0.0,0.0,0.0,0.0,0.0,0.0,0.0,0.0,0.0,0.0,0.0,0.0,0.0,0.0,0.0,0.0,0.0,0.0,0.0,0.0,0.0,-1.3852,-1.446,-1.5369,-1.5482,-1.6004,-1.7371,-1.7841,-1.8379,-1.9112,-2.0555,0.0,0.0,0.0,0.0,0.0,0.0,0.0,0.0,0.0,0.0,0.0,0.0,0.0,0.0,0.0,0.0,0.0,0.0,0.0,0.0,0.0,0.0,0.0,0.0,0.0,0.0,0.0,0.0,0.0,0.0,0.0,0.0,0.0,0.0,0.0,0.0,0.0,0.0,0.0,0.0,0.0,0.0,0.0,0.0,0.0,0.0,0.0,0.0,0.0,0.0,0.0,0.0,0.0,0.0,0.0,0.0,0.0,0.0,0.0,0.0,0.0,0.0,0.0,0.0,0.0,0.0,0.0,0.0,0.0,0.0,0.0,0.0,0.0,0.0,0.0,0.0,0.0,0.0,0.0,0.0,0.0,0.0,0.0,0.0,0.0,0.0,0.0,0.0,0.0,0.0,0.0,0.0,0.0,0.0,0.0,0.0,0.0,0.0,0.0,0.0,0.0,0.0,-1.3975,-1.4701,-1.5176,-1.5995,-1.6713,-1.7159,-1.8518,-1.9241,-1.8925,0.0,0.0,0.0,0.0,0.0,0.0,0.0,0.0,0.0,0.0,0.0,0.0,0.0,0.0,0.0,0.0,0.0,0.0,0.0,0.0,0.0,0.0,0.0,0.0,0.0,0.0,0.0,0.0,0.0,0.0,0.0,0.0,0.0,0.0,0.0,0.0,0.0,0.0,0.0,0.0,0.0,0.0,0.0,0.0,0.0,0.0,0.0,0.0,0.0,0.0,0.0,0.0,0.0,0.0,0.0,0.0,0.0,0.0,0.0,0.0,0.0,0.0,0.0,0.0,0.0,0.0,0.0,0.0,0.0,0.0,0.0,0.0,0.0,0.0,0.0,0.0,0.0,0.0,0.0,0.0,0.0,0.0,0.0,0.0,0.0,0.0,0.0,0.0,0.0,0.0,0.0,0.0,0.0,0.0,0.0,0.0,0.0,0.0,0.0,0.0,0.0,0.0,-1.3458,-1.4202,-1.4897,-1.5521,-1.6394,-1.7201,-1.7806,-1.9128,-1.9735,-1.9265,0.0,0.0,0.0,0.0,0.0,0.0,0.0,0.0,0.0,0.0,0.0,0.0,0.0,0.0,0.0,0.0,0.0,0.0,0.0,0.0,0.0,0.0,0.0,0.0,0.0,0.0,0.0,0.0,0.0,0.0,0.0,0.0,0.0,0.0,0.0,0.0,0.0,0.0,0.0,0.0,0.0,0.0,0.0,0.0,0.0,0.0,0.0,0.0,0.0,0.0,0.0,0.0,0.0,0.0,0.0,0.0,0.0,0.0,0.0,0.0,0.0,0.0,0.0,0.0,0.0,0.0,0.0,0.0,0.0,0.0,0.0,0.0,0.0,0.0,0.0,0.0,0.0,0.0,0.0,0.0,0.0,0.0,0.0,0.0,0.0,0.0,0.0,0.0,0.0,0.0,0.0,0.0,0.0,0.0,0.0,0.0,0.0,0.0,0.0,0.0,0.0,0.0,-1.4208,-1.4504,-1.5126,-1.6469,-1.6643,-1.7477,-1.9601,-1.967,-1.9861,0.0,0.0,0.0,0.0,0.0,0.0,0.0,0.0,0.0,0.0,0.0,0.0,0.0,0.0,0.0,0.0,0.0,0.0,0.0,0.0,0.0,0.0,0.0,0.0,0.0,0.0,0.0,0.0,0.0,0.0,0.0,0.0,0.0,0.0,0.0,0.0,0.0,0.0,0.0,0.0,0.0,0.0,0.0,0.0,0.0,0.0,0.0,0.0,0.0,0.0,0.0,0.0,0.0,0.0,0.0,0.0,0.0,0.0,0.0,0.0,0.0,0.0,0.0,0.0,0.0,0.0,0.0,0.0,0.0,0.0,0.0,0.0,0.0,0.0,0.0,0.0,0.0,0.0,0.0,0.0,0.0,0.0,0.0,0.0,0.0,0.0,0.0,0.0,0.0,0.0,0.0,0.0,0.0,0.0,0.0,0.0,0.0,0.0,0.0,0.0,0.0,0.0,0.0,-1.4091,-1.5817,-1.6907,-1.637,-1.7843,-1.9062,-1.9598,-2.0251,-2.0497,-2.0289,0.0,0.0,0.0,0.0,0.0,0.0,0.0,0.0,0.0,0.0,0.0,0.0,0.0,0.0,0.0,0.0,0.0,0.0,0.0,0.0,0.0,0.0,0.0,0.0,0.0,0.0,0.0,0.0,0.0,0.0,0.0,0.0,0.0,0.0,0.0,0.0,0.0,0.0,0.0,0.0,0.0,0.0,0.0,0.0,0.0,0.0,0.0,0.0,0.0,0.0,0.0,0.0,0.0,0.0,0.0,0.0,0.0,0.0,0.0,0.0,0.0,0.0,0.0,0.0,0.0,0.0,0.0,0.0,0.0,0.0,0.0,0.0,0.0,0.0,0.0,0.0,0.0,0.0,0.0,0.0,0.0,0.0,0.0,0.0,0.0,0.0,0.0,0.0,0.0,0.0,0.0,0.0,0.0,0.0,0.0,0.0,0.0,0.0,0.0,0.0,0.0,0.0,-1.492,-1.6642,-1.771,-1.7079,-1.8548,-1.9618,-1.9787,-2.0468,-2.064,-2.0012,0.0,0.0,0.0,0.0,0.0,0.0,0.0,0.0,0.0,0.0,0.0,0.0,0.0,0.0,0.0,0.0,0.0,0.0,0.0,0.0,0.0,0.0,0.0,0.0,0.0,0.0,0.0,0.0,0.0,0.0,0.0,0.0,0.0,0.0,0.0,0.0,0.0,0.0,0.0,0.0,0.0,0.0,0.0,0.0,0.0,0.0,0.0,0.0,0.0,0.0,0.0,0.0,0.0,0.0,0.0,0.0,0.0,0.0,0.0,0.0,0.0,0.0,0.0,0.0,0.0,0.0,0.0,0.0,0.0,0.0,0.0,0.0,0.0,0.0,0.0,0.0,0.0,0.0,0.0,0.0,0.0,0.0,0.0,0.0,0.0,0.0,0.0,0.0,0.0,0.0,0.0,0.0,0.0,0.0,0.0,0.0,0.0,0.0,0.0,0.0,0.0,0.0,-1.6366,-1.7211,-1.7982,-1.8163,-1.8797,-1.9479,-2.0026,-2.0437,-2.0373,-1.966,0.0,0.0,0.0,0.0,0.0,0.0,0.0,0.0,0.0,0.0,0.0,0.0,0.0,0.0,0.0,0.0,0.0,0.0,0.0,0.0,0.0,0.0,0.0,0.0,0.0,0.0,0.0,0.0,0.0,0.0,0.0,0.0,0.0,0.0,0.0,0.0,0.0,0.0,0.0,0.0,0.0,0.0,0.0,0.0,0.0,0.0,0.0,0.0,0.0,0.0,0.0,0.0,0.0,0.0,0.0,0.0,0.0,0.0,0.0,0.0,-0.6842,-0.8052,0.0,0.0,0.0,0.0,0.0,0.0,0.0,0.0,0.0,0.0,0.0,0.0,0.0,0.0,0.0,0.0,0.0,0.0,0.0,0.0,0.0,0.0,0.0,0.0,0.0,0.0,0.0,0.0,0.0,0.0,0.0,0.0,0.0,0.0,0.0,0.0,0.0,0.0,0.0,0.0,-1.7125,-1.8344,-1.8995,-1.8303,-1.8935,-1.9531,-1.9858,-1.988,-1.9837,-1.982,-1.9329,0.0,0.0,0.0,0.0,0.0,0.0,0.0,0.0,0.0,0.0,0.0,0.0,0.0,0.0,0.0,0.0,0.0,0.0,0.0,0.0,0.0,0.0,0.0,0.0,0.0,0.0,0.0,0.0,0.0,0.0,0.0,0.0,0.0,0.0,0.0,0.0,0.0,0.0,0.0,0.0,0.0,0.0,0.0,0.0,0.0,0.0,0.0,0.0,0.0,0.0,0.0,0.0,0.0,0.0,0.0,0.0,0.0,0.0,0.0,-0.6807,-0.7737,0.0,0.0,0.0,0.0,0.0,0.0,0.0,0.0,0.0,0.0,0.0,0.0,0.0,0.0,0.0,0.0,0.0,0.0,0.0,0.0,0.0,0.0,0.0,0.0,0.0,0.0,0.0,0.0,0.0,0.0,0.0,0.0,0.0,0.0,0.0,0.0,0.0,0.0,0.0,0.0,-1.7692,-1.8847,-1.9423,-1.8609,-1.9213,-1.9646,-1.968,-1.9732,-1.9729,-1.96,-1.9054,0.0,0.0,0.0,0.0,0.0,0.0,0.0,0.0,0.0,0.0,0.0,0.0,0.0,0.0,0.0,0.0,0.0,0.0,0.0,0.0,0.0,0.0,0.0,0.0,0.0,0.0,0.0,0.0,0.0,0.0,0.0,0.0,0.0,0.0,0.0,0.0,0.0,0.0,0.0,0.0,0.0,0.0,0.0,0.0,0.0,0.0,0.0,0.0,0.0,0.0,0.0,0.0,0.0,-0.5458,-0.5442,-0.5458,-0.5743,-0.5893,-0.5879,-0.7171,-0.7743,-0.7901,-1.0132,0.0,0.0,0.0,0.0,0.0,0.0,0.0,0.0,0.0,0.0,0.0,0.0,0.0,0.0,0.0,0.0,0.0,0.0,0.0,0.0,0.0,0.0,-1.2859,-1.3515,-1.3484,-1.3391,-1.3603,0.0,0.0,0.0,0.0,0.0,0.0,0.0,0.0,0.0,0.0,0.0,-1.8358,-1.8999,-1.9342,-1.8924,-1.9331,-1.9567,-1.9493,-1.9661,-1.9628,-1.932,-1.8935,-1.8819,0.0,0.0,0.0,0.0,0.0,0.0,0.0,0.0,0.0,0.0,0.0,0.0,0.0,0.0,0.0,0.0,0.0,0.0,0.0,0.0,0.0,0.0,0.0,0.0,0.0,0.0,0.0,0.0,0.0,0.0,0.0,0.0,0.1299,0.1298,0.0,0.0,0.0,0.0,0.0,0.0,0.0,0.0,0.0,0.0,0.0,0.0,0.0,-0.6221,-0.5877,-0.5572,-0.542,-0.5417,-0.4963,-0.4745,-0.482,-0.5268,-0.5509,-0.5591,-0.6286,0.0,-0.7949,-0.9729,0.0,0.0,0.0,0.0,0.0,0.0,0.0,0.0,0.0,0.0,0.0,0.0,0.0,0.0,0.0,0.0,0.0,0.0,0.0,0.0,0.0,0.0,-1.4052,-1.4195,-1.4172,-1.4136,-1.4201,-1.3839,-1.3513,-1.3513,-1.3574,-1.4116,0.0,0.0,0.0,0.0,0.0,0.0,-1.9401,-1.9059,-1.8783,-1.8904,-1.8857,-1.8905,-1.9092,-1.9274,-1.9356,-1.9301,-1.8935,-1.8871,-1.924,-1.9164,0.0,0.0,0.0,0.0,0.0,0.0,0.0,0.0,0.0,0.0,0.0,0.0,0.0,0.0,0.0,0.0,0.0,0.0,0.0,0.0,0.0,0.0,0.0,0.0,0.0,0.0,0.0,0.0,0.0,0.1402,0.13,0.1346,0.1307,0.0808,0.0,0.0,0.0,0.0,0.0,0.0,0.0,0.0,0.0,-0.626,-0.6035,-0.5893,-0.5794,-0.5441,-0.5153,-0.5048,-0.4827,-0.4689,-0.4678,-0.5016,-0.5133,-0.5131,-0.5612,-0.6168,-0.6917,-0.9381,-1.0701,-1.1437,0.0,0.0,0.0,0.0,-1.3936,-1.3713,-1.3894,-1.3857,-1.3731,-1.3731,0.0,0.0,0.0,0.0,0.0,0.0,0.0,-1.3113,-1.3391,-1.3473,-1.3553,-1.3986,-1.407,-1.4112,-1.425,-1.3981,-1.3778,-1.3907,-1.47,-1.5479,-1.6139,-1.7057,0.0,0.0,0.0,-1.9247,-1.9247,-1.916,-1.9085,-1.8984,-1.891,-1.8962,-1.9152,-1.9262,-1.9301,-1.9301,-1.9136,-1.9236,-1.9618,-1.963,-1.9689,0.0,0.0,0.0,0.0,0.0,0.0,0.0,0.0,0.0,0.0,0.0,0.0,0.0,0.0,0.0,0.0,0.0,0.0,0.0,0.0,0.0,0.0,0.0,0.0,0.0,0.0,0.0,0.0,0.1491,0.1416,0.1384,0.1385,0.1049,0.0,0.0,0.0,0.0,0.0,0.0,-0.4828,-0.5496,-0.5965,-0.6208,-0.5832,-0.5669,-0.5693,-0.53,-0.4992,-0.4782,-0.479,-0.4687,-0.4538,-0.4819,-0.4933,-0.4895,-0.5277,-0.5779,-0.6565,-0.9092,-1.0284,-1.0749,-1.3222,-1.4081,-1.3936,-1.4201,-1.4051,-1.3773,-1.4159,-1.4171,-1.4008,-1.4008,-1.3781,-1.3479,-1.3427,0.0,0.0,0.0,0.0,-1.2782,-1.3102,-1.3067,-1.3042,-1.3626,-1.383,-1.3897,-1.4142,-1.4304,-1.4448,-1.4627,-1.5625,-1.6454,-1.681,-1.8034,0.0,-1.9135,-1.9436,-1.9523,-1.9164,-1.9326,-1.9353,-1.9034,-1.9002,-1.9073,-1.9262,-1.9301,-1.9301,-1.9301,-1.9301,-1.9469,-1.9833,-1.9985,-2.0116,-2.0154,0.0,0.0,0.0,0.0,0.0,0.0,0.0,0.0,0.0,0.0,0.0,0.0,0.0,0.0,0.0,0.0,0.0,0.0,0.0,0.0,0.0,0.0,0.0,0.0,0.0,0.0,0.0,0.0,0.0,0.1429,0.144,0.0,0.0,0.0,0.0,-0.0664,-0.3159,-0.4368,-0.3649,-0.4936,-0.5797,-0.6027,-0.5887,-0.5691,-0.544,-0.5132,-0.493,-0.4782,-0.4665,-0.4534,-0.4396,-0.4675,-0.486,-0.4991,-0.5338,-0.6325,-0.7794,-0.8975,-0.9778,-1.045,-1.2972,-1.3918,-1.3936,-1.4201,-1.428,-1.4262,-1.4286,-1.4286,-1.428,-1.428,-1.3909,-1.3456,-1.3222,-1.3122,0.0,0.0,-1.3258,-1.3457,-1.3468,-1.3339,-1.322,-1.3476,-1.3589,-1.3667,-1.3878,-1.4867,-1.5704,-1.5704,-1.5589,-1.6129,-1.8318,0.0,-1.8771,-2.0371,-1.9974,-1.9564,-1.9742,-1.9474,-1.9217,-1.9007,-1.9002,-1.9073,-1.9262,-1.9301,-1.9301,-1.9301,-1.9301,-1.939,-1.9597,-2.0235,-2.0644,-2.0837,-2.0216,0.0,0.0,0.0,0.0,0.0,0.0,0.0,0.0,0.0,0.0,0.0,0.0,0.0,0.0,0.0,0.0,0.0,0.0,0.0,0.0,0.0,0.0,0.0,0.0,0.0,0.0,0.0,0.0,0.1681,0.1664,0.0,0.1616,0.0593,0.0046,0.0237,-0.1924,-0.3402,-0.3605,-0.4909,-0.5868,-0.6345,-0.612,-0.5917,-0.5796,-0.5331,-0.5014,-0.4753,-0.4689,-0.4551,-0.4346,-0.4439,-0.4717,-0.5134,-0.5265,-0.6418,-0.8271,-0.9237,-1.0348,-1.16,-1.3455,-1.4159,-1.4171,-1.4262,-1.4298,-1.4298,-1.4298,-1.4298,-1.425,-1.4118,-1.3909,-1.3689,-1.345,-1.3253,-1.3109,-1.3109,-1.308,-1.3055,-1.3055,-1.2874,-1.2761,-1.2998,-1.3095,-1.3191,-1.3608,-1.4545,-1.5561,-1.6593,-1.7196,-1.778,-1.832,-1.9183,-1.9909,-2.0261,-2.0386,-2.0448,-2.0469,-2.0101,-1.979,-1.9598,-1.9347,-1.9222,-1.9301,-1.9301,-1.9301,-1.9301,-1.9301,-1.946,-1.9794,-2.002,-2.0401,-2.0905,-2.0367,-2.0002,0.0,0.0,0.0,0.0,0.0,0.0,0.0,0.0,0.0,0.0,0.0,0.0,0.0,0.0,0.0,0.0,0.0,0.0,0.0,0.0,0.0,0.0,0.0,0.0,0.0,0.2326,0.2278,0.2059,0.1987,0.2052,0.2312,0.1369,0.0963,0.1471,-0.0962,-0.2666,-0.3019,-0.4621,-0.5777,-0.6398,-0.6195,-0.5975,-0.5747,-0.5393,-0.5008,-0.4663,-0.4694,-0.4581,-0.4346,-0.4377,-0.4717,-0.5277,-0.5277,-0.6673,-0.9016,-0.9725,-1.1076,-1.2784,-1.3785,-1.4165,-1.4177,-1.4262,-1.4298,-1.4298,-1.4298,-1.4298,-1.425,-1.3877,-1.3786,-1.369,-1.3346,-1.3152,-1.3001,-1.3001,-1.291,-1.2813,-1.2813,-1.2527,-1.2359,-1.2634,-1.2892,-1.3245,-1.3703,-1.4909,-1.6267,-1.739,-1.8195,-1.8754,-1.8999,-1.9977,-2.0657,-2.0545,-2.09,-2.1087,-2.0911,-2.0564,-2.0207,-1.993,-1.9549,-1.9301,-1.9301,-1.9301,-1.9301,-1.9301,-1.9301,-1.9499,-2.002,-1.9887,-2.0227,-2.1098,-2.0649,-2.0125,-1.9604,0.0,0.0,0.0,0.0,0.0,0.0,0.0,0.0,0.0,0.0,0.0,0.0,0.0,0.0,0.0,0.0,0.0,0.0,0.0,0.0,0.0,0.0,0.0,0.287,0.2828,0.2719,0.2552,0.2332,0.2316,0.2596,0.1572,0.1491,0.3,-0.0321,-0.2207,-0.1703,-0.4034,-0.5576,-0.5989,-0.6002,-0.5751,-0.5244,-0.5194,-0.4999,-0.4625,-0.4667,-0.4614,-0.4396,-0.453,-0.4958,-0.5538,-0.5538,-0.7221,-1.0057,-1.0343,-1.1809,-1.3906,-1.3918,-1.3918,-1.3948,-1.4189,-1.428,-1.4274,-1.4274,-1.4274,-1.4178,-1.3655,-1.3468,-1.342,-1.2942,-1.2802,-1.2802,-1.2807,-1.2807,-1.2802,-1.2802,-1.2445,-1.2143,-1.2386,-1.3154,-1.3856,-1.4091,-1.6014,-1.7807,-1.8155,-1.8336,-1.8932,-2.0456,-2.0699,-2.088,-2.1347,-2.1401,0.0,-2.1119,-2.0769,-2.0365,-1.993,-1.9549,-1.9301,-1.9301,-1.9301,-1.9301,-1.9301,-1.9301,-1.9618,-2.0264,-1.986,-2.0223,-2.1454,-2.1015,-2.042,-1.9624,0.0,0.0,0.0,0.0,0.0,0.0,0.0,0.0,0.0,0.0,0.0,0.0,0.0,0.0,0.0,0.0,0.0,0.0,0.0,0.0,0.0,0.3918,0.3945,0.2956,0.2951,0.3029,0.2822,0.2604,0.2608,0.2926,0.2646,0.2666,0.3062,0.0609,-0.112,-0.1655,-0.394,-0.5635,-0.6409,-0.6349,-0.6093,-0.5653,-0.5449,-0.51,-0.4671,-0.4698,-0.4649,-0.4536,-0.4561,-0.5147,-0.6063,-0.6063,-0.7903,-1.0891,-1.0947,-1.2107,-1.3924,-1.4117,-1.4189,-1.4177,-1.4057,-1.3894,-1.3731,-1.3731,-1.3731,-1.3638,-1.3315,-1.3217,-1.3165,-1.2883,-1.2802,-1.2788,-1.2813,-1.2641,-1.2511,-1.2511,-1.2156,-1.2036,-1.29,-1.3409,-1.4004,-1.5085,-1.6677,-1.7929,-1.8224,-1.8898,-1.9676,-2.0558,-2.0979,-2.1257,-2.1392,-2.1526,-2.1496,-2.1163,-2.0769,-2.0365,-1.993,-1.9549,-1.9301,-1.9301,-1.9301,-1.9301,-1.9301,-1.9578,-1.9824,-1.9981,-2.0217,-2.0555,-2.1059,-2.0951,-2.0582,0.0,0.0,0.0,0.0,0.0,0.0,0.0,0.0,0.0,0.0,0.0,0.0,0.0,0.0,0.0,0.0,0.0,0.0,0.0,0.0,0.0,0.0,0.4594,0.4435,0.3826,0.3513,0.3317,0.3227,0.3015,0.2928,0.3055,0.3081,0.3101,0.3063,0.1367,-0.0189,-0.1494,-0.3406,-0.5008,-0.6131,-0.6305,-0.6205,-0.5729,-0.5577,-0.5299,-0.4852,-0.4794,-0.4714,-0.463,-0.4665,-0.5176,-0.5968,-0.6063,-0.7852,-1.0614,-1.0714,-1.1932,-1.3767,0.0,0.0,0.0,0.0,-1.3646,-1.3513,-1.3513,-1.3513,-1.3468,-1.319,-1.3053,-1.2945,-1.2685,-1.259,-1.2524,-1.252,-1.2413,-1.2305,-1.2491,-1.2252,-1.2231,-1.3065,-1.3907,-1.4738,-1.5593,-1.7059,-1.8322,-1.8608,-1.9251,0.0,-2.0421,-2.0846,-2.1184,-2.1263,-2.1386,-2.1284,-2.0915,-2.0521,-2.0149,-1.9912,-1.9549,-1.9301,-1.9301,-1.9301,0.0,0.0,0.0,-1.9944,-2.0024,-2.0739,0.0,0.0,0.0,0.0,0.0,0.0,0.0,0.0,-2.2853,-2.359,0.0,0.0,0.0,0.0,0.0,0.0,0.0,0.0,0.0,0.0,0.0,0.0,0.0,0.0,0.0,0.0,0.5277,0.4961,0.501,0.43,0.3721,0.3631,0.3425,0.3236,0.305,0.3061,0.3075,0.3018,0.1979,0.0571,-0.1238,-0.2662,0.0,0.0,0.0,-0.6137,-0.5636,-0.5636,-0.5435,-0.5094,-0.4881,-0.4775,-0.4696,-0.4771,-0.5059,-0.5518,-0.5756,-0.7359,-0.9835,-1.0084,-1.1507,-1.3495,-1.3761,-1.3701,-1.3471,-1.3471,-1.3453,-1.3423,-1.3423,0.0,0.0,-1.3146,-1.292,-1.27,-1.245,-1.2233,-1.2102,-1.2083,-1.2073,-1.2148,-1.2507,-1.2462,-1.2501,-1.3029,-1.4484,-1.5779,-1.591,-1.7399,-1.887,-1.9158,-1.9384,-1.9683,-2.0099,-2.0497,-2.0818,-2.0936,-2.1007,-2.0879,-2.0438,-2.0076,-1.9875,-1.982,-1.9522,0.0,-1.9301,-1.9301,-1.946,-1.9824,-1.9902,-2.0043,-2.0301,-2.124,-2.1404,-2.0679,-2.1014,-2.1099,-2.0906,-2.1634,-2.2322,-2.3032,-2.392,-2.48,0.0,0.0,0.0,0.0,0.0,0.0,0.0,0.0,0.0,0.0,0.0,0.0,0.0,0.0,0.0,0.6589,0.6525,0.6251,0.5144,0.4832,0.4523,0.3901,0.3516,0.3282,0.3236,0.3155,0.3091,0.308,0.2137,0.0814,-0.0922,-0.2196,-0.37,-0.5532,-0.5889,-0.6042,-0.5942,-0.5687,-0.5435,-0.5092,-0.4822,0.0,-0.46,-0.4616,-0.4901,-0.5408,-0.5641,-0.7265,-0.9835,-1.0084,-1.1369,-1.3179,-1.3489,-1.3429,-1.32,-1.32,-1.3055,-1.2862,-1.2862,-1.2862,-1.2862,-1.2775,-1.2646,-1.247,-1.242,-1.2215,0.0,-1.2086,-1.1954,-1.1813,-1.1852,-1.1981,-1.2347,-1.3327,-1.4776,-1.6175,-1.7107,-1.8296,-1.921,-1.9283,-1.9341,-1.9478,-1.9889,-2.0291,-2.0446,-2.0168,-2.0429,-2.0365,-1.9632,-1.9769,-1.9756,-1.9457,-1.9347,-1.9301,-1.9301,-1.9301,-1.9341,-1.942,-1.9902,-2.0459,-2.0998,-2.1193,-2.1242,-2.1084,-2.1165,-2.1099,-2.0906,-2.2327,-2.3016,-2.3043,-2.4249,-2.5335,0.0,0.0,0.0,0.0,0.0,0.0,0.0,0.0,0.0,0.0,0.0,0.8383,0.8383,0.0,0.8605,0.8037,0.7603,0.7136,0.665,0.5675,0.4743,0.3991,0.3744,0.3557,0.3328,0.325,0.3179,0.3052,0.2604,0.1665,0.0095,-0.1102,-0.2517,-0.4156,-0.5187,-0.5681,-0.5681,-0.5679,-0.5506,-0.5213,-0.4925,-0.471,-0.4621,-0.4621,-0.4782,-0.5113,-0.5295,-0.6544,-0.8562,-1.0001,-1.1508,-1.2928,-1.3055,-1.3031,-1.2916,-1.2916,-1.2825,-1.2705,-1.2705,-1.2705,-1.2705,-1.2705,-1.2577,-1.2386,-1.2229,-1.222,-1.2194,-1.2098,-1.213,-1.2252,-1.2476,-1.2635,-1.2918,-1.3724,-1.4838,-1.5992,-1.6992,-1.7965,-1.8767,-1.9222,-1.9301,-1.9366,-1.9577,-1.9778,-1.9916,-1.9884,-2.0058,-1.9957,-1.9384,-1.9485,-1.954,-1.932,-1.9301,-1.9301,-1.9301,-1.9305,-1.9388,-1.9581,-2.0053,-2.0582,-2.1195,-2.1205,-2.1167,-2.1061,-2.1061,-2.0935,-2.0741,-2.2446,-2.3143,-2.3032,-2.453,-2.58,0.0,0.0,0.0,0.0,0.0,0.0,0.0,0.8871,0.8374,0.8675,0.8701,0.8734,0.91,0.9144,0.916,0.9283,0.842,0.7845,0.8109,0.6647,0.5186,0.4304,0.4048,0.3813,0.34,0.3359,0.3275,0.2992,0.3044,0.2444,0.1062,0.0047,-0.1139,-0.266,-0.4229,-0.5138,-0.5377,-0.5616,-0.5606,-0.5346,-0.5014,-0.477,-0.4614,-0.4565,-0.4619,-0.4732,-0.5228,-0.6074,-0.7342,-0.9696,-1.1348,-1.2357,-1.2357,-1.2528,-1.2705,-1.2705,-1.2705,-1.2705,-1.2705,-1.2705,-1.2705,-1.2705,-1.2577,-1.2357,-1.206,-1.212,-1.2229,-1.1958,-1.2194,-1.265,-1.2899,-1.3184,-1.347,-1.3756,-1.4566,-1.5505,-1.6392,-1.7194,-1.8047,-1.9016,-1.9191,-1.921,-1.9292,-1.9301,-1.9393,-1.9619,-1.9719,-1.9659,-1.9246,-1.9256,-1.9301,-1.9301,-1.9301,-1.9265,-1.927,-1.9153,-1.9297,-1.9683,-1.9917,-2.0262,-2.0819,-2.0829,-2.0803,-2.069,-2.07,-2.0653,-2.0605,-2.2339,-2.3121,-2.3032,-2.4791,-2.6021,0.9817,0.9762,0.9854,1.0359,0.9794,0.945,0.0,0.9857,0.8908,0.8969,0.9228,0.9317,0.8873,0.9121,0.9393,0.9327,0.8999,0.8552,0.7921,0.7658,0.6908,0.5416,0.4446,0.3825,0.3599,0.3336,0.3159,0.2929,0.2982,0.2501,0.1339,0.0988,-0.019,-0.2375,-0.3275,-0.4275,-0.5377,-0.5616,-0.5662,-0.5563,-0.5055,-0.4778,-0.4694,-0.442,-0.4324,-0.4448,-0.5949,-0.6918,-0.7573,-0.8869,-1.013,-1.1176,-1.1176,-1.1832,-1.2705,-1.2705,-1.2705,-1.2705,-1.2705,-1.2705,-1.2705,-1.2705,-1.2577,-1.2364,-1.2099,-1.1897,-1.1735,-1.1458,-1.1716,-1.2006,-1.162,-1.2445,-1.3292,-1.292,-1.3838,-1.5043,-1.5967,-1.6507,-1.7221,-1.8513,-1.8779,-1.8889,-1.9246,-1.9301,-1.9201,-1.8889,-1.9146,-1.9228,-1.8834,-1.9081,-1.9301,-1.9301,-1.9301,-1.9233,-1.9067,-1.8704,-1.8656,-1.9072,-1.9118,-1.9248,-1.9497,-1.9507,-1.9683,-2.0018,-2.0028,-2.0224,-2.0605,-2.2339,-2.3121,-2.3032,-2.4791,-2.5815,1.1178,1.1681,1.2061,1.2304,1.2012,1.1762,1.2054,1.1335,1.04,0.9836,0.9909,0.9888,0.92,0.931,0.957,0.9689,0.9476,0.9209,0.8894,0.8368,0.7797,0.7095,0.5811,0.4656,0.3857,0.3587,0.3318,0.3094,0.2985,0.2727,0.2271,0.1602,0.0781,-0.0138,-0.1789,-0.3073,-0.3946,-0.4821,-0.5352,-0.5488,-0.5262,-0.4968,-0.4705,-0.4569,-0.4612,-0.4743,-0.5628,-0.6558,-0.7533,-0.8006,-0.8853,-0.9909,-1.0503,-1.1015,-1.1457,-1.22,-1.2475,-1.2451,-1.23,-1.2246,-1.2252,-1.2375,-1.2287,-1.2105,-1.2119,-1.2168,-1.2158,-1.1916,-1.2161,-1.2505,-1.2348,-1.2729,-1.3169,-1.313,-1.3424,-1.4109,-1.5585,-1.5943,-1.6433,-1.8028,-1.8329,-1.8383,-1.8586,-1.8806,-1.8907,-1.8742,-1.9045,-1.9246,-1.9072,-1.9201,-1.9219,-1.899,-1.8867,-1.8704,-1.8479,-1.8327,-1.8377,-1.8737,-1.8675,-1.8863,-1.9277,-1.9287,-1.9375,-1.9541,-1.9551,-2.0044,-2.1073,-2.2375,-2.3365,-2.4011,-2.5241,-2.581,1.2195,1.2854,1.3363,1.3441,1.3286,1.3076,1.3006,1.2274,1.1458,1.0826,1.0592,1.0309,0.9727,0.9625,0.9653,0.9842,0.974,0.9602,0.9602,0.9078,0.8596,0.8245,0.7299,0.6064,0.4525,0.3944,0.3542,0.3227,0.305,0.2963,0.292,0.2199,0.1705,0.1391,-0.0627,-0.2013,-0.2683,-0.4202,-0.5099,-0.528,-0.5371,-0.524,-0.4882,-0.475,-0.4792,-0.4921,-0.5161,-0.5852,-0.6896,-0.7201,-0.7971,-0.8983,-1.0066,-1.0628,-1.0899,-1.1763,-1.2143,-1.218,-1.1986,-1.188,-1.192,-1.208,-1.2,-1.1908,-1.1994,-1.2144,-1.2273,-1.2074,-1.2309,-1.2637,-1.2603,-1.2732,-1.2902,-1.2981,-1.282,-1.3146,-1.4751,-1.4842,-1.5199,-1.716,-1.7566,-1.7676,-1.8026,-1.8319,-1.8512,-1.8512,-1.8788,-1.9017,-1.9127,-1.9045,-1.8861,-1.8653,-1.8406,-1.8226,-1.8176,-1.8043,-1.8107,-1.8432,-1.8337,-1.8482,-1.8926,-1.8936,-1.8994,-1.9102,-1.9111,-1.9805,-2.1167,-2.2339,-2.3451,-2.4496,-2.551,-2.584,1.2789,1.2606,1.271,1.302,1.2609,1.2317,1.3014,1.2262,1.1517,1.1875,1.1185,1.0495,1.0462,0.9973,0.9606,0.9611,0.9608,0.9602,0.9602,0.982,0.9515,0.8332,0.8735,0.8181,0.5863,0.4569,0.3678,0.3227,0.3183,0.3094,0.292,0.2873,0.2424,0.1436,0.0,-0.1208,-0.2104,-0.4026,-0.501,-0.501,-0.528,-0.5371,-0.5371,-0.4928,-0.4705,-0.4699,-0.478,-0.4992,-0.5368,-0.647,-0.7604,-0.8705,-0.9806,-1.0904,-1.181,-1.1603,-1.1676,-1.1892,-1.1886,-1.188,-1.188,-1.1926,-1.188,-1.1832,-1.1579,-1.1563,-1.1632,-1.1534,-1.1727,-1.1866,-1.1618,-1.2066,-1.252,-1.2065,-1.1958,-1.2209,-1.3165,-1.3028,-1.3374,-1.5723,-1.6164,-1.6586,-1.786,-1.81,-1.81,-1.81,-1.8118,-1.8264,-1.8678,-1.8394,-1.823,-1.8388,-1.8061,-1.7962,-1.8263,-1.7941,-1.7803,-1.7993,-1.7993,-1.8037,-1.8047,-1.8047,-1.8208,-1.8617,-1.8617,-1.9273,-2.0623,-2.2138,-2.3233,-2.3979,-2.5479,-2.598,1.3215,1.3351,1.3469,1.3427,1.3332,1.3267,1.3442,1.3206,1.2889,1.2493,1.2357,1.22,1.1868,1.1054,1.0543,1.0932,1.037,0.982,0.9646,0.9946,0.9946,0.9209,0.9189,0.8546,0.6921,0.5748,0.4634,0.3545,0.3317,0.3094,0.292,0.292,0.2739,0.2424,0.13,0.0,-0.1429,-0.286,-0.4158,-0.528,-0.5371,-0.5416,-0.5369,-0.4944,-0.4869,-0.5036,-0.4974,-0.5094,-0.5383,-0.5758,-0.6059,-0.6495,-0.8209,-0.9089,-0.9514,-1.0787,-1.131,-1.1383,-1.1383,-1.1383,-1.1383,-1.1536,-1.1459,-1.1403,-1.1583,-1.1658,-1.167,-1.1658,-1.1809,-1.1942,-1.1735,-1.1872,-1.2037,-1.1933,-1.1778,-1.2056,-1.369,-1.3763,-1.415,-1.6236,-1.6625,-1.6785,-1.7222,-1.7532,-1.7798,-1.8045,-1.8091,-1.8136,-1.8264,-1.7963,-1.7742,-1.7815,-1.7668,-1.7644,-1.7748,-1.7846,-1.793,-1.8008,-1.8008,-1.8008,-1.8008,-1.8008,-1.8076,-1.8188,-1.8775,-1.976,-2.1126,-2.225,-2.3364,-2.4513,-2.5246,-2.5528,1.3801,1.3939,1.3937,1.3409,1.3486,1.3695,1.368,1.378,1.3779,1.3334,1.3228,1.313,1.2976,1.1772,1.099,1.1607,1.0723,0.9952,0.985,1.0207,1.0294,0.9907,0.992,0.9414,0.8125,0.7034,0.5726,0.3902,0.351,0.3229,0.3006,0.2918,0.292,0.292,0.1524,0.0224,-0.0849,-0.2547,-0.4055,-0.531,-0.5442,-0.5422,-0.5252,-0.5045,-0.4966,-0.5009,-0.4944,-0.502,-0.5221,-0.5621,-0.5749,-0.5829,-0.7513,-0.8374,-0.8803,-1.0088,-1.0807,-1.1111,-1.1111,-1.1111,-1.1111,-1.126,-1.126,-1.126,-1.1521,-1.1632,-1.1706,-1.1781,-1.1855,-1.19,-1.1866,-1.184,-1.177,-1.175,-1.1508,-1.1671,-1.2937,-1.301,-1.3438,-1.5465,-1.5851,-1.607,-1.6795,-1.711,-1.7294,-1.7387,-1.756,-1.7734,-1.788,-1.7541,-1.7355,-1.7461,-1.7483,-1.7539,-1.7676,-1.7872,-1.8008,-1.8008,-1.8008,-1.8008,-1.8008,-1.8008,-1.8008,-1.8008,-1.8854,-1.9909,-2.1127,-2.2168,-2.3337,-2.4512,-2.492,-2.5182,1.4547,1.4267,1.4128,1.306,1.316,1.3549,1.3777,1.3972,1.4155,1.4372,1.3798,1.3404,1.3729,1.2241,1.1151,1.1711,1.0779,1.0116,1.0269,1.0511,1.0598,1.0337,1.089,1.0745,0.9358,0.8398,0.6848,0.439,0.3854,0.3497,0.3227,0.3006,0.292,0.292,0.0851,-0.0268,-0.0402,-0.2994,-0.4643,-0.5193,-0.5525,-0.5464,-0.5045,-0.5139,-0.5042,-0.4731,-0.4788,-0.4821,-0.4892,-0.5986,-0.6426,-0.6542,-0.7655,-0.8685,-0.9523,-0.9631,-1.0276,-1.1111,-1.1111,-1.1111,-1.1111,-1.1111,-1.1223,-1.1372,-1.1372,-1.1521,-1.1744,-1.1929,-1.1855,-1.1781,-1.1946,-1.1835,-1.1644,-1.1409,-1.1174,-1.102,-1.1126,-1.0992,-1.1501,-1.3633,-1.4104,-1.4728,-1.6559,-1.6881,-1.6718,-1.6208,-1.6513,-1.6991,-1.7385,-1.7128,-1.7047,-1.7436,-1.7505,-1.7632,-1.7974,-1.7974,-1.8008,-1.8008,-1.8008,-1.8008,-1.8008,-1.8008,-1.8008,-1.8008,-1.8854,-1.9716,-2.059,-2.1981,-2.3118,-2.3966,-2.4519,-2.4928,1.531,1.4747,1.4171,1.4129,1.3823,1.3605,1.4006,1.4098,1.4156,1.4355,1.4429,1.46,1.4975,1.4241,1.3373,1.2915,1.2275,1.1489,1.0434,1.0511,1.0598,1.0337,1.0761,1.0675,0.966,0.9112,0.8022,0.6028,0.4482,0.3497,0.3227,0.3006,0.292,0.292,0.2333,0.121,-0.0626,-0.3304,-0.4889,-0.5331,-0.5447,-0.5431,-0.5285,-0.5224,-0.5058,-0.4867,-0.4914,-0.4862,-0.4742,-0.5218,-0.5398,-0.5553,-0.7395,-0.8271,-0.8651,-1.0164,-1.0881,-1.1111,-1.1111,-1.1111,-1.1111,-1.1111,-1.1149,-1.1186,-1.1186,-1.1409,-1.1706,-1.1744,-1.1966,-1.2067,-1.1778,-1.1654,-1.153,-1.1064,-1.0822,-1.0896,-1.1617,-1.2326,-1.3259,-1.4543,-1.5557,-1.6201,-1.6276,-1.6401,-1.6398,-1.6264,-1.6105,-1.6114,-1.6433,-1.6849,-1.7166,-1.7279,-1.751,-1.7681,-1.7784,-1.7896,-1.8008,-1.8008,-1.8008,-1.8008,-1.8008,-1.8008,-1.8008,-1.8008,-1.8854,-1.9716,-2.059,-2.1619,-2.2528,-2.3333,-2.3941,-2.4249,1.554,1.5139,1.4682,1.4584,1.4005,1.3622,1.4284,1.4174,1.4063,1.4329,1.4743,1.5149,1.5536,1.4927,1.4255,1.3728,1.2862,1.1942,1.0909,1.075,1.0684,1.0603,1.0848,1.0845,1.0428,0.988,0.8837,0.721,0.5422,0.4119,0.3542,0.3186,0.3038,0.3009,0.2388,0.0967,-0.1348,-0.3137,-0.4309,-0.4876,-0.5217,-0.5355,-0.5214,-0.5195,-0.5122,-0.4954,-0.4967,-0.4937,-0.4859,-0.4937,-0.5018,-0.5132,-0.6282,-0.728,-0.8232,-0.9367,-1.0351,-1.1111,-1.1111,-1.1111,-1.1111,-1.1111,-1.1149,-1.1223,-1.1223,-1.1521,-1.1818,-1.1818,-1.1955,-1.2078,-1.1803,-1.1629,-1.1421,-1.1015,-1.0784,-1.0795,-1.1349,-1.1806,-1.2516,-1.3924,-1.5087,-1.5858,-1.5909,-1.598,-1.5949,-1.5711,-1.5735,-1.5748,-1.5674,-1.6418,-1.6899,-1.6778,-1.7154,-1.7393,-1.7286,-1.7551,-1.7734,-1.7734,-1.791,-1.8008,-1.8008,-1.8008,-1.8008,-1.8008,-1.8854,-1.9529,-2.0042,-2.1302,-2.2137,-2.258,-2.3281,-2.3753,1.5582,1.5436,1.5303,1.479,1.4125,1.3818,1.4571,1.4367,1.4119,1.4369,1.4881,1.5339,1.5617,1.5046,1.4482,1.4289,1.3105,1.2043,1.1591,1.103,1.0776,1.0965,1.1004,1.1078,1.1339,1.0558,0.9508,0.8147,0.6589,0.5164,0.3929,0.3482,0.3181,0.3071,0.1726,0.0085,-0.1795,-0.2586,-0.334,-0.4076,-0.49,-0.5173,-0.5021,-0.5118,-0.511,-0.4976,-0.4979,-0.4979,-0.4976,-0.4976,-0.4979,-0.5018,-0.5132,-0.6282,-0.7889,-0.8042,-0.9291,-1.0881,-1.0881,-1.0999,-1.1111,-1.1111,-1.1223,-1.1403,-1.1366,-1.1619,-1.1944,-1.1898,-1.186,-1.1839,-1.1799,-1.1557,-1.1288,-1.1078,-1.0849,-1.0672,-1.0708,-1.0573,-1.0923,-1.2606,-1.3801,-1.473,-1.5317,-1.5542,-1.5464,-1.4992,-1.5381,-1.5562,-1.5087,-1.5951,-1.6468,-1.6262,-1.6718,-1.6967,-1.6736,-1.708,-1.7295,-1.7295,-1.7637,-1.7842,-1.7842,-1.7842,-1.7871,-1.793,-1.8662,-1.9147,-1.9299,-2.0942,-2.1784,-2.1908,-2.2732,-2.3371,1.5986,1.5566,1.5231,1.5443,1.5156,1.482,1.4867,1.5093,1.518,1.4724,1.5061,1.5486,1.5509,1.5614,1.5458,1.467,1.3879,1.3117,1.2238,1.1311,1.0776,1.0965,1.1001,1.1152,1.1587,1.1261,1.0562,0.9397,0.8068,0.6297,0.393,0.3582,0.333,0.3006,0.1648,0.0668,0.0204,-0.1548,-0.2737,-0.3301,-0.415,-0.4737,-0.5018,-0.5037,-0.4917,-0.4779,-0.4937,-0.4898,-0.474,-0.474,-0.4859,-0.5054,-0.5735,-0.6307,-0.6888,-0.7774,-0.8836,-0.9863,-0.9863,-1.0395,-1.1111,-1.1111,-1.1223,-1.1366,-1.1143,-1.1363,-1.1605,-1.1329,-1.137,-1.1443,-1.1209,-1.1102,-1.1009,-1.0736,-1.0508,-1.036,-1.0374,-1.1043,-1.1808,-1.2542,-1.3737,-1.4506,-1.4045,-1.4643,-1.5175,-1.508,-1.4882,-1.474,-1.4768,-1.5723,-1.6437,-1.636,-1.6628,-1.6743,-1.6707,-1.6775,-1.6814,-1.6814,-1.6882,-1.6921,-1.6921,-1.6921,-1.7129,-1.749,-1.7655,-1.8233,-1.9299,-2.0333,-2.1207,-2.1908,-2.2732,-2.3158,1.59,1.5566,1.5291,1.5691,1.501,1.4348,1.4879,1.4815,1.4635,1.4696,1.5206,1.5655,1.5655,1.5841,1.5732,1.4926,1.4106,1.3315,1.2659,1.1466,1.0775,1.111,1.1076,1.1138,1.144,1.1395,1.0794,0.9625,0.8384,0.6822,0.4857,0.3966,0.3383,0.2977,0.2245,0.1613,0.1035,-0.0199,-0.1345,-0.2503,-0.3322,-0.4042,-0.4579,-0.4808,-0.4811,-0.4715,-0.4855,-0.4849,-0.4793,-0.489,-0.5032,-0.5225,-0.5518,-0.6043,-0.6662,-0.7088,-0.7896,-0.8725,-0.8798,-0.948,-1.0314,-1.0314,-1.0732,-1.1236,-1.1108,-1.1227,-1.141,-1.124,-1.1196,-1.1169,-1.1029,-1.0914,-1.0767,-1.0626,-1.053,-1.0434,-1.0333,-1.0693,-1.1358,-1.2358,-1.3091,-1.37,-1.4101,-1.4572,-1.4872,-1.479,-1.4784,-1.4764,-1.4843,-1.5452,-1.5853,-1.5771,-1.6127,-1.6289,-1.6034,-1.625,-1.6387,-1.6387,-1.657,-1.6697,-1.6697,-1.6697,-1.6804,-1.7041,-1.7051,-1.7333,-1.7932,-1.8807,-1.9796,-2.0865,-2.1704,-2.2478,1.577,1.5537,1.5428,1.5683,1.4906,1.4239,1.4837,1.4694,1.4466,1.4715,1.53,1.5805,1.5805,1.5857,1.572,1.5217,1.4289,1.3453,1.3009,1.1789,1.101,1.1206,1.1053,1.0973,1.1059,1.1178,1.0792,0.97,0.8302,0.6834,0.532,0.4198,0.3387,0.2946,0.284,0.2379,0.1568,0.1013,0.0039,-0.1371,-0.2373,-0.3228,-0.3967,-0.4433,-0.4683,-0.4734,-0.4765,-0.4831,-0.4882,-0.491,-0.509,-0.5278,-0.5087,-0.5544,-0.6328,-0.6222,-0.681,-0.7646,-0.7947,-0.8685,-0.9561,-0.9787,-1.0464,-1.1124,-1.1015,-1.1087,-1.1179,-1.1064,-1.0918,-1.0804,-1.0836,-1.0703,-1.0561,-1.0593,-1.0593,-1.0561,-1.0403,-1.0371,-1.0674,-1.1803,-1.2174,-1.2696,-1.3983,-1.4321,-1.4449,-1.4476,-1.4714,-1.4911,-1.4941,-1.5167,-1.5284,-1.5215,-1.5643,-1.5811,-1.5439,-1.5723,-1.5948,-1.5948,-1.626,-1.6424,-1.6424,-1.6424,-1.6463,-1.656,-1.656,-1.6609,-1.6697,-1.7564,-1.8595,-1.9744,-2.0616,-2.172,1.5826,1.5693,1.5582,1.5268,1.5736,1.6008,1.4894,1.5713,1.6341,1.5119,1.5358,1.5805,1.5805,1.5645,1.5566,1.563,1.4886,1.411,1.3503,1.2577,1.1722,1.1114,1.0778,1.0553,1.039,1.0769,1.074,0.9998,0.8039,0.6054,0.4149,0.3703,0.3383,0.3072,0.2846,0.2608,0.2392,0.1571,0.0881,0.0352,-0.1187,-0.2345,-0.3129,-0.3836,-0.4397,-0.4774,-0.475,-0.4761,-0.4774,-0.4494,-0.4603,-0.4926,-0.474,-0.4879,-0.5239,-0.5251,-0.5809,-0.6751,-0.7566,-0.849,-0.9485,-1.0395,-1.0999,-1.1279,-1.0791,-1.077,-1.0816,-1.0275,-1.0097,-1.0117,-1.0315,-1.0359,-1.0371,-1.0561,-1.0593,-1.0593,-1.0593,-1.0561,-1.0561,-1.0523,-1.1076,-1.1787,-1.242,-1.313,-1.3821,-1.4417,-1.4545,-1.4595,-1.4715,-1.4902,-1.5088,-1.5186,-1.5371,-1.5459,-1.5391,-1.5449,-1.5469,-1.5469,-1.5508,-1.5537,-1.5537,-1.5537,-1.5723,-1.6153,-1.6153,-1.6328,-1.6697,-1.7564,-1.8393,-1.9179,-2.0077,-2.1173,1.6567,1.6111,1.5649,1.5401,1.5247,1.5122,1.5001,1.5232,1.5464,1.5288,1.5566,1.5805,1.5805,1.5726,1.5662,1.5582,1.4795,1.4113,1.4001,1.2788,1.1821,1.1456,1.0961,1.062,1.0476,1.0316,0.9882,0.9101,0.8455,0.7249,0.5224,0.4228,0.3643,0.3415,0.3147,0.2935,0.2739,0.2156,0.1524,0.09,0.0,-0.1061,-0.2236,-0.3081,-0.3701,-0.4232,-0.4539,-0.4704,-0.4684,-0.4572,-0.4721,-0.5,-0.4756,-0.4902,-0.5206,-0.4989,-0.5234,-0.5702,-0.6018,-0.6773,-0.7744,-0.8496,-0.9348,-1.0135,-1.0557,-1.0588,-1.0453,-1.0293,-1.0206,-1.0238,-1.0434,-1.0466,-1.0498,-1.0593,-1.0593,-1.0593,-1.0593,-1.0593,-1.0713,-1.1132,-1.1841,-1.2612,-1.3213,-1.3923,-1.4458,-1.4606,-1.4606,-1.4636,-1.4686,-1.4872,-1.5029,-1.5059,-1.5274,-1.541,-1.541,-1.541,-1.541,-1.541,-1.541,-1.541,-1.541,-1.541,-1.5498,-1.5664,-1.5674,-1.5762,-1.5907,-1.6277,-1.6995,-1.8078,-1.843,-1.9285,1.7013,1.6467,1.5978,1.5846,1.527,1.4883,1.5578,1.5381,1.5145,1.5512,1.5687,1.5805,1.5805,1.5761,1.5655,1.5426,1.5033,1.4623,1.4361,1.324,1.2326,1.1947,1.1114,1.0499,1.0326,0.988,0.9367,0.878,0.887,0.8116,0.6318,0.5133,0.4231,0.3701,0.3443,0.3179,0.2913,0.2604,0.2099,0.1459,0.0982,0.0144,-0.1025,-0.1836,-0.2704,-0.3511,-0.39,-0.4254,-0.4585,-0.4572,-0.4728,-0.4934,-0.4769,-0.49,-0.5174,-0.4972,-0.498,-0.5139,-0.5272,-0.5806,-0.6498,-0.7196,-0.7916,-0.8735,-0.9772,-1.0087,-1.0122,-1.0135,-1.0135,-1.018,-1.0371,-1.0466,-1.053,-1.0593,-1.0593,-1.0593,-1.0593,-1.0593,-1.0776,-1.1351,-1.1903,-1.2489,-1.3152,-1.3863,-1.435,-1.441,-1.4558,-1.4715,-1.4715,-1.4813,-1.4911,-1.4911,-1.5167,-1.5332,-1.5332,-1.5332,-1.5362,-1.541,-1.541,-1.541,-1.541,-1.541,-1.541,-1.541,-1.541,-1.541,-1.541,-1.541,-1.5995,-1.7127,-1.7127,-1.7897,1.6972,1.6699,1.6656,1.6609,1.6238,1.6078,1.681,1.6629,1.6183,1.587,1.5797,1.5805,1.5805,1.5647,1.5426,1.524,1.5932,1.5952,1.4493,1.4163,1.3627,1.2456,1.1131,1.0101,0.9663,0.9439,0.9397,0.9587,0.9031,0.8214,0.706,0.627,0.528,0.3927,0.3703,0.3366,0.2913,0.2839,0.2627,0.2262,0.1604,0.1092,0.0654,-0.0073,-0.1307,-0.2789,-0.2682,-0.3348,-0.4495,-0.4349,-0.4431,-0.4606,-0.4666,-0.4795,-0.4923,-0.5044,-0.5087,-0.5199,-0.5871,-0.6105,-0.6262,-0.7109,-0.7233,-0.7219,-0.8305,-0.9226,-0.9853,-0.9588,-0.9644,-0.983,-0.9958,-1.0142,-1.0333,-1.0561,-1.0593,-1.0593,-1.0593,-1.0593,-1.0593,-1.0624,-1.0624,-1.0807,-1.1421,-1.2251,-1.3009,-1.3623,-1.4291,-1.4715,-1.4715,-1.4715,-1.4715,-1.4715,-1.5,-1.5215,-1.5215,-1.5215,-1.5264,-1.5381,-1.541,-1.541,-1.541,-1.541,-1.541,-1.541,-1.541,-1.541,-1.541,-1.541,-1.5777,-1.6492,-1.6492,-1.7507,1.8264,1.7678,1.7243,1.7482,1.6922,1.6413,1.6833,1.6548,1.6067,1.5785,1.567,1.5647,1.5761,1.5541,1.5358,1.5498,1.5687,1.5734,1.5427,1.412,1.2949,1.2254,1.0516,0.931,0.9006,0.9289,0.9544,0.9582,0.9436,0.9012,0.8346,0.7305,0.5909,0.4161,0.388,0.3653,0.3513,0.3006,0.2666,0.2553,0.211,0.1597,0.1029,0.0477,-0.0295,-0.1198,-0.1978,-0.2659,-0.3242,-0.3809,-0.4211,-0.4528,-0.4653,-0.4848,-0.5038,-0.4929,-0.4958,-0.5024,-0.5104,-0.5037,-0.5049,-0.5781,-0.6072,-0.627,-0.7053,-0.7969,-0.8886,-0.9534,-0.983,-0.9958,-0.9989,-1.0047,-1.0142,-1.0333,-1.0403,-1.0434,-1.0561,-1.0593,-1.0593,-1.0593,-1.1045,-1.1469,-1.1686,-1.2305,-1.2856,-1.3047,-1.3623,-1.4022,-1.4022,-1.441,-1.4715,-1.4715,-1.4704,-1.4862,-1.5156,-1.5284,-1.5362,-1.541,-1.541,-1.541,-1.541,-1.541,-1.541,-1.541,-1.541,-1.541,-1.541,-1.541,-1.5526,-1.5748,-1.5748,-1.6323,1.8682,1.8066,1.773,1.8234,1.7553,1.692,1.7491,1.6953,1.6263,1.5915,1.5643,1.5541,1.5655,1.5543,1.5493,1.5679,1.5914,1.6059,1.6127,1.4774,1.3243,1.1864,1.0096,0.8907,0.8715,0.9253,0.9508,0.9275,0.9621,0.9419,0.841,0.7797,0.6567,0.4611,0.4165,0.3894,0.3694,0.3322,0.2987,0.2686,0.2551,0.217,0.1604,0.1349,0.0831,0.0,-0.0736,-0.1414,0.0,-0.3048,-0.3617,-0.3907,-0.4489,-0.4839,-0.4986,-0.4885,-0.4955,-0.5007,-0.4776,-0.4609,-0.4493,-0.4731,-0.5098,-0.5545,-0.5959,-0.7079,-0.8333,-0.9017,-0.9504,-0.983,-0.9894,-0.9958,-1.0047,-1.0244,-1.0371,-1.0466,-1.0561,-1.0593,-1.0593,-1.0593,-1.0982,-1.1351,-1.1351,-1.1828,-1.2321,-1.26,-1.308,-1.3544,-1.387,-1.4249,-1.4518,-1.4617,-1.4616,-1.4704,-1.5,-1.5167,-1.5274,-1.5313,-1.5362,-1.541,-1.541,-1.541,-1.541,-1.541,-1.541,-1.541,-1.541,-1.541,-1.541,-1.541,-1.541,-1.5642,0.0,1.811,1.8256,1.8888,1.8143,1.7536,1.8504,1.7691,0.0,1.6148,1.5745,1.5505,1.553,1.568,1.5811,1.5844,1.6431,1.6768,1.6539,1.576,1.4163,1.1359,0.9854,0.8967,0.8788,0.9197,0.9285,0.8741,0.9534,0.9319,0.7685,0.788,0.7172,0.5322,0.4728,0.4161,0.352,0.3675,0.3436,0.2739,0.2824,0.2684,0.2332,0.245,0.1932,0.0909,0.0868,0.0223,-0.0869,-0.2135,-0.2679,-0.2904,-0.4175,-0.4707,-0.4761,-0.4873,-0.4953,-0.4984,-0.4728,-0.4579,-0.4434,-0.3971,-0.4356,-0.5041,-0.5041,-0.6486,-0.8102,-0.8166,-0.8791,-0.9478,-0.9708,-0.9862,-1.0021,-1.0212,-1.0403,-1.0561,-1.0561,-1.0593,-1.0593,-1.0593,-1.0593,-1.0593,-1.0593,-1.0932,-1.1457,-1.2121,-1.2527,-1.3084,-1.3951,-1.4034,-1.4153,-1.4394,-1.4588,-1.4667,-1.4639,-1.4825,-1.503,-1.5186,-1.5303,-1.5381,-1.541,-1.541,-1.541,-1.541,-1.541,-1.541,-1.541,-1.541,-1.541,-1.541,-1.541,-1.541,1.9203,0.0,1.9345,2.0235,1.9122,1.7842,0.0,1.7117,1.6085,1.5453,1.5412,1.5625,1.6039,1.5956,1.5893,1.6145,1.6403,1.6531,1.6285,1.5088,1.3493,1.1528,1.0206,0.9515,0.9588,0.8895,0.8532,0.8695,0.8594,0.8525,0.8557,0.7817,0.7208,0.6724,0.6203,0.5193,0.3736,0.3561,0.3398,0.3241,0.2867,0.2631,0.2585,0.2461,0.2304,0.2056,0.1458,0.0841,0.0254,-0.0782,-0.1692,-0.2476,-0.3047,-0.3629,-0.4115,-0.4252,-0.4206,-0.4104,-0.4044,-0.3894,-0.3768,-0.3853,-0.406,-0.4289,-0.4428,-0.5745,-0.7349,-0.8004,-0.8333,-0.8662,-0.9382,-0.9606,-0.9676,-0.9868,-0.9958,-1.0053,-1.0308,-1.0371,-1.0434,-1.0561,-1.0593,-1.0593,-1.0593,-1.0492,-1.0439,-1.062,-1.1068,-1.1467,-1.166,-1.2757,-1.3509,-1.3587,-1.4166,-1.4427,-1.4105,-1.4449,-1.485,-1.5196,-1.5041,-1.5078,-1.54,-1.541,-1.541,-1.541,-1.541,-1.541,-1.541,-1.541,-1.541,-1.541,-1.541,-1.541,2.0023,1.9848,1.983,2.0507,1.9897,1.8953,1.8385,1.7775,1.6994,1.5795,1.5601,1.5766,1.6139,1.6195,1.6242,1.6539,1.6784,1.6725,1.6118,1.4689,1.331,1.2273,1.1055,1.0108,0.9675,0.9301,0.8861,0.834,0.8452,0.8539,0.8473,0.8021,0.7511,0.6953,0.65,0.5603,0.4176,0.4207,0.3959,0.339,0.3129,0.2876,0.2648,0.2581,0.2482,0.2389,0.1956,0.164,0.1309,-0.0072,-0.0996,-0.1639,-0.2745,-0.3417,-0.3783,-0.3855,-0.3855,-0.3849,-0.3766,-0.3582,-0.3373,-0.3502,-0.3539,-0.356,-0.3661,-0.4519,-0.5771,-0.7116,-0.8037,-0.8694,-0.9247,-0.944,-0.9568,-0.974,-0.9836,-0.9958,-1.011,-1.0149,-1.018,-1.0301,-1.0403,-1.042,-1.0287,-1.0083,-0.9985,-1.0155,-1.0434,-1.0708,-1.1012,-1.2028,-1.2888,-1.3252,-1.3631,-1.3879,-1.3986,-1.3949,-1.4075,-1.4505,-1.4453,-1.4535,-1.4786,-1.4796,-1.4796,-1.4796,-1.5215,-1.5312,-1.5127,-1.5312,-1.541,-1.541,-1.541,-1.541,2.0517,2.0392,2.0208,2.0473,2.0408,2.0008,1.911,1.8798,1.8265,1.6686,1.6158,1.605,1.622,1.6475,1.6669,1.6754,1.6989,1.6822,1.5921,1.4574,1.3518,1.3187,1.2011,1.0839,0.9749,0.9813,0.9365,0.7996,0.8503,0.8596,0.8011,0.8138,0.7814,0.6863,0.654,0.5913,0.494,0.4991,0.4507,0.3462,0.3463,0.3217,0.2739,0.2759,0.263,0.2407,0.2397,0.2358,0.2139,0.0504,-0.0251,-0.0538,-0.237,-0.3162,-0.3269,-0.3412,-0.3558,-0.369,-0.3572,-0.3389,-0.3171,-0.3143,-0.3082,-0.3092,-0.3123,-0.3489,-0.4253,-0.5895,-0.7474,-0.8753,-0.9043,-0.93,-0.953,-0.9702,-0.983,-0.9926,-0.9958,-0.9958,-0.9983,-0.9983,-1.011,-1.0166,-0.9927,-0.9768,-0.9775,-1.012,-1.0144,-1.0362,-1.0845,-1.1494,-1.2186,-1.2984,-1.3052,-1.33,-1.396,-1.3424,-1.3202,-1.3552,-1.375,-1.3912,-1.4051,-1.4077,-1.4087,-1.4087,-1.4816,-1.5039,-1.4687,-1.5107,-1.5283,-1.5186,-1.5283,-1.5283,1.9653,2.0339,2.1182,2.1229,2.0429,1.9618,1.9421,1.8828,1.8151,1.7727,1.7244,1.693,1.7009,1.6942,1.6708,1.6223,1.6041,1.5798,1.5358,1.5103,1.4613,1.3795,1.2742,1.1883,1.1296,0.9742,0.8666,0.8402,0.7668,0.746,0.7892,0.7669,0.7679,0.7959,0.7742,0.7217,0.6376,0.4926,0.4047,0.3744,0.3528,0.3404,0.3346,0.3253,0.3055,0.28,0.274,0.2538,0.2183,0.1891,0.1395,0.0714,-0.0374,-0.1157,-0.1735,-0.2551,-0.2856,-0.2888,-0.2875,-0.2932,-0.306,-0.3141,-0.3305,-0.3462,-0.3625,-0.402,-0.4444,-0.474,-0.5994,-0.7414,-0.8166,-0.892,-0.951,-0.9548,-0.9548,-0.9606,-0.9804,-0.983,-0.9862,-0.9983,-0.9926,-0.9849,-0.9812,-0.9612,-0.9473,-0.9519,-0.9538,-0.9577,-0.9663,-1.0401,-1.1184,-1.1877,-1.243,-1.2993,-1.3552,-1.3186,-1.295,-1.3015,-1.3155,-1.342,-1.3836,-1.3963,-1.4016,-1.4016,-1.4214,-1.427,-1.4211,-1.4668,-1.4697,-1.4309,-1.4707,-1.4678,1.9336,1.9989,2.0717,2.0831,2.0923,2.0764,2.0005,1.9608,1.9211,1.8527,1.8191,1.788,1.7412,1.7386,1.7171,1.6403,1.5811,1.5401,1.5205,1.4847,1.4447,1.401,1.3309,1.249,1.1631,1.0664,0.9658,0.8544,0.8168,0.784,0.7481,0.7445,0.7494,0.7593,0.738,0.7116,0.6812,0.5743,0.5107,0.4991,0.451,0.421,0.4081,0.3666,0.333,0.3068,0.3031,0.2809,0.243,0.2026,0.1578,0.1008,0.0202,-0.0336,-0.0706,-0.1613,-0.2183,-0.2555,-0.2653,-0.2753,-0.2855,-0.2922,-0.2924,-0.296,-0.3157,-0.3353,-0.3549,-0.3651,-0.4806,-0.6187,-0.6878,-0.7702,-0.842,-0.8727,-0.9157,-0.9516,-0.9612,-0.9574,-0.9536,-0.9594,-0.9626,-0.9583,-0.9437,-0.947,-0.9467,-0.9323,-0.94,-0.9451,-0.9298,-0.99,-1.0592,-1.131,-1.1901,-1.253,-1.3225,-1.3141,-1.2915,-1.2607,-1.2704,-1.2875,-1.309,-1.3361,-1.3406,-1.3176,-1.3669,-1.3811,-1.3554,-1.4094,-1.4264,-1.4043,-1.4309,-1.4299,1.9081,1.9666,2.0246,2.0111,2.1042,2.1673,2.0617,2.0431,2.0291,1.9464,1.9133,1.8758,1.8011,1.7732,1.7415,1.6757,1.5791,1.5104,1.4943,1.4422,1.3992,1.3878,1.3514,1.2808,1.1696,1.1397,1.0533,0.8733,0.8588,0.8188,0.7289,0.7302,0.7291,0.7209,0.7002,0.6992,0.719,0.6824,0.6462,0.6053,0.5548,0.5106,0.4709,0.4231,0.3743,0.3326,0.3326,0.3125,0.2787,0.2214,0.1812,0.1512,0.0705,0.0235,-0.0067,-0.0739,-0.1446,-0.2119,-0.2284,-0.2452,-0.2621,-0.2621,-0.2555,-0.249,-0.2654,-0.2653,-0.2654,-0.2788,-0.3649,-0.4767,-0.5529,-0.6379,-0.7135,-0.7535,-0.8328,-0.8985,-0.9049,-0.9145,-0.921,-0.9274,-0.9332,-0.933,-0.9097,-0.9321,-0.9444,-0.9269,-0.9474,-0.9567,-0.9353,-0.9667,-1.0168,-1.092,-1.1329,-1.1868,-1.2648,-1.2967,-1.2869,-1.2295,-1.2462,-1.2563,-1.2563,-1.2913,-1.291,-1.2532,-1.3221,-1.337,-1.2969,-1.358,-1.3834,-1.3712,-1.392,-1.3955,1.8565,1.9569,2.0497,1.9442,2.0245,2.1236,2.1138,2.0999,2.0839,2.0764,2.0096,1.9474,1.9208,1.7894,1.6909,1.7026,1.5846,1.4748,1.4236,1.3964,1.367,1.3235,1.3139,1.2759,1.1864,1.1054,1.0189,0.9297,0.8271,0.7693,0.7654,0.714,0.7037,0.7467,0.751,0.768,0.8003,0.8041,0.7456,0.6289,0.6154,0.5774,0.517,0.5169,0.4674,0.3758,0.3758,0.3525,0.3159,0.3092,0.3058,0.2958,0.1878,0.0872,0.0,-0.0067,-0.0571,-0.121,-0.121,-0.1748,-0.2423,-0.2423,-0.2522,-0.2686,-0.2686,-0.2554,-0.2389,-0.2288,-0.2354,-0.2753,-0.4245,-0.5262,-0.5917,-0.5949,-0.6678,-0.7437,-0.7752,-0.8355,-0.8931,-0.9242,-0.9145,-0.9043,-0.9026,-0.918,-0.9302,-0.9285,-0.9564,-0.9767,-0.9748,-0.9681,-0.989,-1.0569,-1.0566,-1.0802,-1.1555,-1.2409,-1.2683,-1.2155,-1.2523,-1.2778,-1.2778,-1.2941,-1.2887,-1.2593,-1.2778,-1.2756,-1.2543,-1.3201,-1.3318,-1.2902,-1.3534,-1.3552,1.8464,1.9307,2.0076,1.9285,1.997,2.0811,2.0718,2.0594,2.0517,2.0719,2.0518,2.0042,1.9245,1.7654,1.6439,1.6423,1.5446,1.4555,1.4098,1.3891,1.3522,1.2763,1.2637,1.2324,1.1684,1.1333,1.0729,0.9756,0.9264,0.8754,0.8115,0.7661,0.7469,0.7565,0.7369,0.7379,0.7612,0.7707,0.7586,0.7225,0.6953,0.6754,0.663,0.6404,0.5738,0.4749,0.4981,0.4519,0.3558,0.3558,0.3426,0.3155,0.2666,0.1983,0.1272,0.0988,0.0463,-0.0201,-0.0873,-0.1311,-0.1681,-0.212,-0.2321,-0.2421,-0.2488,-0.2389,-0.2288,-0.2322,-0.2188,-0.2185,-0.2982,-0.3939,-0.4731,-0.4932,-0.576,-0.6551,-0.6678,-0.6911,-0.7307,-0.7864,-0.8096,-0.8328,-0.8797,-0.9183,-0.9414,-0.9414,-0.9542,-0.9612,-0.9612,-0.9585,-0.9674,-1.0069,-1.0612,-1.124,-1.1938,-1.2334,-1.238,-1.2057,-1.2618,-1.2885,-1.2803,-1.2858,-1.2823,-1.2726,-1.278,-1.2761,-1.2687,-1.3023,-1.3049,-1.2794,-1.3161,-1.3159,1.86,1.9267,1.9925,1.9522,1.9925,2.0435,2.0457,2.0308,2.0259,2.0632,2.0566,2.022,1.9501,1.7908,1.6672,1.6626,1.5596,1.462,1.4196,1.3793,1.3252,1.239,1.2237,1.1955,1.1451,1.1419,1.0985,1.0012,0.9888,0.9444,0.856,0.8254,0.7896,0.7533,0.749,0.7384,0.7214,0.7432,0.7588,0.7741,0.7348,0.7204,0.7256,0.6962,0.6386,0.5596,0.5669,0.5209,0.4396,0.4209,0.3875,0.3471,0.3307,0.2938,0.2444,0.2043,0.1538,0.0904,0.0133,-0.0466,-0.1006,-0.1563,-0.1925,-0.2192,-0.2291,-0.2211,-0.2129,-0.2162,-0.2064,-0.1965,-0.2125,-0.281,-0.3471,-0.3706,-0.4611,-0.5463,-0.5562,-0.5763,-0.6195,-0.7046,-0.7377,-0.7772,-0.8501,-0.8931,-0.9189,-0.9189,-0.9285,-0.935,-0.935,-0.9446,-0.958,-0.9772,-1.0428,-1.1021,-1.1522,-1.1833,-1.1895,-1.1701,-1.2378,-1.2806,-1.2806,-1.2806,-1.2839,-1.2914,-1.2942,-1.2871,-1.2803,-1.2991,-1.303,-1.2941,-1.3095,-1.3127,1.897,1.958,2.0268,2.0129,2.0111,2.0182,2.0505,2.0327,2.0209,2.0621,2.0286,1.9958,2.0146,1.8868,1.783,1.7963,1.6423,1.5013,1.4488,1.3597,1.2806,1.2198,1.1988,1.1709,1.1261,1.1202,1.087,1.0074,0.9826,0.9505,0.9033,0.88,0.8279,0.7343,0.7952,0.7869,0.7015,0.7398,0.7596,0.7596,0.7255,0.7007,0.6813,0.6736,0.6541,0.6186,0.5572,0.5473,0.5663,0.5058,0.4516,0.4073,0.3887,0.3602,0.3283,0.3089,0.2618,0.2103,0.2012,0.0915,-0.05,-0.0649,-0.1319,-0.2095,-0.2095,-0.2052,-0.1941,-0.1756,-0.1848,-0.1941,-0.1755,-0.1933,-0.2171,-0.2109,-0.3054,-0.4079,-0.4411,-0.5044,-0.5906,-0.6985,-0.7177,-0.7409,-0.8069,-0.8376,-0.8517,-0.8517,-0.8797,-0.8985,-0.8985,-0.9285,-0.958,-0.9772,-0.9804,-0.9862,-0.9989,-1.08,-1.1209,-1.0982,-1.1802,-1.2428,-1.2775,-1.2805,-1.2907,-1.3191,-1.3212,-1.3077,-1.2821,-1.3077,-1.3212,-1.322,-1.3399,-1.3462,1.8807,1.927,1.9817,1.954,1.9937,2.035,2.0229,2.0185,2.0138,2.0015,1.9863,1.9602,1.9029,1.8309,1.7728,1.7482,1.6696,1.5859,1.5127,1.4857,1.4336,1.3216,1.2661,1.2193,1.1668,1.1251,1.0709,1.0046,1.0159,0.9918,0.9123,0.8966,0.8619,0.7949,0.7398,0.6957,0.6646,0.6633,0.6666,0.6757,0.6994,0.7195,0.736,0.7584,0.728,0.6549,0.6649,0.6376,0.5796,0.5357,0.4823,0.4282,0.4126,0.4125,0.4162,0.3678,0.3414,0.3183,0.231,0.1627,0.1038,0.0468,-0.0187,-0.0748,-0.0748,-0.1055,-0.1358,-0.1296,-0.1234,-0.1198,-0.1322,-0.1537,-0.1746,-0.1863,-0.2171,-0.2489,-0.2639,-0.3513,-0.4511,-0.5338,-0.6297,-0.7218,-0.7944,-0.8312,-0.8576,-0.8829,-0.8738,-0.8738,-0.8985,-0.9285,-0.958,-0.9772,-0.9804,-0.9862,-0.9989,-1.0238,-1.0364,-1.0301,-1.0548,-1.1146,-1.2205,-1.2582,-1.2848,-1.2923,-1.3237,-1.3386,-1.3295,-1.3386,-1.3397,-1.3356,-1.3589,-1.3666,1.9265,1.959,2.0017,2.0032,2.0362,2.0651,2.0476,2.0292,2.0067,1.9722,1.9561,1.9324,1.8845,1.8448,1.807,1.7659,1.7174,1.6483,1.5542,1.5245,1.4727,1.3754,1.2978,1.2372,1.199,1.1271,1.0623,1.0157,1.0205,0.9979,0.9368,0.9216,0.8848,0.8169,0.7602,0.7002,0.635,0.639,0.6304,0.6123,0.6408,0.674,0.7148,0.7515,0.7472,0.7056,0.7032,0.6638,0.5988,0.5374,0.4991,0.471,0.4282,0.4287,0.4452,0.3986,0.3916,0.3925,0.3148,0.2582,0.2112,0.1542,0.0873,0.0211,-0.0121,-0.045,-0.0713,-0.1012,-0.0982,-0.0889,-0.1046,-0.1142,-0.1291,-0.1755,-0.1949,-0.2047,-0.2272,-0.2852,-0.3549,-0.4417,-0.5507,-0.6498,-0.7223,-0.7787,-0.8182,-0.8366,-0.8474,-0.8608,-0.8952,-0.9285,-0.9548,-0.9676,-0.9638,-0.9632,-0.9728,-0.9629,-0.9643,-0.9779,-0.9781,-1.0202,-1.117,-1.1988,-1.2613,-1.3072,-1.3359,-1.3511,-1.3511,-1.3511,-1.3489,-1.345,-1.3617,-1.3658,2.0064,2.0308,2.0641,2.1055,2.1058,2.095,2.0979,2.0517,1.9954,1.9647,1.9281,1.9053,1.9135,1.8838,1.8501,1.8166,1.765,1.6896,1.5793,1.5048,1.443,1.3893,1.301,1.2411,1.2291,1.137,1.0651,1.0331,1.0063,0.9817,0.9606,0.9448,0.8982,0.8143,0.8236,0.7621,0.6184,0.647,0.6327,0.5735,0.5728,0.597,0.6433,0.6858,0.7231,0.752,0.6917,0.6485,0.6147,0.5387,0.5203,0.5274,0.4458,0.4291,0.4458,0.4146,0.4163,0.4366,0.4221,0.3628,0.2845,0.262,0.1925,0.1049,0.0263,0.0057,-0.0028,-0.0728,-0.087,-0.0842,-0.0898,-0.0813,-0.0911,-0.1726,-0.2042,-0.2298,-0.2762,-0.2781,-0.3019,-0.3984,-0.4746,-0.5441,-0.6133,-0.678,-0.7261,-0.7363,-0.8004,-0.8608,-0.8888,-0.9166,-0.9384,-0.941,-0.9253,-0.9171,-0.9203,-0.8986,-0.9013,-0.937,-0.9346,-0.9494,-0.9964,-1.1062,-1.2166,-1.323,-1.3321,-1.3381,-1.342,-1.345,-1.3463,-1.3459,-1.3524,-1.3524,1.9969,2.0443,2.0774,2.0258,2.0239,2.0346,2.0257,1.9932,1.9573,1.9394,1.8795,1.8239,1.8007,1.7482,1.7113,1.7258,1.7246,1.6929,1.6035,1.5677,1.518,1.4224,1.3427,1.2936,1.2915,1.1907,1.1032,1.049,1.0112,0.957,0.8801,0.8972,0.8808,0.8201,0.7759,0.7302,0.6818,0.6259,0.5976,0.594,0.5834,0.6051,0.6551,0.6545,0.6786,0.7215,0.7165,0.6836,0.6378,0.6431,0.622,0.578,0.5242,0.514,0.5234,0.4458,0.4201,0.4219,0.4076,0.3857,0.3586,0.3649,0.3189,0.2625,0.2428,0.1741,0.095,0.0587,0.014,-0.0308,-0.0785,-0.087,-0.0935,-0.1297,-0.131,-0.1351,-0.1615,-0.2278,-0.2913,-0.3147,-0.391,-0.464,-0.5077,-0.5143,-0.5421,-0.6193,-0.7582,-0.8414,-0.8247,-0.8286,-0.8419,-0.8626,-0.8385,-0.8297,-0.8513,-0.8461,-0.8455,-0.8567,-0.855,-0.8903,-0.9728,-1.0408,-1.0968,-1.1358,-1.1989,-1.2451,-1.2726,-1.3125,-1.3271,-1.3129,-1.366,-1.3714,2.035,2.0737,2.0862,2.0227,2.0132,2.0204,2.0204,1.9806,1.9404,1.9283,1.861,1.7926,1.7576,1.7258,1.6987,1.6884,1.6728,1.6378,1.5635,1.5287,1.4904,1.4317,1.357,1.3097,1.3097,1.2069,1.125,1.0899,1.0505,0.9944,0.9168,0.9199,0.8998,0.8455,0.8075,0.7675,0.7252,0.6817,0.6492,0.6293,0.5885,0.5927,0.6329,0.6471,0.6593,0.6674,0.6603,0.6468,0.6295,0.61,0.6023,0.5946,0.5473,0.5312,0.5289,0.4818,0.4519,0.4328,0.4162,0.4052,0.3993,0.391,0.3685,0.3352,0.2933,0.2428,0.1871,0.1369,0.084,0.0364,0.0112,-0.0252,-0.0591,-0.0688,-0.0826,-0.1009,-0.1244,-0.1724,-0.2178,-0.2376,-0.3146,-0.3833,-0.3999,-0.4316,-0.4696,-0.5164,-0.6555,-0.7414,-0.7086,-0.7527,-0.7857,-0.7912,-0.771,-0.7631,-0.7755,-0.7595,-0.7608,-0.7957,-0.7887,-0.8194,-0.8986,-0.9284,-0.9875,-1.0821,-1.1263,-1.1598,-1.1872,-1.2543,-1.2779,-1.2621,-1.3182,-1.327,2.0515,2.0839,2.0837,2.0578,2.0402,2.0276,2.0312,1.9913,1.9467,1.9269,1.8586,1.7856,1.7436,1.7339,1.712,1.6608,1.6169,1.5666,1.4971,1.4549,1.4245,1.4082,1.3496,1.3085,1.3044,1.2097,1.1445,1.1356,1.09,1.0447,0.9962,0.9696,0.9339,0.8878,0.8663,0.8267,0.769,0.7586,0.7291,0.6781,0.6083,0.5844,0.604,0.6418,0.6499,0.6344,0.6114,0.6109,0.6236,0.5641,0.5673,0.6028,0.5555,0.534,0.5234,0.5003,0.4728,0.4463,0.4218,0.4138,0.4138,0.3965,0.3879,0.3713,0.2986,0.2736,0.2597,0.1928,0.1427,0.1065,0.1121,0.0533,-0.0084,-0.0056,-0.0401,-0.0831,-0.1192,-0.1275,-0.1352,-0.165,-0.2272,-0.2767,-0.2754,-0.3601,-0.4275,-0.4285,-0.5393,-0.6169,-0.604,-0.6765,-0.7284,-0.7229,-0.7047,-0.6988,-0.7017,-0.6716,-0.6778,-0.7329,-0.7198,-0.7398,-0.8042,-0.8049,-0.8786,-1.0342,-1.0523,-1.0736,-1.0935,-1.1676,-1.2022,-1.2047,-1.2382,-1.2548,1.9526,2.0138,2.0553,2.085,2.0714,2.0459,2.014,1.999,1.9813,1.9439,1.8641,1.7856,1.7311,1.6804,1.6297,1.5819,1.5658,1.5276,1.4419,1.4119,1.3748,1.316,1.3093,1.304,1.2848,1.2229,1.176,1.1574,1.086,1.0457,1.0495,1.003,0.9666,0.948,0.9076,0.87,0.837,0.791,0.7642,0.7539,0.6754,0.627,0.6092,0.6162,0.646,0.6977,0.695,0.6815,0.662,0.6657,0.6549,0.63,0.5887,0.5805,0.5727,0.457,0.4294,0.4436,0.3993,0.3938,0.4079,0.4325,0.4215,0.3965,0.3827,0.3378,0.2792,0.2484,0.204,0.1623,0.1342,0.0812,0.0364,0.0533,0.0225,-0.0314,-0.1066,-0.1128,-0.1026,-0.0968,-0.0932,-0.0952,-0.1018,-0.2087,-0.3157,-0.3698,-0.4551,-0.5359,-0.6087,-0.5914,-0.5896,-0.6391,-0.6159,-0.6087,-0.6321,-0.6293,-0.6288,-0.6372,-0.6348,-0.66,-0.7141,-0.7133,-0.7461,-0.829,-0.9058,-0.9595,-0.9913,-1.0344,-1.0854,-1.1331,-1.1503,-1.1762,2.0101,2.0702,2.0896,2.0806,2.069,2.0541,2.0386,2.0296,2.0141,1.9902,1.9313,1.8497,1.7403,1.687,1.6338,1.5575,1.5492,1.521,1.4235,1.3821,1.3478,1.3119,1.3077,1.3072,1.2973,1.2526,1.2174,1.2066,1.1553,1.1124,1.0829,1.0668,1.0273,0.9619,0.9507,0.9237,0.8793,0.85,0.8103,0.7585,0.7234,0.6969,0.6803,0.6401,0.6246,0.6322,0.6511,0.6539,0.6431,0.6571,0.6598,0.6566,0.6539,0.6404,0.6164,0.5559,0.5034,0.4567,0.4153,0.3879,0.3691,0.3913,0.3858,0.3691,0.3855,0.3658,0.335,0.3074,0.2655,0.2263,0.2041,0.1455,0.0868,0.0729,0.0449,0.0056,-0.0514,-0.0618,-0.0632,-0.0722,-0.0571,-0.0416,-0.0432,-0.0984,-0.148,-0.1717,-0.2682,-0.3577,-0.4068,-0.4418,-0.4805,-0.523,-0.5306,-0.534,-0.5473,-0.5614,-0.5782,-0.5973,-0.5978,-0.6151,-0.6545,-0.6599,-0.6812,-0.7235,-0.8143,-0.8765,-0.8979,-0.9603,-1.0019,-1.0196,-1.0706,-1.105,2.0594,2.1113,2.1054,2.0765,2.0691,2.0726,2.0828,2.0809,2.0788,2.0897,2.0302,1.9429,1.8346,1.7697,1.7047,1.6123,1.5989,1.5627,1.4668,1.405,1.3615,1.3459,1.3335,1.3232,1.3146,1.282,1.2544,1.2419,1.2143,1.1767,1.1263,1.1226,1.0876,1.0108,0.9971,0.9725,0.9337,0.9105,0.8635,0.7928,0.7764,0.7623,0.7517,0.6873,0.6408,0.6142,0.6256,0.6236,0.6138,0.633,0.6436,0.649,0.668,0.6598,0.6332,0.6191,0.5664,0.4976,0.4618,0.4128,0.3691,0.383,0.3635,0.3355,0.3547,0.3602,0.3549,0.3383,0.3102,0.285,0.2798,0.2183,0.1539,0.1232,0.0924,0.056,-0.0028,-0.0172,-0.0233,-0.0378,-0.0262,-0.0144,-0.0197,-0.0224,-0.0308,-0.0448,-0.1257,-0.1952,-0.2287,-0.3007,-0.3589,-0.3898,-0.4315,-0.4567,-0.4567,-0.4904,-0.5242,-0.5544,-0.5572,-0.5732,-0.6077,-0.6273,-0.6463,-0.6701,-0.7515,-0.8002,-0.8189,-0.8725,-0.9119,-0.9302,-0.9858,-1.0167,2.0285,2.0729,2.0675,2.0919,2.0986,2.1095,2.1456,2.1636,2.1931,2.2704,2.1629,2.0584,2.0678,1.966,1.8583,1.7953,1.7384,1.6771,1.6097,1.5101,1.4358,1.4068,1.3878,1.3611,1.3229,1.3,1.2773,1.2508,1.23,1.2102,1.1872,1.1505,1.1338,1.1404,1.0486,1.0078,1.0225,0.9607,0.9228,0.9108,0.8472,0.8082,0.7955,0.7547,0.7334,0.728,0.6789,0.6334,0.5939,0.6272,0.6168,0.585,0.585,0.6009,0.6146,0.5559,0.5614,0.5864,0.5391,0.4897,0.446,0.4594,0.3956,0.313,0.313,0.3051,0.297,0.3077,0.3244,0.3385,0.3499,0.2996,0.2437,0.241,0.1959,0.1258,0.0224,0.0084,0.0197,0.0309,0.0366,0.0253,-0.014,0.0,-0.014,-0.109,-0.0978,-0.1032,-0.1756,-0.2006,-0.2173,-0.2306,-0.3118,-0.368,-0.368,-0.4211,-0.4656,-0.4928,-0.4952,-0.5207,-0.5791,-0.6082,-0.6372,-0.6701,-0.6999,-0.7273,-0.7542,-0.7473,-0.7969,-0.9007,-0.8804,-0.8981,1.9305,2.0203,2.0683,2.0526,2.0797,2.1212,2.1532,2.1756,2.2072,2.2785,2.2079,2.1356,2.1496,2.0332,1.9089,1.825,1.8335,1.8192,1.7259,1.6723,1.6208,1.5644,1.5168,1.4653,1.4029,1.3488,1.3022,1.2733,1.2508,1.2282,1.2029,1.1884,1.1682,1.1375,1.1105,1.0668,1.0059,0.9636,0.9306,0.9076,0.8906,0.8744,0.8557,0.7947,0.7645,0.7631,0.7269,0.6906,0.6564,0.667,0.657,0.6309,0.6182,0.635,0.6608,0.6164,0.5941,0.5859,0.5691,0.5304,0.4866,0.4752,0.4367,0.3871,0.3522,0.3388,0.3304,0.3054,0.3079,0.3188,0.3165,0.3023,0.2854,0.2657,0.2189,0.1723,0.1463,0.0784,0.0224,0.0252,0.0449,0.0561,0.0393,0.0533,0.0533,0.0168,0.0056,-0.0196,-0.0698,-0.1004,-0.1255,-0.1477,-0.2062,-0.248,-0.2563,-0.3287,-0.3873,-0.4181,-0.4487,-0.4767,-0.5077,-0.5344,-0.5641,-0.6,-0.6245,-0.668,-0.7246,-0.7359,-0.7649,-0.8037,-0.8415,-0.8699,1.8683,1.9722,2.0386,2.0166,2.0479,2.089,2.1281,2.1449,2.1727,2.2425,2.1958,2.1512,2.1807,2.0893,1.9871,1.9172,1.9331,1.9279,1.8514,1.808,1.7634,1.7072,1.6335,1.5649,1.5123,1.4227,1.3542,1.3268,1.2901,1.2561,1.2258,1.2204,1.1938,1.1375,1.1516,1.1094,1.004,0.9862,0.9565,0.9165,0.9266,0.9205,0.9024,0.8504,0.8264,0.8259,0.8016,0.7565,0.7043,0.6966,0.6828,0.6636,0.6345,0.6441,0.6743,0.6492,0.6322,0.6236,0.6236,0.5878,0.5378,0.5246,0.4917,0.4477,0.3907,0.3744,0.3633,0.3193,0.3079,0.3105,0.3081,0.3051,0.2993,0.2877,0.2503,0.2214,0.2391,0.1636,0.0879,0.0701,0.084,0.0896,0.0589,0.0701,0.0813,0.0729,0.0645,0.0476,0.0196,-0.0112,-0.0391,-0.0587,-0.1089,-0.148,-0.1564,-0.2232,-0.276,-0.3095,-0.3624,-0.4015,-0.4319,-0.4739,-0.5128,-0.5426,-0.5759,-0.6168,-0.6652,-0.7058,-0.7273,-0.7381,-0.7857,-0.8196,0.0,0.0,0.0,1.989,1.9948,2.0152,2.0756,2.0854,2.1029,2.1763,2.1383,2.1103,2.17,2.1419,2.1006,2.076,2.0337,1.9985,1.9861,1.9106,1.8484,1.8269,1.7318,1.6621,1.6466,1.5228,1.4356,1.4136,1.3497,1.2938,1.2526,1.2437,1.2131,1.1553,1.17,1.133,1.0341,1.0322,1.0039,0.9524,0.9504,0.9426,0.9299,0.9237,0.9197,0.9177,0.8992,0.8317,0.7337,0.7119,0.6942,0.6774,0.6294,0.6288,0.6519,0.6428,0.6701,0.7085,0.7112,0.6642,0.6064,0.6177,0.5637,0.4842,0.4229,0.4036,0.3926,0.3522,0.3272,0.3158,0.3357,0.3165,0.2942,0.3077,0.2914,0.2749,0.2907,0.2664,0.2295,0.1744,0.1621,0.1343,0.0421,0.0533,0.0673,0.0449,0.0701,0.0898,0.0898,0.0617,0.0421,0.0421,-0.0224,-0.0645,-0.0673,-0.1036,-0.1425,-0.1756,-0.2343,-0.2926,-0.3528,-0.4263,-0.477,-0.5042,-0.5517,-0.5768,-0.5795,-0.6408,-0.6842,-0.7085,-0.7085,-0.7375,1.7029,0.0,0.0,0.0,0.0,0.0,2.0398,2.0804,2.1239,2.2022,2.1769,2.147,2.1696,2.1216,2.081,2.0828,2.0863,2.0846,2.0751,2.0448,2.0036,1.9499,1.8873,1.8233,1.762,1.6253,1.5219,1.4792,1.3856,1.3116,1.2662,1.2538,1.2365,1.2168,1.1829,1.1505,1.118,1.0582,1.0127,0.9794,0.9594,0.9415,0.9237,0.9217,0.9197,0.9197,0.9145,0.8954,0.8617,0.7873,0.7472,0.7244,0.662,0.6612,0.6877,0.6364,0.6526,0.6955,0.7058,0.7031,0.6896,0.6588,0.6258,0.5842,0.505,0.4556,0.4226,0.3926,0.3489,0.3158,0.3357,0.3416,0.3416,0.3444,0.3308,0.3228,0.3624,0.3581,0.3283,0.2529,0.2402,0.2235,0.1736,0.1736,0.1624,0.1122,0.1122,0.1122,0.0926,0.0898,0.087,0.0785,0.0589,0.0308,-0.0028,-0.056,-0.0952,-0.1148,-0.1621,-0.1984,-0.2148,-0.2952,-0.3589,-0.4003,-0.4759,-0.523,-0.5449,-0.6295,-0.6729,-0.681,-0.6901,-0.709,1.654,1.7652,1.8727,1.8235,0.0,0.0,1.9493,1.9822,2.0195,2.0605,2.0539,2.0524,2.0982,2.0827,2.0695,2.0942,2.1087,2.1151,2.1119,2.1071,2.0879,2.0448,1.9846,1.931,1.8843,1.7507,1.6512,1.6156,1.484,1.3689,1.278,1.2644,1.2538,1.2437,1.2138,1.1836,1.1542,1.1142,1.063,1.0059,0.9932,0.9724,0.9406,0.9406,0.9406,0.9406,0.9346,0.9326,0.9286,0.8679,0.8154,0.7659,0.7061,0.6876,0.6878,0.6466,0.6581,0.6945,0.6987,0.7098,0.7199,0.7101,0.6822,0.641,0.5819,0.5406,0.5023,0.4398,0.3738,0.3244,0.3357,0.3385,0.3413,0.3555,0.355,0.3576,0.3869,0.4054,0.3942,0.3221,0.3125,0.2989,0.2488,0.2404,0.2322,0.2015,0.1765,0.1541,0.1373,0.1205,0.1038,0.0842,0.087,0.0785,0.0505,0.0224,0.0028,0.0028,-0.0476,-0.0867,-0.109,-0.1785,-0.2395,-0.292,-0.3475,-0.411,-0.4772,-0.58,-0.6386,-0.6495,-0.663,-0.6766,1.6539,1.7217,1.7769,1.7978,1.8248,0.0,1.8386,1.848,1.8572,1.8539,1.864,1.901,1.9967,2.0311,2.0563,2.1006,2.1087,2.1087,2.1087,2.1119,2.1183,2.1198,2.048,2.0035,2.0115,1.8857,1.7922,1.772,1.5921,1.4302,1.3059,1.2804,1.2656,1.2526,1.2508,1.2228,1.1708,1.1737,1.133,1.0448,1.0409,1.0196,0.9832,0.9742,0.9733,0.9773,0.9594,0.9543,0.9515,0.9368,0.8857,0.8085,0.76,0.7199,0.6863,0.6742,0.6887,0.7112,0.703,0.7078,0.7224,0.76,0.7308,0.6758,0.6577,0.6394,0.5991,0.4787,0.4021,0.3497,0.3441,0.3299,0.3244,0.3527,0.3691,0.3769,0.3824,0.4128,0.4294,0.3821,0.3821,0.371,0.3014,0.2931,0.2959,0.3016,0.2543,0.2181,0.2153,0.1596,0.1122,0.0869,0.0898,0.0926,0.087,0.0982,0.1122,0.1234,0.0757,0.0252,-0.0196,-0.0699,-0.1228,-0.1811,-0.2143,-0.2888,-0.4048,-0.5171,-0.585,-0.6091,-0.625,-0.6436,1.6026,1.6675,1.7348,1.7506,1.7625,0.0,1.8091,1.8256,1.8442,1.876,1.876,1.8935,1.9719,1.9912,2.0139,2.0761,2.099,2.1054,2.0942,2.0942,2.1181,2.1753,2.1114,2.0859,2.146,1.9864,1.8455,1.7686,1.5286,1.3989,1.4241,1.3258,1.2692,1.2662,1.2502,1.2383,1.2318,1.1829,1.1497,1.1338,1.0649,1.0448,1.0659,1.0049,0.9951,1.0235,0.9892,0.9744,0.9724,0.9534,0.9266,0.8915,0.8322,0.8066,0.7937,0.7479,0.7532,0.7804,0.7778,0.7697,0.7606,0.7797,0.762,0.7351,0.7283,0.6853,0.6064,0.4646,0.4267,0.4187,0.3694,0.3527,0.3527,0.3583,0.3527,0.358,0.3882,0.3938,0.4045,0.4408,0.4601,0.4567,0.4211,0.4319,0.4315,0.3843,0.3514,0.3236,0.3067,0.2432,0.1931,0.1764,0.1429,0.1094,0.0757,0.0757,0.0842,0.0982,0.087,0.0841,0.0953,0.0308,-0.0252,-0.0698,-0.2176,-0.3403,-0.4401,-0.4959,-0.5317,-0.5473,-0.5786,-0.5927,1.5951,1.6536,1.705,1.7304,1.7543,0.0,0.0,1.7834,1.8068,1.8344,1.8344,1.8486,1.9122,1.9266,1.9449,2.0054,2.0275,2.0395,2.0531,2.0844,2.1245,2.1827,2.1538,2.1424,2.1768,2.0897,1.9691,1.8195,1.6785,1.5661,1.4946,1.411,1.3436,1.2965,1.2697,1.2538,1.2508,1.2174,1.1854,1.1586,1.1151,1.0943,1.0935,1.0572,1.0438,1.0486,1.0293,1.0088,0.9882,0.9793,0.9634,0.9406,0.8938,0.8507,0.8108,0.7845,0.792,0.8151,0.8224,0.8154,0.8093,0.837,0.7931,0.7329,0.7534,0.7074,0.6389,0.581,0.5191,0.4653,0.4401,0.4024,0.3694,0.3705,0.3698,0.3724,0.3868,0.4018,0.4215,0.4411,0.4739,0.4928,0.4736,0.4818,0.4814,0.4594,0.4263,0.4042,0.4006,0.3483,0.3014,0.2822,0.2599,0.2209,0.1649,0.1593,0.1511,0.1262,0.1262,0.1206,0.1094,0.087,0.0616,0.0364,-0.0894,-0.1813,-0.2367,-0.3398,-0.4315,-0.5117,-0.5399,-0.5513,1.5629,1.6174,1.6557,1.6876,1.7362,1.7622,0.0,0.0,0.0,1.7781,1.7781,1.7935,1.8511,1.8527,1.864,1.9292,1.9367,1.9516,1.9987,2.0563,2.113,2.1725,2.1734,2.1715,2.1747,2.1424,2.0607,1.9088,1.8465,1.7458,1.583,1.505,1.4263,1.3427,1.3009,1.2697,1.2544,1.2473,1.221,1.1763,1.1634,1.1468,1.1226,1.1094,1.0962,1.084,1.0697,1.0448,1.0147,1.0039,0.9911,0.9753,0.9426,0.8866,0.8239,0.8239,0.833,0.8484,0.8658,0.8661,0.8609,0.8875,0.814,0.7222,0.7518,0.7217,0.6796,0.694,0.6113,0.5226,0.5246,0.4712,0.4174,0.407,0.4149,0.4207,0.4048,0.4322,0.4574,0.4494,0.4798,0.5069,0.4956,0.5011,0.512,0.5211,0.4904,0.4712,0.4866,0.4422,0.4012,0.3818,0.3735,0.3372,0.2651,0.2539,0.2265,0.1684,0.1572,0.1403,0.1038,0.115,0.1094,0.0841,0.0252,-0.0196,-0.0419,-0.1814,-0.3178,-0.4481,-0.4948,-0.5093,1.4314,1.487,1.535,1.564,1.6279,1.676,1.6466,0.0,1.7086,1.7391,0.0,1.7496,1.8206,0.0,0.0,1.8811,1.8677,1.8714,1.9468,1.9743,2.0354,2.1656,2.1539,2.1483,2.1832,2.0697,2.0032,2.027,1.8452,1.7454,1.7765,1.5874,1.4594,1.4187,1.3458,1.2931,1.2692,1.2383,1.2264,1.2294,1.1774,1.1719,1.2036,1.1449,1.1394,1.1708,1.1,1.0725,1.0755,1.0225,1.001,1.003,0.9753,0.9437,0.9159,0.9159,0.9089,0.9049,0.9423,0.9399,0.916,0.8898,0.8203,0.7443,0.7357,0.7383,0.7264,0.6652,0.6443,0.629,0.585,0.5647,0.5471,0.505,0.5042,0.5093,0.4838,0.4904,0.5128,0.5399,0.5266,0.5097,0.5069,0.543,0.5709,0.5713,0.5434,0.527,0.5481,0.4873,0.4484,0.4563,0.4202,0.3649,0.2905,0.2625,0.2293,0.1797,0.1487,0.1403,0.1515,0.115,0.0644,-0.0028,-0.0252,-0.0616,-0.1174,-0.1538,-0.2148,-0.2975,-0.4067,-0.457,1.4036,1.4619,1.5089,1.5238,1.5647,1.6003,1.6015,1.617,1.6505,1.7157,0.0,0.0,0.0,0.0,0.0,0.0,1.8082,1.8139,1.8374,1.8573,1.9336,2.102,2.1293,2.1378,2.143,2.0598,1.9963,1.9755,1.9033,1.8399,1.7957,1.6652,1.5485,1.4611,1.3815,1.3173,1.2709,1.2199,1.2112,1.2383,1.1832,1.1779,1.2192,1.1993,1.1902,1.1891,1.1634,1.1292,1.0878,1.064,1.0332,1.0039,0.9921,0.9675,0.9399,0.9319,0.9341,0.9464,1.0031,1.0083,0.9856,0.9678,0.9008,0.8292,0.8197,0.7846,0.7456,0.723,0.7039,0.6838,0.6602,0.6414,0.618,0.5819,0.5891,0.5916,0.5358,0.5386,0.5582,0.58,0.5773,0.5773,0.585,0.5673,0.5544,0.5654,0.5626,0.5599,0.5595,0.5403,0.5234,0.523,0.512,0.4759,0.4012,0.3926,0.3456,0.2378,0.1541,0.1234,0.1572,0.1234,0.0953,0.084,0.0785,0.0673,0.0504,-0.0084,-0.053,-0.0891,-0.2367,-0.2952,1.3494,1.4106,1.4612,1.4549,1.4888,1.5252,1.5403,1.5487,1.5762,1.6646,1.6697,0.0,0.0,0.0,1.699,1.7092,0.0,1.749,1.7559,1.7812,1.8526,1.992,2.057,2.0913,2.0987,2.0531,1.9925,1.9244,1.9376,1.9042,1.7992,1.7319,1.645,1.5407,1.443,1.3672,1.3141,1.2244,1.1947,1.2224,1.1795,1.1755,1.2083,1.2259,1.2228,1.2054,1.2048,1.1737,1.1217,1.1105,1.0802,1.04,1.0244,1.004,0.9775,0.9507,0.9485,0.966,1.0215,1.0323,1.0234,1.0318,0.9688,0.888,0.8749,0.822,0.7674,0.774,0.7616,0.7461,0.7461,0.7301,0.7082,0.6731,0.6881,0.6926,0.6291,0.6303,0.6423,0.6418,0.6506,0.6612,0.6631,0.6095,0.565,0.565,0.5736,0.5768,0.5677,0.5763,0.5791,0.5677,0.5763,0.5567,0.4811,0.4732,0.4177,0.2875,0.1874,0.1484,0.1822,0.1374,0.1206,0.1459,0.1459,0.1515,0.16,0.1008,0.0755,0.0755,-0.0921,-0.1646,1.2248,1.2891,1.3566,1.324,1.3858,1.4525,1.4547,1.4537,1.479,1.5678,1.542,1.5185,1.5588,1.559,1.5691,1.6071,1.6273,0.0,0.0,1.7787,1.8063,1.8248,1.9033,1.9871,2.0633,2.0298,1.978,1.9244,1.9207,1.893,1.8316,1.7824,1.7338,1.6853,1.5483,1.4603,1.4246,1.2631,1.1807,1.1819,1.1668,1.1647,1.1737,1.206,1.23,1.2473,1.2072,1.1975,1.2041,1.1645,1.1479,1.1404,1.0886,1.063,1.0486,0.9911,0.9614,0.954,0.9828,0.9969,1.0083,1.0615,0.9929,0.885,0.8576,0.8304,0.8055,0.7936,0.8113,0.8355,0.8355,0.8455,0.8428,0.7951,0.8111,0.8249,0.7898,0.7919,0.7919,0.7516,0.7555,0.7571,0.7318,0.6871,0.6376,0.5873,0.5795,0.5795,0.5795,0.5923,0.595,0.5822,0.5923,0.57,0.4952,0.4484,0.3901,0.313,0.2681,0.2456,0.2484,0.1596,0.1094,0.1122,0.1122,0.1122,0.1122,0.1234,0.1375,0.1515,-0.0168,-0.1062,1.2212,1.2486,1.2764,1.2822,1.3069,1.3433,1.392,1.398,1.4133,1.4903,1.4869,1.4744,1.496,1.5158,1.5364,1.5486,1.5685,1.5659,0.0,1.5228,1.58,1.7246,1.7772,1.8417,1.9338,1.9338,1.8978,1.826,1.8442,1.8403,1.7928,1.7424,1.7076,1.697,1.5471,1.4543,1.429,1.2419,1.1588,1.1795,1.1162,1.1148,1.1635,1.18,1.2036,1.23,1.23,1.2174,1.1963,1.192,1.17,1.1319,1.0821,1.0649,1.0592,0.995,0.9614,0.9596,1.0318,1.1049,1.1682,1.1746,1.1103,1.0191,0.966,0.9296,0.8999,0.8554,0.8683,0.8903,0.8827,0.8825,0.8791,0.8441,0.858,0.8692,0.8309,0.8256,0.833,0.8456,0.839,0.8291,0.828,0.8081,0.7605,0.6669,0.6539,0.6322,0.5732,0.5704,0.5677,0.5489,0.5626,0.5645,0.5371,0.4763,0.4236,0.3846,0.307,0.2764,0.3074,0.2571,0.2237,0.2153,0.1931,0.171,0.1431,0.1347,0.1347,0.1403,0.1035,0.0671,1.2175,1.2249,1.232,1.2339,1.2488,1.2749,1.3239,1.3263,1.3399,1.4107,1.4084,1.3967,1.4037,1.4445,1.4732,1.4653,1.5062,1.5104,0.0,1.3946,1.438,1.6051,1.6797,1.7472,1.8148,1.8546,1.854,1.7995,1.8085,1.8044,1.7718,1.7337,1.718,1.7361,1.5698,1.4809,1.4795,1.2651,1.1664,1.1795,1.128,1.1254,1.1685,1.1812,1.2031,1.2282,1.2354,1.2282,1.2108,1.2258,1.2113,1.1744,1.1311,1.1038,1.081,1.0,0.9623,0.9632,1.056,1.1411,1.2106,1.2254,1.1835,1.1156,1.0488,1.0107,0.9779,0.9305,0.9392,0.96,0.9532,0.9384,0.923,0.9066,0.9047,0.9035,0.8923,0.8896,0.8967,0.916,0.9101,0.8987,0.8903,0.8848,0.8435,0.7343,0.7182,0.6993,0.6431,0.63,0.6136,0.5732,0.5814,0.5759,0.5458,0.5042,0.4712,0.4539,0.379,0.3489,0.3771,0.3322,0.3042,0.3014,0.2738,0.2516,0.2376,0.2211,0.2043,0.1877,0.2041,0.182]}]]